Date StartTime U_cm/s V_cm/s W_cm/s Ustd_cm/s Vstd_cm/s Wstd_cm/s Uvar_(cm/s)^2 Vvar_(cm/s)^2 Wvar_(cm/s)^2 KE_(m/s)^2 TurbulentKE_(m/s)^2 HorizWindSpeed_cm/s FrictionSpeec_cm/s DragCoef SpeedOfSound_m/s SonicTemperature_C Pressure_mb 
10/17/2014  00:00:00      -56.478      -50.038        6.384       55.040       29.657       22.658     3029.452      879.552      513.374        0.508        0.221       75.456       29.411        0.152      338.685       11.504      858.698
10/17/2014  00:01:00      -78.166      -65.125       -1.247       39.865       26.661       15.463     1589.217      710.783      239.107        0.645        0.127      101.741       11.029        0.012      338.720       11.563      858.721
10/17/2014  00:02:00      -75.646      -57.313        0.901       31.663       26.672       19.399     1002.515      711.386      376.326        0.555        0.105       94.906       17.235        0.033      338.720       11.563      858.746
10/17/2014  00:03:00      -66.051      -40.344       -1.363       31.154       24.479       19.461      970.561      599.220      378.724        0.397        0.097       77.398       16.405        0.045      338.724       11.569      858.759
10/17/2014  00:04:00      -88.884      -58.677       -8.941       21.095       16.330       12.244      444.987      266.659      149.921        0.614        0.043      106.505        7.548        0.005      338.769       11.646      858.774
10/17/2014  00:05:00     -100.177      -52.983       -2.353       26.714       19.276       17.879      713.651      371.547      319.655        0.713        0.070      113.325       16.482        0.021      338.663       11.467      858.783
10/17/2014  00:06:00      -64.734      -40.547       -0.753       36.716       24.481       20.159     1348.054      599.338      406.379        0.409        0.118       76.384       19.801        0.067      338.607       11.373      858.791
10/17/2014  00:07:00      -69.399      -32.200        1.864       28.916       21.994       15.082      836.130      483.714      227.461        0.370        0.077       76.505       10.647        0.019      338.580       11.328      858.775
10/17/2014  00:08:00      -80.840      -26.531       -6.859       10.574       13.541        9.204      111.806      183.363       84.722        0.383        0.019       85.082        3.608        0.002      338.594       11.351      858.761
10/17/2014  00:09:00      -81.198      -24.674       -5.928       12.301       17.336        8.312      151.325      300.543       69.082        0.388        0.026       84.864        7.263        0.007      338.614       11.385      858.752
10/17/2014  00:10:00      -80.369      -20.443       -8.110       17.398       12.854       11.351      302.690      165.223      128.847        0.377        0.030       82.929        9.907        0.014      338.593       11.350      858.728
10/17/2014  00:11:00      -92.448      -21.593       -4.210       17.421       13.820       12.681      303.504      190.985      160.813        0.484        0.033       94.936       10.805        0.013      338.583       11.334      858.717
10/17/2014  00:12:00     -116.655      -47.530       -2.023       19.703       11.335       10.579      388.211      128.482      111.919        0.825        0.031      125.966       10.617        0.007      338.573       11.315      858.726
10/17/2014  00:13:00     -127.002      -59.756       -0.367       20.716       18.917       13.342      429.145      357.856      178.006        1.033        0.048      140.358        9.296        0.004      338.530       11.243      858.723
10/17/2014  00:14:00     -121.115      -37.618       -5.947       35.375       25.416       21.745     1251.403      645.974      472.829        0.924        0.119      126.823       23.541        0.034      338.443       11.098      858.723
10/17/2014  00:15:00     -104.774      -19.423       -5.460       46.331       29.153       24.114     2146.601      849.916      581.467        0.748        0.179      106.559       25.403        0.057      338.373       10.980      858.722
10/17/2014  00:16:00     -151.451      -55.419       -7.485       23.291       29.033       20.433      542.468      842.927      417.514        1.393        0.090      161.272       14.065        0.008      338.388       11.006      858.736
10/17/2014  00:17:00     -112.706      -40.513       -0.826       66.127       38.607       25.416     4372.746     1490.534      645.952        1.043        0.325      119.766       30.845        0.066      338.341       10.927      858.746
10/17/2014  00:18:00     -107.580      -63.653        2.059       46.168       31.586       25.538     2131.450      997.650      652.214        0.970        0.189      125.000       21.551        0.030      338.409       11.041      858.758
10/17/2014  00:19:00     -115.625      -52.955        2.568       47.029       31.003       21.874     2211.748      961.194      478.451        0.992        0.183      127.175       23.712        0.035      338.423       11.065      858.760
10/17/2014  00:20:00      -72.574      -75.642        6.401       46.718       36.348       24.760     2182.578     1321.162      613.080        0.757        0.206      104.827       24.708        0.056      338.479       11.158      858.775
10/17/2014  00:21:00      -57.844      -45.146        6.323       48.898       32.163       23.974     2391.032     1034.481      574.773        0.471        0.200       73.377       21.674        0.087      338.441       11.095      858.778
10/17/2014  00:22:00      -85.163      -66.861        1.662       42.912       39.507       26.652     1841.444     1560.800      710.330        0.792        0.206      108.273       22.182        0.042      338.464       11.134      858.776
10/17/2014  00:23:00     -130.036      -76.877       -7.346       32.512       30.674       21.291     1057.044      940.888      453.314        1.266        0.123      151.062       17.988        0.014      338.526       11.236      858.783
10/17/2014  00:24:00     -126.855      -68.607       -1.069       45.172       26.424       20.532     2040.470      698.205      421.552        1.198        0.158      144.219       22.013        0.023      338.475       11.152      858.777
10/17/2014  00:25:00     -136.141      -67.485       -9.293       33.637       25.914       17.229     1131.479      671.522      296.825        1.264        0.105      151.949       16.981        0.012      338.453       11.114      858.768
10/17/2014  00:26:00     -127.134      -32.865      -13.362       22.090       23.237       14.597      487.980      539.975      213.086        0.933        0.062      131.313       11.111        0.007      338.385       11.000      858.757
10/17/2014  00:27:00     -128.215      -15.388       -9.009       34.296       25.055       19.601     1176.195      627.755      384.218        0.947        0.109      129.135       20.511        0.025      338.297       10.852      858.753
10/17/2014  00:28:00      -79.255       -1.727        1.968       38.718       27.290       19.778     1499.053      744.763      391.169        0.446        0.132       79.274       18.321        0.053      338.330       10.908      858.746
10/17/2014  00:29:00      -69.793       -1.080       -1.874       33.922       26.378       19.963     1150.702      695.775      398.532        0.356        0.112       69.801       15.556        0.050      338.452       11.114      858.746
10/17/2014  00:30:00      -57.181      -24.811       -4.407       33.391       30.440       15.788     1114.975      926.605      249.247        0.310        0.115       62.332       18.368        0.087      338.426       11.068      858.765
10/17/2014  00:31:00     -100.749      -24.172      -10.572       22.254       23.106       12.975      495.256      533.880      168.339        0.602        0.060      103.608        9.324        0.008      338.350       10.943      858.778
10/17/2014  00:32:00     -111.143        7.191      -15.132       14.248       14.343       12.249      202.994      205.725      150.035        0.660        0.028      111.376        8.907        0.006      338.292       10.844      858.776
10/17/2014  00:33:00     -103.872       17.461      -17.022       25.395       20.432       18.003      644.893      417.468      324.107        0.638        0.069      105.329       11.080        0.011      338.195       10.683      858.775
10/17/2014  00:34:00      -62.431      -17.395       -2.133       31.389       31.385       25.073      985.250      985.006      628.669        0.340        0.130       64.810       16.964        0.069      338.327       10.903      858.775
10/17/2014  00:35:00      -57.009      -27.731        2.951       31.691       27.040       18.255     1004.295      731.174      333.240        0.305        0.103       63.396       15.951        0.063      338.312       10.877      858.761
10/17/2014  00:36:00     -101.915      -39.347       -2.419       34.850       29.650       15.250     1214.510      879.100      232.549        0.713        0.116      109.247       13.036        0.014      338.203       10.695      858.752
10/17/2014  00:37:00     -102.726      -34.564       -9.218       24.799       29.342       16.295      614.997      860.974      265.537        0.679        0.087      108.385       12.147        0.013      338.173       10.646      858.749
10/17/2014  00:38:00     -105.824      -32.433       -4.198       20.863       22.107       13.982      435.257      488.731      195.507        0.669        0.056      110.682       11.216        0.010      338.140       10.587      858.750
10/17/2014  00:39:00      -71.957       -6.388       -2.626       24.969       17.802       12.891      623.438      316.908      166.170        0.317        0.055       72.240       11.612        0.026      338.140       10.588      858.758
10/17/2014  00:40:00      -41.737      -36.792       -8.049       15.856       13.928       10.923      251.405      193.986      119.311        0.186        0.028       55.638        5.687        0.010      338.186       10.666      858.778
10/17/2014  00:41:00      -23.880      -31.994       -1.019       24.522       10.836       13.234      601.314      117.412      175.142        0.124        0.045       39.923        7.416        0.035      338.234       10.746      858.806
10/17/2014  00:42:00      -68.099      -34.828       -6.181       29.190       12.130       11.675      852.040      147.149      136.301        0.351        0.057       76.489        5.903        0.006      338.137       10.585      858.821
10/17/2014  00:43:00      -86.903      -43.498      -13.661       11.172       15.313       10.082      124.804      234.499      101.639        0.505        0.023       97.182        5.929        0.004      338.260       10.791      858.818
10/17/2014  00:44:00     -109.087      -36.374      -10.945       22.456       21.753       12.027      504.259      473.192      144.645        0.723        0.056      114.992        9.142        0.006      338.249       10.771      858.818
10/17/2014  00:45:00     -115.356      -47.575      -10.872        8.646       14.587        7.832       74.758      212.767       61.336        0.802        0.017      124.781        3.806        0.001      338.211       10.708      858.817
10/17/2014  00:46:00      -93.218      -50.849       -5.048       24.345       18.664       11.840      592.670      348.360      140.177        0.619        0.054      106.185        9.014        0.007      338.166       10.632      858.808
10/17/2014  00:47:00     -104.275      -54.935       -6.567       18.765       18.141       16.568      352.134      329.092      274.514        0.744        0.048      117.860        9.776        0.007      338.213       10.713      858.801
10/17/2014  00:48:00      -92.257      -45.354       -8.346       17.100       13.573       15.547      292.419      184.221      241.705        0.568        0.036      102.803       10.227        0.010      338.200       10.691      858.801
10/17/2014  00:49:00      -77.229      -44.454       -0.896       23.095       17.123       14.809      533.375      293.184      219.316        0.449        0.052       89.109       14.377        0.026      338.139       10.587      858.787
10/17/2014  00:50:00      -71.822      -32.875       -5.334       20.899       15.953       13.520      436.748      254.491      182.794        0.357        0.044       78.988        9.511        0.014      338.184       10.663      858.774
10/17/2014  00:51:00      -61.076      -34.757       -0.776       20.182       15.125       10.487      407.326      228.754      109.978        0.284        0.037       70.273       10.994        0.024      338.184       10.663      858.775
10/17/2014  00:52:00      -54.120      -35.069       -0.873       30.812       23.351       16.479      949.352      545.275      271.558        0.296        0.088       64.489       19.109        0.088      338.187       10.668      858.776
10/17/2014  00:53:00      -61.948      -62.521       -4.744       24.294       20.116       13.138      590.186      404.667      172.610        0.447        0.058       88.013        8.691        0.010      338.174       10.646      858.761
10/17/2014  00:54:00      -47.880      -37.901       -1.763       27.768       14.474       12.771      771.074      209.503      163.106        0.244        0.057       61.066       11.088        0.033      338.203       10.695      858.745
10/17/2014  00:55:00      -53.244      -31.038       -7.177        9.843       10.270       10.206       96.893      105.474      104.172        0.208        0.015       61.630        6.057        0.010      338.253       10.779      858.746
10/17/2014  00:56:00      -53.453      -32.620       -5.438       12.895        9.847        9.547      166.270       96.960       91.153        0.215        0.018       62.620        7.802        0.016      338.268       10.804      858.738
10/17/2014  00:57:00      -35.834      -28.991       -2.920       20.600       11.332        9.136      424.376      128.421       83.469        0.138        0.032       46.092        4.457        0.009      338.270       10.807      858.734
10/17/2014  00:58:00      -74.194      -47.629       -5.694       20.446       17.904       13.241      418.036      320.551      175.323        0.436        0.046       88.166        7.653        0.008      338.154       10.614      858.727
10/17/2014  00:59:00      -93.877      -46.729      -10.263       17.789       11.412        8.115      316.444      130.225       65.851        0.581        0.026      104.864        5.398        0.003      338.131       10.573      858.728
10/17/2014  01:00:00      -97.727      -34.733       -7.617       20.652       16.339       14.254      426.490      266.974      203.178        0.586        0.045      103.716       11.330        0.012      338.112       10.541      858.725
10/17/2014  01:01:00      -79.414      -54.536       -7.197       27.117       20.261       15.587      735.350      410.514      242.963        0.536        0.069       96.336       11.618        0.015      338.126       10.565      858.713
10/17/2014  01:02:00      -59.107      -37.703       -1.478       25.052       21.544       12.778      627.609      464.158      163.288        0.309        0.063       70.108       13.350        0.036      338.098       10.517      858.704
10/17/2014  01:03:00      -60.047      -22.070        3.729       19.561       16.329       13.103      382.647      266.625      171.682        0.246        0.041       63.975        7.541        0.014      338.074       10.477      858.704
10/17/2014  01:04:00      -63.675      -36.338       -6.773       27.983       20.813       15.995      783.070      433.174      255.856        0.345        0.074       73.314       13.654        0.035      338.156       10.618      858.719
10/17/2014  01:05:00      -59.871      -25.904        0.451       31.278       18.817       13.351      978.323      354.081      178.256        0.288        0.076       65.234       13.679        0.044      338.143       10.593      858.739
10/17/2014  01:06:00      -72.708      -29.846        3.680       18.243       23.209       15.487      332.811      538.662      239.860        0.365        0.056       78.596       10.969        0.019      338.127       10.566      858.735
10/17/2014  01:07:00      -71.777      -33.822        2.604       23.810       20.042       13.082      566.936      401.673      171.132        0.372        0.057       79.346        8.813        0.012      338.065       10.463      858.749
10/17/2014  01:08:00      -61.115      -46.763       -0.693       32.643       26.450       14.473     1065.542      699.601      209.457        0.395        0.099       76.953       13.731        0.032      338.056       10.449      858.755
10/17/2014  01:09:00      -50.344      -31.591        4.137       33.995       23.368       19.703     1155.653      546.083      388.191        0.282        0.104       59.434       17.195        0.084      338.104       10.529      858.768
10/17/2014  01:10:00      -71.127      -66.177       -0.644       27.109       22.185       14.947      734.902      492.179      223.402        0.544        0.073       97.152        8.877        0.008      338.200       10.689      858.770
10/17/2014  01:11:00      -61.265      -57.294        1.146       43.385       31.625       17.924     1882.216     1000.162      321.265        0.512        0.160       83.881       18.546        0.049      338.199       10.688      858.761
10/17/2014  01:12:00      -73.364      -88.316        0.459       28.717       44.155       23.655      824.681     1949.681      559.577        0.826        0.167      114.813       19.190        0.028      338.117       10.549      858.759
10/17/2014  01:13:00     -112.791     -111.769      -14.494       34.367       31.094       19.697     1181.063      966.819      387.985        1.398        0.127      158.790       13.884        0.008      338.181       10.659      858.746
10/17/2014  01:14:00      -93.237      -83.275      -10.125       37.192       18.920       19.157     1383.277      357.973      366.998        0.892        0.105      125.011       16.038        0.016      338.216       10.715      858.749
10/17/2014  01:15:00      -38.447      -29.276        0.613       29.621       21.662       17.859      877.389      469.224      318.946        0.200        0.083       48.324       13.604        0.079      338.132       10.576      858.745
10/17/2014  01:16:00      -67.560      -51.856       -6.832       15.310       16.411       11.780      234.390      269.336      138.776        0.397        0.032       85.167        8.226        0.009      338.138       10.585      858.736
10/17/2014  01:17:00      -25.974      -32.629        0.687       29.257       17.326       12.596      855.981      300.190      158.657        0.153        0.066       41.705       11.255        0.073      338.119       10.554      858.739
10/17/2014  01:18:00      -32.075      -21.542        4.681       34.075       20.136       17.396     1161.076      405.445      302.607        0.169        0.093       38.638       18.534        0.230      338.039       10.421      858.746
10/17/2014  01:19:00      -85.606      -45.364       -0.211       36.665       22.751       19.496     1344.331      517.607      380.080        0.581        0.112       96.883       20.649        0.045      338.040       10.420      858.752
10/17/2014  01:20:00      -63.741      -39.409       -5.679       35.229       22.590       16.423     1241.095      510.293      269.705        0.383        0.101       74.939       17.709        0.056      338.149       10.604      858.749
10/17/2014  01:21:00      -54.516      -15.811        6.186       24.193       25.546       21.475      585.284      652.576      461.159        0.248        0.085       56.763       15.493        0.075      338.096       10.515      858.734
10/17/2014  01:22:00       -6.418      -19.836       -0.169       26.582       18.857       13.748      706.608      355.592      189.012        0.084        0.063       20.848        9.847        0.223      338.106       10.531      858.726
10/17/2014  01:23:00      -51.334      -35.014      -13.272       39.559       28.628       16.389     1564.900      819.569      268.612        0.334        0.133       62.138       15.763        0.064      338.090       10.505      858.747
10/17/2014  01:24:00      -95.698      -90.192       -0.400       56.129       49.369       27.260     3150.512     2437.306      743.085        1.181        0.317      131.502       22.168        0.028      338.048       10.434      858.770
10/17/2014  01:25:00     -124.808      -92.804      -14.061       55.021       41.574       39.106     3027.365     1728.409     1529.240        1.534        0.314      155.530       27.663        0.032      338.049       10.436      858.788
10/17/2014  01:26:00      -87.531      -59.028        1.903       56.998       48.036       32.113     3248.717     2307.481     1031.224        0.887        0.329      105.575       27.029        0.066      337.974       10.311      858.808
10/17/2014  01:27:00     -104.775      -62.188       -6.844       55.494       34.456       25.495     3079.536     1187.214      650.020        0.990        0.246      121.841       24.591        0.041      337.950       10.270      858.823
10/17/2014  01:28:00     -143.428     -132.501      -16.705       40.639       49.283       25.845     1651.547     2428.828      667.955        2.158        0.237      195.264       17.147        0.008      337.930       10.235      858.840
10/17/2014  01:29:00     -149.682     -104.508      -14.232       40.297       39.526       24.411     1623.811     1562.337      595.915        1.865        0.189      182.556       22.926        0.016      337.938       10.250      858.854
10/17/2014  01:30:00     -110.864      -64.182        3.548       39.555       32.541       17.355     1564.564     1058.895      301.183        0.967        0.146      128.103       18.270        0.020      337.936       10.246      858.863
10/17/2014  01:31:00      -75.602      -41.335       -1.752       34.330       24.260       20.834     1178.560      588.527      434.054        0.481        0.110       86.164       12.135        0.020      337.906       10.196      858.854
10/17/2014  01:32:00      -84.305      -14.499       -7.095       18.463       19.817       13.626      340.880      392.695      185.670        0.414        0.046       85.543        7.917        0.009      337.854       10.108      858.827
10/17/2014  01:33:00      -70.654      -15.436        0.968       21.287       22.587       16.822      453.134      510.155      282.965        0.324        0.062       72.321       12.036        0.028      337.876       10.146      858.786
10/17/2014  01:34:00      -67.521      -53.731       -3.900       15.539       28.932       12.729      241.475      837.065      162.015        0.435        0.062       86.291        7.079        0.007      337.970       10.304      858.755
10/17/2014  01:35:00      -79.520      -26.103       -3.001       23.806       19.411       12.686      566.711      376.772      160.940        0.406        0.055       83.694       11.484        0.019      337.922       10.223      858.724
10/17/2014  01:36:00      -79.804      -40.604       -1.682       21.418       18.653       12.581      458.748      347.948      158.288        0.449        0.048       89.540        3.971        0.002      337.862       10.122      858.702
10/17/2014  01:37:00      -68.645      -22.229       -3.296       18.336       13.266       13.082      336.207      175.977      171.135        0.295        0.034       72.155       10.834        0.023      337.814       10.043      858.685
10/17/2014  01:38:00      -75.068      -11.952       -7.672       13.457       18.536        9.516      181.083      343.589       90.562        0.323        0.031       76.014        7.751        0.010      337.785        9.993      858.688
10/17/2014  01:39:00      -86.301      -15.868      -10.741       16.083       12.835       11.170      258.649      164.728      124.772        0.418        0.027       87.748        6.960        0.006      337.775        9.977      858.694
10/17/2014  01:40:00      -96.786      -18.965       -6.747       21.338       20.213       13.580      455.317      408.577      184.421        0.541        0.052       98.626        9.200        0.009      337.706        9.861      858.712
10/17/2014  01:41:00     -106.026      -45.033      -11.958       23.720       20.070       12.135      562.662      402.788      147.266        0.726        0.056      115.193        6.983        0.004      337.735        9.910      858.729
10/17/2014  01:42:00     -110.999      -34.124      -13.074       25.496       17.114       11.648      650.057      292.892      135.676        0.737        0.054      116.126        7.719        0.004      337.617        9.711      858.743
10/17/2014  01:43:00      -77.710      -31.023       -4.135       33.031       22.624       17.299     1091.069      511.830      299.247        0.446        0.095       83.674       19.410        0.054      337.612        9.703      858.747
10/17/2014  01:44:00      -53.357      -17.948        4.701       30.414       19.005       12.815      924.990      361.205      164.220        0.232        0.073       56.295        6.908        0.015      337.567        9.628      858.752
10/17/2014  01:45:00      -84.141      -31.458       -4.574       21.948       20.611       18.196      481.727      424.800      331.077        0.466        0.062       89.830       13.526        0.023      337.613        9.704      858.746
10/17/2014  01:46:00      -73.626      -58.054       -0.950       26.737       23.679       18.566      714.844      560.678      344.707        0.521        0.081       93.761       16.261        0.030      337.649        9.767      858.750
10/17/2014  01:47:00      -76.647      -29.454        3.648       43.771       23.978       17.352     1915.896      574.956      301.104        0.477        0.140       82.111       19.675        0.057      337.636        9.745      858.751
10/17/2014  01:48:00     -100.473      -31.098      -10.617       18.912       27.358       15.559      357.659      748.485      242.081        0.626        0.067      105.175        7.592        0.005      337.587        9.661      858.772
10/17/2014  01:49:00     -124.116      -50.827       -6.913       15.186       20.341       15.108      230.608      413.746      228.259        0.945        0.044      134.120       11.023        0.007      337.564        9.623      858.787
10/17/2014  01:50:00      -75.417      -48.734        1.284       54.870       46.075       27.905     3010.751     2122.938      778.697        0.699        0.296       89.793       27.777        0.096      337.609        9.698      858.788
10/17/2014  01:51:00     -125.564      -83.343       -3.122       34.644       30.955       21.507     1200.188      958.227      462.537        1.267        0.131      150.706       19.991        0.018      337.757        9.947      858.790
10/17/2014  01:52:00      -97.847      -61.601       -0.836       44.392       32.416       22.133     1970.677     1050.785      489.891        0.844        0.176      115.623       21.083        0.033      337.667        9.796      858.782
10/17/2014  01:53:00      -86.029      -61.977       -1.041       44.335       27.542       16.625     1965.635      758.563      276.388        0.712        0.150      106.029       15.714        0.022      337.810       10.037      858.783
10/17/2014  01:54:00      -68.897      -58.674        5.588       39.676       35.790       23.046     1574.217     1280.937      531.128        0.580        0.169       90.495       20.596        0.052      337.773        9.974      858.780
10/17/2014  01:55:00      -96.655      -63.127        1.417       38.715       31.122       21.864     1498.876      968.585      478.050        0.814        0.147      115.443       20.939        0.033      337.706        9.862      858.782
10/17/2014  01:56:00      -63.027      -42.078        8.395       42.231       31.146       20.518     1783.463      970.084      420.986        0.449        0.159       75.782       19.723        0.068      337.670        9.802      858.782
10/17/2014  01:57:00      -48.257      -49.630        3.741       30.328       26.753       18.127      919.778      715.737      328.571        0.338        0.098       69.223       15.951        0.053      337.689        9.832      858.791
10/17/2014  01:58:00      -64.012      -42.337        7.087       44.938       25.056       19.095     2019.380      627.800      364.610        0.448        0.151       76.746       23.115        0.091      337.709        9.866      858.793
10/17/2014  01:59:00      -85.746      -47.707       -0.774       35.373       19.210       20.021     1251.240      369.042      400.829        0.582        0.101       98.124       20.536        0.044      337.688        9.832      858.788
10/17/2014  02:00:00      -86.002      -44.825        6.583       43.875       23.312       20.309     1925.039      543.434      412.437        0.616        0.144       96.983       22.686        0.055      337.727        9.897      858.799
10/17/2014  02:01:00     -122.236      -44.449        1.398       28.146       27.571       16.326      792.223      760.174      266.539        0.937        0.091      130.067       14.414        0.012      337.763        9.957      858.817
10/17/2014  02:02:00     -121.149      -54.076       -0.612       39.868       20.174       16.263     1589.472      406.992      264.471        0.993        0.113      132.670       18.592        0.020      337.760        9.951      858.822
10/17/2014  02:03:00      -80.520      -62.147        5.512       50.073       30.877       19.786     2507.297      953.362      391.473        0.711        0.193      101.714       19.480        0.037      337.808       10.033      858.822
10/17/2014  02:04:00     -102.354      -45.364        1.456       48.445       29.621       19.433     2346.895      877.399      377.631        0.807        0.180      111.957       22.951        0.042      337.761        9.952      858.829
10/17/2014  02:05:00     -132.438      -55.427        0.122       21.911       18.129       14.283      480.112      328.647      204.014        1.081        0.051      143.569        9.956        0.005      337.764        9.959      858.844
10/17/2014  02:06:00     -116.817      -48.765       -3.024       23.264       17.603       16.614      541.231      309.874      276.023        0.858        0.056      126.587       12.354        0.010      337.721        9.885      858.845
10/17/2014  02:07:00      -90.096      -36.958        4.392       35.856       20.860       17.292     1285.626      435.156      299.012        0.576        0.101       97.381       19.193        0.039      337.792       10.006      858.845
10/17/2014  02:08:00      -85.235      -29.005        8.130       43.323       21.268       18.744     1876.884      452.307      351.343        0.543        0.134       90.035       22.830        0.064      337.770        9.968      858.847
10/17/2014  02:09:00      -91.783      -39.246       -5.677       20.835       24.611       10.668      434.083      605.693      113.808        0.557        0.058       99.821        4.245        0.002      337.753        9.939      858.857
10/17/2014  02:10:00      -99.477      -13.393      -10.555       16.860       19.160       15.001      284.250      367.089      225.040        0.553        0.044      100.374       11.640        0.013      337.641        9.752      858.848
10/17/2014  02:11:00      -96.867      -25.123       -4.863        8.391       10.436        8.408       70.416      108.912       70.702        0.514        0.013      100.072        6.002        0.004      337.821       10.054      858.847
10/17/2014  02:12:00      -83.936       -7.120       -6.161       15.499       11.851        9.971      240.215      140.445       99.422        0.381        0.024       84.237        4.727        0.003      337.871       10.138      858.842
10/17/2014  02:13:00      -82.521      -31.307       -5.874       11.345       14.835       10.363      128.707      220.067      107.397        0.414        0.023       88.260        6.908        0.006      337.776        9.978      858.853
10/17/2014  02:14:00     -117.250      -47.452       -8.168       18.985       15.376        9.037      360.430      236.431       81.665        0.837        0.034      126.488        5.829        0.002      337.526        9.559      858.866
10/17/2014  02:15:00     -112.739      -25.870        3.360       54.077       54.826       28.936     2924.274     3005.914      837.268        1.008        0.338      115.669       32.384        0.078      337.363        9.287      858.877
10/17/2014  02:16:00     -115.820       34.091       -7.668       56.708       37.739       33.393     3215.821     1424.215     1115.080        1.019        0.288      120.733       20.811        0.030      337.687        9.829      858.879
10/17/2014  02:17:00     -159.835       38.817      -16.179       49.638       34.160       26.050     2463.934     1166.876      678.588        1.581        0.215      164.481       17.188        0.011      337.593        9.671      858.881
10/17/2014  02:18:00     -200.190       27.866      -17.647       51.657       38.869       18.577     2668.420     1510.821      345.107        2.284        0.226      202.120       11.334        0.003      337.575        9.639      858.885
10/17/2014  02:19:00     -208.648       36.471      -17.339       44.980       43.658       27.004     2023.178     1906.060      729.204        2.491        0.233      211.812       23.600        0.012      337.493        9.503      858.899
10/17/2014  02:20:00     -166.941       29.806      -16.178       38.519       33.274       24.003     1483.691     1107.142      576.124        1.609        0.158      169.581       18.332        0.012      337.497        9.511      858.901
10/17/2014  02:21:00      -25.277        3.179       -7.963       49.643       22.445       24.167     2464.440      503.794      584.066        0.213        0.178       25.476       25.281        0.985      337.587        9.661      858.878
10/17/2014  02:22:00       26.722       -9.362       -5.857       21.325       32.994       20.609      454.765     1088.578      424.740        0.140        0.098       28.314        4.906        0.030      337.571        9.633      858.846
10/17/2014  02:23:00      -41.247        1.188      -11.832       31.335       22.839       12.235      981.867      521.614      149.688        0.175        0.083       41.264       14.094        0.117      337.821       10.052      858.860
10/17/2014  02:24:00     -111.494       -8.918      -14.468       28.592       23.649       15.785      817.479      559.270      249.181        0.717        0.081      111.851       15.152        0.018      337.676        9.811      858.881
10/17/2014  02:25:00      -95.562       -8.016       -6.149       32.620       27.445       19.678     1064.092      753.233      387.205        0.572        0.110       95.897       18.803        0.038      337.758        9.947      858.907
10/17/2014  02:26:00      -32.918       -2.578        2.965       30.193       17.677       13.025      911.644      312.471      169.645        0.125        0.070       33.019       12.755        0.149      337.833       10.074      858.928
10/17/2014  02:27:00      -41.001       -5.461       -4.096       24.706       16.364       10.226      610.398      267.782      104.564        0.136        0.049       41.363       12.481        0.091      337.923       10.225      858.947
10/17/2014  02:28:00      -27.985      -12.141       -1.184       20.071       10.792        7.298      402.838      116.471       53.258        0.075        0.029       30.505        8.037        0.069      337.801       10.020      858.957
10/17/2014  02:29:00        2.014       -8.750        4.953       14.714        9.037        7.317      216.504       81.669       53.543        0.023        0.018        8.979        4.602        0.263      338.120       10.555      858.958
10/17/2014  02:30:00      -25.386      -18.132        0.060       38.094       10.055       10.779     1451.175      101.098      116.193        0.132        0.083       31.197       15.982        0.262      338.126       10.566      858.977
10/17/2014  02:31:00      -50.754      -16.040       -2.327       44.775       23.210       17.005     2004.781      538.701      289.158        0.284        0.142       53.228       23.636        0.197      337.684        9.825      858.989
10/17/2014  02:32:00      -61.491        4.319      -10.684       34.246       30.391       20.437     1172.803      923.620      417.672        0.321        0.126       61.643        6.019        0.010      337.804       10.026      858.985
10/17/2014  02:33:00      -84.452      -24.285      -14.721       41.349       24.853       14.595     1709.760      617.688      213.009        0.524        0.127       87.875       15.560        0.031      337.624        9.724      858.985
10/17/2014  02:34:00      -86.139      -37.621        0.231       37.819       46.356       26.339     1430.299     2148.879      693.720        0.655        0.214       93.996       24.605        0.069      337.444        9.420      858.995
10/17/2014  02:35:00      -13.700      -20.784        8.711       35.882       23.959       17.941     1287.520      574.014      321.878        0.144        0.109       24.893       18.329        0.542      337.479        9.480      858.983
10/17/2014  02:36:00      -27.008       14.820        0.936       35.237       23.568       22.917     1241.669      555.466      525.186        0.164        0.116       30.807       22.073        0.513      337.603        9.688      858.984
10/17/2014  02:37:00     -116.500      -51.221        0.139       51.037       36.091       22.348     2604.797     1302.534      499.430        1.030        0.220      127.262       22.437        0.031      337.572        9.636      858.995
10/17/2014  02:38:00      -96.620      -36.505      -11.725       38.789       15.955       15.139     1504.559      254.556      229.184        0.640        0.099      103.287       19.938        0.037      337.486        9.491      858.993
10/17/2014  02:39:00      -48.713      -16.658       -4.498       11.755       16.816        6.982      138.185      282.771       48.749        0.157        0.023       51.482        4.822        0.009      337.565        9.626      858.983
10/17/2014  02:40:00      -39.331       11.780       -4.742        7.879       10.432        8.295       62.075      108.822       68.802        0.097        0.012       41.057        2.518        0.004      337.734        9.908      858.970
10/17/2014  02:41:00      -72.853       14.191      -11.383       18.566        8.758        7.318      344.709       76.700       53.555        0.306        0.024       74.223        6.200        0.007      337.753        9.940      858.965
10/17/2014  02:42:00     -185.493      -56.964      -21.466       60.599       33.087       23.224     3672.188     1094.748      539.332        2.171        0.265      194.042        9.388        0.002      337.574        9.637      858.987
10/17/2014  02:43:00     -211.029       21.790      -21.613       46.479       53.207       26.292     2160.266     2831.027      691.285        2.558        0.284      212.151       17.772        0.007      337.385        9.321      859.030
10/17/2014  02:44:00       -8.968       -7.991       -5.515       50.267       58.706       18.153     2526.796     3446.376      329.527        0.324        0.315       12.012       20.815        3.003      337.468        9.462      859.000
10/17/2014  02:45:00       13.761      -36.153       15.065       27.489       44.150       31.871      755.630     1949.194     1015.735        0.272        0.186       38.684       24.178        0.391      337.652        9.771      858.946
10/17/2014  02:46:00        0.223      -13.189       22.258       15.068       31.498       22.909      227.030      992.110      524.810        0.121        0.087       13.191       13.430        1.037      337.655        9.775      858.923
10/17/2014  02:47:00      -57.434      -38.012       -6.705       60.532       42.438       18.724     3664.089     1800.967      350.581        0.530        0.291       68.874       22.087        0.103      337.740        9.917      858.950
10/17/2014  02:48:00     -186.180      -58.101      -14.229       69.313       48.430       29.248     4804.229     2345.468      855.451        2.312        0.400      195.035       31.758        0.027      337.417        9.374      858.980
10/17/2014  02:49:00      -52.366      -30.343        6.556       73.414       28.567       21.800     5389.642      816.060      475.249        0.519        0.334       60.522       29.410        0.236      337.479        9.481      858.957
10/17/2014  02:50:00       74.823       32.291       46.758       35.624       45.090       35.844     1269.094     2033.124     1284.792        0.671        0.229       81.494       34.841        0.183      337.686        9.828      858.858
10/17/2014  02:51:00      -49.268       44.509       37.059       50.776       27.677       44.100     2578.172      766.039     1944.854        0.553        0.264       66.396       44.159        0.442      337.651        9.769      858.815
10/17/2014  02:52:00     -230.997      -47.431      -16.841       77.569       87.658       31.317     6016.919     7683.883      980.760        3.528        0.734      235.816       31.411        0.018      337.662        9.785      858.876
10/17/2014  02:53:00     -134.636      -68.485      -13.290      106.203       71.471       37.363    11278.992     5108.139     1395.992        2.039        0.889      151.053       41.526        0.076      337.582        9.651      858.916
10/17/2014  02:54:00        0.016      -12.187       16.482       30.464       23.155       19.347      928.079      536.177      374.323        0.113        0.092       12.187       19.897        2.665      337.730        9.902      858.906
10/17/2014  02:55:00     -157.012      -27.944      -12.161       42.967       45.833       24.487     1846.135     2100.667      599.636        1.506        0.227      159.480       18.471        0.013      337.689        9.832      858.918
10/17/2014  02:56:00     -167.751      -74.005       -7.340       55.870       39.860       24.131     3121.412     1588.803      582.322        1.948        0.265      183.350       25.995        0.020      337.646        9.760      858.929
10/17/2014  02:57:00      -17.332      -26.736       10.609       30.160       18.465       20.454      909.655      340.939      418.384        0.140        0.083       31.862       17.736        0.310      337.702        9.854      858.911
10/17/2014  02:58:00     -107.261      -16.705      -14.837       21.484       16.990       11.325      461.562      288.647      128.250        0.644        0.044      108.554        8.635        0.006      337.836       10.079      858.918
10/17/2014  02:59:00     -115.506      -13.203      -13.854       20.263       20.307       15.515      410.574      412.371      240.729        0.739        0.053      116.258       13.929        0.014      337.849       10.101      858.918
10/17/2014  03:00:00      -65.980        0.475      -16.931       18.143       16.690       15.460      329.157      278.550      239.000        0.274        0.042       65.982        6.342        0.009      337.909       10.201      858.902
10/17/2014  03:01:00      -59.138      -31.441      -13.406       18.475       12.932        8.697      341.335      167.229       75.633        0.262        0.029       66.976        5.219        0.006      338.079       10.487      858.889
10/17/2014  03:02:00     -131.337      -43.947      -11.100       24.274       30.926       12.370      589.231      956.439      153.005        1.050        0.085      138.495        5.796        0.002      337.757        9.947      858.895
10/17/2014  03:03:00      -23.970       -0.089       -6.166       35.755       18.959       11.490     1278.404      359.443      132.016        0.119        0.088       23.970       13.003        0.294      337.746        9.927      858.900
10/17/2014  03:04:00      -47.306       80.236       -9.574       12.626       31.840       10.698      159.428     1013.767      114.448        0.503        0.064       93.144        7.798        0.007      338.214       10.713      858.895
10/17/2014  03:05:00      -25.095       60.715       -8.523       22.075       34.937       16.867      487.302     1220.587      284.512        0.319        0.100       65.697       16.417        0.062      338.084       10.495      858.897
10/17/2014  03:06:00      -28.067       53.894       -7.360       24.171       18.311       12.011      584.235      335.301      144.266        0.240        0.053       60.764        8.916        0.022      338.109       10.536      858.891
10/17/2014  03:07:00       10.817       65.371       -2.522       15.789       30.790       14.613      249.302      948.007      213.554        0.290        0.071       66.260       17.968        0.074      338.346       10.935      858.876
10/17/2014  03:08:00       44.972       15.424        3.322       22.586       23.064       15.829      510.131      531.933      250.548        0.178        0.065       47.544       14.145        0.089      338.330       10.907      858.866
10/17/2014  03:09:00       42.355       -8.816       -4.217       24.830       31.003       18.248      616.527      961.181      332.992        0.190        0.096       43.262       18.800        0.189      338.004       10.362      858.867
10/17/2014  03:10:00       -4.999      -22.352       -0.853       32.817       17.745       19.229     1076.930      314.871      369.742        0.114        0.088       22.904       11.164        0.238      338.164       10.630      858.868
10/17/2014  03:11:00      -31.576      -15.579       -5.134       22.819       19.530       13.491      520.727      381.405      182.012        0.117        0.054       35.210       11.817        0.113      338.115       10.547      858.892
10/17/2014  03:12:00      -49.932      -73.609       -2.262       45.518       33.965       25.253     2071.929     1153.591      637.690        0.589        0.193       88.946       11.754        0.017      338.001       10.356      858.905
10/17/2014  03:13:00      -36.717      -22.441        2.896       52.045       38.833       21.820     2708.673     1508.009      476.127        0.328        0.235       43.032       18.680        0.188      337.993       10.342      858.912
10/17/2014  03:14:00       -3.930       -2.493        4.197       17.015       32.515       21.487      289.510     1057.246      461.681        0.092        0.090        4.654        5.730        1.516      338.043       10.426      858.907
10/17/2014  03:15:00      -36.113       -1.329      -10.247       32.880       13.467       12.188     1081.095      181.354      148.546        0.141        0.071       36.137        9.652        0.071      338.065       10.463      858.903
10/17/2014  03:16:00     -133.079      -68.542       -8.178       36.620       41.239       23.141     1341.001     1700.686      535.523        1.303        0.179      149.693       11.124        0.006      338.075       10.479      858.918
10/17/2014  03:17:00     -126.306      -99.746       -8.236       50.221       55.769       33.240     2522.147     3110.218     1104.876        1.635        0.337      160.943       25.001        0.024      338.032       10.408      858.928
10/17/2014  03:18:00     -105.389      -85.828       -6.170       27.195       42.750       25.599      739.578     1827.558      655.314        1.087        0.161      135.916       17.023        0.016      338.044       10.428      858.923
10/17/2014  03:19:00     -112.417      -38.531       -4.633       27.342       30.589       15.315      747.578      935.682      234.552        0.803        0.096      118.837       11.106        0.009      337.984       10.328      858.920
10/17/2014  03:20:00      -77.405       -9.348        3.681       37.563       25.563       22.540     1411.007      653.456      508.041        0.433        0.129       77.967       25.649        0.108      337.913       10.209      858.924
10/17/2014  03:21:00      -17.145      -59.812        5.242       18.912       23.882       12.716      357.672      570.343      161.692        0.249        0.054       62.221       12.802        0.042      338.134       10.579      858.918
10/17/2014  03:22:00      -48.782      -46.003        1.438       81.186       22.086       16.140     6591.236      487.793      260.507        0.592        0.367       67.052       25.428        0.144      338.050       10.437      858.921
10/17/2014  03:23:00     -148.251      -17.971       -6.241       67.322       46.733       27.998     4532.241     2183.927      783.882        1.492        0.375      149.336       28.512        0.036      337.789       10.000      858.960
10/17/2014  03:24:00      -52.965       -5.635        0.246       26.533       16.047       11.333      704.004      257.497      128.438        0.196        0.054       53.264        8.574        0.026      337.738        9.914      858.956
10/17/2014  03:25:00      -75.549      -26.170      -15.450       27.924       13.562        9.300      779.765      183.927       86.485        0.384        0.053       79.953        8.719        0.012      337.885       10.162      858.955
10/17/2014  03:26:00     -149.677      -13.134       -9.705       68.355       41.704       34.518     4672.416     1739.191     1191.521        1.514        0.380      150.252       33.004        0.048      337.664        9.790      858.987
10/17/2014  03:27:00      -63.995       -0.857       -3.046       46.370       41.824       14.272     2150.160     1749.269      203.701        0.410        0.205       64.000       11.319        0.031      337.907       10.198      858.993
10/17/2014  03:28:00       41.297      -45.962       -2.973       29.643       26.097       19.838      878.690      681.055      393.541        0.289        0.098       61.790        9.871        0.026      337.874       10.143      858.979
10/17/2014  03:29:00        6.686        7.870       14.235       22.964       13.198       15.880      527.349      174.187      252.160        0.063        0.048       10.327        8.239        0.637      337.703        9.856      858.972
10/17/2014  03:30:00       -7.754       18.602       -1.592        8.250       12.045        6.476       68.057      145.093       41.941        0.033        0.013       20.153        5.530        0.075      337.959       10.284      858.992
10/17/2014  03:31:00       30.795       32.329       -8.034       16.072        8.352        4.584      258.298       69.756       21.013        0.120        0.017       44.649        4.174        0.009      337.895       10.178      858.995
10/17/2014  03:32:00       22.493       10.574        2.251       20.458       10.917        4.250      418.529      119.182       18.058        0.059        0.028       24.854        3.691        0.022      337.990       10.336      858.989
10/17/2014  03:33:00      -40.279       39.209       -7.877       16.248       38.511       12.277      264.005     1483.071      150.720        0.256        0.095       56.212       10.612        0.036      337.835       10.078      859.010
10/17/2014  03:34:00       -3.341       72.581       -3.611       31.857       27.971       18.884     1014.896      782.370      356.590        0.372        0.108       72.657       14.391        0.039      338.147       10.602      859.028
10/17/2014  03:35:00        7.015       64.958       -8.723       14.523       10.380        7.751      210.930      107.736       60.077        0.236        0.019       65.336        7.206        0.012      338.080       10.488      859.028
10/17/2014  03:36:00       15.700       78.938       -9.337       43.847       12.745       12.496     1922.594      162.447      156.157        0.440        0.112       80.484       15.354        0.036      338.234       10.747      859.028
10/17/2014  03:37:00       18.511       41.853       -3.507       45.456       25.902       17.959     2066.247      670.939      322.518        0.258        0.153       45.763       17.788        0.151      337.776        9.978      859.016
10/17/2014  03:38:00       21.006      -37.182       -5.611       31.149       22.298       17.766      970.243      497.180      315.637        0.182        0.089       42.705       18.041        0.178      337.870       10.137      859.032
10/17/2014  03:39:00       39.577      -58.646      -20.955       35.843       47.171       31.624     1284.704     2225.058     1000.097        0.498        0.225       70.751       24.933        0.124      337.812       10.039      859.031
10/17/2014  03:40:00      -69.499      -38.366        9.395       65.256       32.019       27.416     4258.363     1025.189      751.632        0.621        0.302       79.385       20.396        0.066      337.832       10.073      859.070
10/17/2014  03:41:00      -57.045        2.226        2.553       36.295       34.500       24.815     1317.314     1190.246      615.769        0.319        0.156       57.089       20.756        0.132      337.711        9.870      859.075
10/17/2014  03:42:00      -34.274       -4.198       -6.621       32.554       15.098       10.177     1059.731      227.960      103.573        0.131        0.070       34.530        7.215        0.044      338.092       10.510      859.050
10/17/2014  03:43:00       -5.456        3.383       10.484       14.059       25.448       12.035      197.648      647.596      144.851        0.057        0.050        6.420       10.615        2.734      337.817       10.048      859.019
10/17/2014  03:44:00        1.218       27.855       -0.514       18.075       17.647       13.589      326.713      311.426      184.647        0.080        0.041       27.881        5.490        0.039      337.784        9.993      859.002
10/17/2014  03:45:00       56.657       50.501       16.464       40.357       20.550       18.918     1628.670      422.312      357.887        0.422        0.120       75.898       19.294        0.065      338.071       10.473      859.000
10/17/2014  03:46:00       22.183       18.415       -3.429       35.134       30.177       19.673     1234.382      910.665      387.034        0.169        0.127       28.830       14.330        0.247      337.760        9.951      858.985
10/17/2014  03:47:00       32.545       10.599       -7.803       22.190       35.227       18.478      492.399     1240.940      341.452        0.165        0.104       34.227       18.900        0.305      337.633        9.740      858.972
10/17/2014  03:48:00       19.265       41.123       -1.787       17.929       20.064       10.604      321.431      402.563      112.437        0.145        0.042       45.412        7.473        0.027      337.716        9.878      858.961
10/17/2014  03:49:00       63.715       45.098        1.565       14.783       12.936       11.160      218.530      167.347      124.537        0.330        0.026       78.061        7.428        0.009      337.830       10.068      858.954
10/17/2014  03:50:00       50.428       10.052        7.227       17.871       12.962       11.604      319.369      168.012      134.641        0.166        0.031       51.420        7.595        0.022      337.605        9.692      858.949
10/17/2014  03:51:00       52.835       27.191        5.738       10.102       12.156        8.563      102.050      147.780       73.327        0.194        0.016       59.421        3.473        0.003      337.498        9.512      858.947
10/17/2014  03:52:00       29.968      -25.257        2.307       26.301       48.444       22.170      691.764     2346.806      491.522        0.254        0.177       39.191       23.138        0.349      337.464        9.456      858.960
10/17/2014  03:53:00       53.216      -73.753      -20.385       45.835       43.741       32.011     2100.833     1913.252     1024.678        0.686        0.252       90.947       26.910        0.088      337.551        9.600      858.962
10/17/2014  03:54:00       36.059      -41.058        8.493       36.389       48.559       34.440     1324.189     2357.965     1186.081        0.396        0.243       54.645       25.603        0.220      337.510        9.533      858.971
10/17/2014  03:55:00       29.134      -39.465       15.684       29.926       49.494       22.301      895.562     2449.682      497.355        0.325        0.192       49.054       28.017        0.326      337.635        9.743      858.996
10/17/2014  03:56:00       -1.151        9.201       15.127       17.001       18.286       23.025      289.023      334.387      530.145        0.073        0.058        9.272       12.607        1.848      337.540        9.582      859.010
10/17/2014  03:57:00       81.088       18.050       17.699       29.020       41.221       23.323      842.180     1699.142      543.946        0.515        0.154       83.073       16.151        0.038      337.474        9.472      859.007
10/17/2014  03:58:00       91.332       47.037       11.119       38.444       32.176       29.020     1477.921     1035.284      842.145        0.702        0.168      102.733       22.255        0.047      337.416        9.375      858.977
10/17/2014  03:59:00       26.666       51.979       -7.931       31.966       40.460       22.395     1021.804     1636.972      501.525        0.332        0.158       58.420       22.886        0.153      337.305        9.189      859.007
10/17/2014  04:00:00        0.056       84.905      -20.124       11.351       31.147        6.439      128.850      970.163       41.462        0.438        0.057       84.905        9.885        0.014      337.453        9.437      859.026
10/17/2014  04:01:00       -7.459      -13.880       -7.817        6.222       34.477        6.209       38.713     1188.674       38.549        0.079        0.063       15.757        9.629        0.373      337.576        9.645      859.015
10/17/2014  04:02:00       21.591      -76.619       -7.808       27.434       30.593       22.979      752.650      935.944      528.036        0.431        0.111       79.603       14.082        0.031      337.786        9.997      858.990
10/17/2014  04:03:00       36.288      -75.585       -4.952       23.594       25.567       22.586      556.695      653.682      510.148        0.439        0.086       83.844       17.028        0.041      337.869       10.135      858.974
10/17/2014  04:04:00       17.028      -25.231       13.401       15.428       35.293       19.296      238.027     1245.590      372.347        0.148        0.093       30.439       21.579        0.503      337.728        9.899      858.952
10/17/2014  04:05:00       32.256      -11.760       18.153       28.304       33.713       20.746      801.128     1136.585      430.396        0.194        0.118       34.333       18.973        0.305      337.485        9.492      858.928
10/17/2014  04:06:00       14.279        4.790       13.291       15.718       16.320       15.746      247.057      266.357      247.948        0.058        0.038       15.061       10.343        0.472      337.528        9.562      858.946
10/17/2014  04:07:00       11.589      -23.558        3.430       14.496       31.437        8.807      210.136      988.259       77.559        0.099        0.064       26.255        6.226        0.056      337.644        9.756      858.955
10/17/2014  04:08:00        2.561      -42.520       -0.857       10.320       21.686        8.646      106.506      470.272       74.748        0.123        0.033       42.597        7.567        0.032      337.680        9.819      858.981
10/17/2014  04:09:00      -21.254        0.359       -7.815       18.674       12.926       10.988      348.734      167.089      120.729        0.057        0.032       21.257        6.560        0.095      337.584        9.656      859.002
10/17/2014  04:10:00      -44.113       18.439       -8.537       14.662       14.911        8.094      214.961      222.330       65.513        0.143        0.025       47.812        4.598        0.009      337.555        9.609      859.011
10/17/2014  04:11:00        2.012      -16.151       -4.887        5.704       11.016        4.333       32.540      121.356       18.773        0.023        0.009       16.276        2.620        0.026      337.692        9.837      859.011
10/17/2014  04:12:00       -8.391      -35.920       -7.172       17.453       20.937       11.855      304.603      438.373      140.552        0.115        0.044       36.887        4.879        0.017      337.708        9.863      859.021
10/17/2014  04:13:00      -37.787       -3.741       -0.854       22.156       19.698       13.118      490.883      387.999      172.092        0.125        0.053       37.972       13.058        0.118      337.659        9.782      859.043
10/17/2014  04:14:00      -13.220       50.399       -5.096       18.184       12.436        9.583      330.667      154.655       91.839        0.166        0.029       52.104        5.522        0.011      337.680        9.818      859.044
10/17/2014  04:15:00       41.421       84.530        2.501       18.191       31.138       17.389      330.925      969.578      302.372        0.523        0.080       94.133       17.249        0.034      337.744        9.925      859.030
10/17/2014  04:16:00       94.280       51.724        7.412       14.156       22.699       10.834      200.379      515.238      117.377        0.623        0.042      107.537        7.031        0.004      337.861       10.121      859.007
10/17/2014  04:17:00       18.923       -5.222       -2.098       21.942       14.265       15.025      481.438      203.477      225.758        0.065        0.046       19.631       15.438        0.618      337.922       10.221      859.030
10/17/2014  04:18:00      -13.518      -10.165        1.506       31.972       12.949       18.946     1022.214      167.678      358.935        0.092        0.077       16.913       16.669        0.971      337.788        9.997      859.044
10/17/2014  04:19:00      -37.781      -22.059        4.447       48.097       25.567       19.664     2313.294      653.652      386.685        0.264        0.168       43.749        5.486        0.016      337.537        9.578      859.038
10/17/2014  04:20:00       31.760       29.156       27.545       17.057       17.630       11.282      290.949      310.816      127.293        0.167        0.036       43.113        5.143        0.014      337.485        9.491      858.985
10/17/2014  04:21:00       34.837       31.043       14.117       18.620       17.174       10.331      346.706      294.951      106.734        0.156        0.037       46.661        7.041        0.023      337.590        9.666      858.951
10/17/2014  04:22:00       22.187       15.010        2.433       12.511       11.807       11.578      156.518      139.404      134.042        0.058        0.021       26.787        7.406        0.076      337.794       10.008      858.956
10/17/2014  04:23:00       -4.010      -11.806        0.717       22.197       13.632       10.131      492.723      185.843      102.628        0.047        0.039       12.468        6.653        0.285      337.750        9.934      858.959
10/17/2014  04:24:00      -88.447      -32.066       -3.841       38.891       18.743       14.499     1512.500      351.310      210.232        0.547        0.104       94.081       16.665        0.031      337.621        9.719      858.976
10/17/2014  04:25:00      -94.574      -35.142      -10.069       47.347       23.196       13.393     2241.717      538.077      179.380        0.662        0.148      100.892       17.760        0.031      337.378        9.311      858.995
10/17/2014  04:26:00      -11.469       14.535        2.450       23.535       18.552        8.806      553.911      344.175       77.547        0.066        0.049       18.515       11.886        0.412      337.449        9.431      858.972
10/17/2014  04:27:00       32.047        0.557       -2.718       29.388       22.467       11.261      863.672      504.780      126.817        0.126        0.075       32.052       12.347        0.148      338.008       10.369      858.966
10/17/2014  04:28:00       17.814      -12.255       -5.432       20.521       15.217       10.836      421.093      231.568      117.429        0.063        0.039       21.623        6.322        0.085      337.806       10.028      858.955
10/17/2014  04:29:00        8.183      -55.385       -6.769       54.928       31.836       19.766     3017.095     1013.515      390.701        0.380        0.221       55.987       19.183        0.117      337.910       10.202      858.982
10/17/2014  04:30:00     -114.276      -57.660        2.160       52.745       35.256       18.958     2782.062     1242.988      359.424        1.039        0.219      127.999       21.150        0.027      337.507        9.528      859.036
10/17/2014  04:31:00      -92.224      -18.257        1.563       37.407       28.954       13.654     1399.291      838.354      186.425        0.563        0.121       94.014       14.378        0.023      337.542        9.585      859.058
10/17/2014  04:32:00      -15.548        8.137        7.059       24.192       17.471       14.595      585.242      305.237      213.003        0.073        0.055       17.549       16.186        0.851      337.390        9.329      859.070
10/17/2014  04:33:00      -44.908       34.359      -11.862       20.892       14.948        9.523      436.493      223.434       90.685        0.204        0.038       56.544        7.277        0.017      337.460        9.448      859.079
10/17/2014  04:34:00       18.494       64.541       -6.112       17.153       16.076       14.490      294.237      258.433      209.964        0.265        0.038       67.138        9.030        0.018      337.775        9.976      859.066
10/17/2014  04:35:00      -20.113       24.815      -10.868       19.854       22.601        4.356      394.188      510.826       18.978        0.103        0.046       31.942        6.239        0.038      338.031       10.407      859.080
10/17/2014  04:36:00      -61.382      -27.522       -6.081       16.490       18.791       10.939      271.909      353.107      119.673        0.265        0.037       67.270        3.663        0.003      337.605        9.692      859.086
10/17/2014  04:37:00      -28.852       -9.275       -3.990       10.073        5.153        6.634      101.458       26.553       44.011        0.055        0.009       30.306        5.996        0.039      337.558        9.612      859.057
10/17/2014  04:38:00       -2.512       -1.379       -6.659       12.586       10.986        9.601      158.402      120.697       92.185        0.021        0.019        2.866        9.332       10.604      337.747        9.928      859.027
10/17/2014  04:39:00       15.892        3.047        2.730       19.840       11.712       11.231      393.644      137.169      126.128        0.046        0.033       16.181        6.619        0.167      337.830       10.069      859.025
10/17/2014  04:40:00       -2.957        2.245       11.942        6.932        7.269        6.794       48.052       52.841       46.155        0.015        0.007        3.713        4.583        1.523      337.752        9.938      859.045
10/17/2014  04:41:00       -7.920       -9.023        2.997        7.775       13.250        7.011       60.457      175.558       49.156        0.022        0.014       12.006        7.051        0.345      337.790       10.003      859.075
10/17/2014  04:42:00        5.170      -12.016       13.000        8.400       14.290        8.063       70.559      204.191       65.011        0.034        0.017       13.081        4.734        0.131      337.587        9.660      859.110
10/17/2014  04:43:00       12.484      -16.926       -7.390       18.501       18.338       17.095      342.287      336.284      292.238        0.073        0.049       21.032       12.571        0.357      337.354        9.271      859.124
10/17/2014  04:44:00       11.332      -15.569       15.115       17.265       24.359       20.646      298.090      593.346      426.261        0.096        0.066       19.256        8.394        0.190      337.252        9.101      859.104
10/17/2014  04:45:00        7.989       -1.783       14.274       19.143       20.472       13.252      366.469      419.092      175.625        0.062        0.048        8.185       13.386        2.674      337.228        9.062      859.093
10/17/2014  04:46:00        4.821       -0.117      -11.024       15.062       14.429       12.332      226.857      208.204      152.070        0.037        0.029        4.823       10.627        4.856      337.380        9.314      859.081
10/17/2014  04:47:00        2.632      -10.313       -4.325       13.060       12.735       11.637      170.573      162.168      135.430        0.030        0.023       10.644        8.667        0.663      337.502        9.519      859.081
10/17/2014  04:48:00       10.818       -7.878       -5.114       14.996       15.444       15.297      224.867      238.518      233.994        0.045        0.035       13.383        8.510        0.404      337.426        9.391      859.076
10/17/2014  04:49:00       24.288      -13.297       -5.531        9.966       12.432       12.870       99.325      154.549      165.642        0.061        0.021       27.690        8.695        0.099      337.564        9.622      859.063
10/17/2014  04:50:00        6.931      -19.120       -1.370       13.709       26.049       17.432      187.939      678.574      303.882        0.079        0.059       20.338       10.778        0.281      337.531        9.568      859.035
10/17/2014  04:51:00       17.500       15.717       16.221       12.596       18.233        8.104      158.647      332.438       65.680        0.069        0.028       23.522        6.589        0.078      337.461        9.450      859.010
10/17/2014  04:52:00       29.139       12.327        2.156       16.876       25.022       11.515      284.804      626.125      132.599        0.102        0.052       31.639        6.251        0.039      337.433        9.403      859.000
10/17/2014  04:53:00       11.054        2.102       -2.597       12.124       14.427       11.886      146.991      208.127      141.281        0.031        0.025       11.252        3.727        0.110      337.559        9.614      859.021
10/17/2014  04:54:00       13.675       13.154        2.814       10.659        7.654       12.278      113.618       58.579      150.748        0.035        0.016       18.974        5.096        0.072      337.498        9.512      859.054
10/17/2014  04:55:00        7.530        0.111       -5.406       16.418       13.746       15.078      269.552      188.950      227.353        0.039        0.034        7.531       12.324        2.678      337.493        9.503      859.064
10/17/2014  04:56:00       -2.399       -2.844      -10.764       15.001       11.134        8.126      225.025      123.976       66.038        0.027        0.021        3.721        5.243        1.986      337.598        9.680      859.071
10/17/2014  04:57:00       11.426       12.108       13.344        5.325        7.213        6.727       28.352       52.025       45.259        0.029        0.006       16.648        3.784        0.052      337.728        9.899      859.056
10/17/2014  04:58:00       17.395       16.582        9.483       10.839        6.322        7.306      117.477       39.973       53.376        0.044        0.011       24.032        7.330        0.093      337.785        9.992      859.039
10/17/2014  04:59:00        1.004       13.201        1.794        8.381        6.115        5.556       70.234       37.398       30.871        0.016        0.007       13.239        4.542        0.118      337.741        9.917      859.036
10/17/2014  05:00:00      -12.974        0.909       -4.816       14.798        7.156        3.985      218.992       51.213       15.877        0.024        0.014       13.006        6.276        0.233      337.623        9.721      859.041
10/17/2014  05:01:00      -20.203      -12.351       -4.672       12.549       12.728        8.713      157.484      162.013       75.910        0.049        0.020       23.679        7.682        0.105      337.534        9.571      859.048
10/17/2014  05:02:00      -19.563       -3.333       -5.443        6.512        4.795        4.176       42.408       22.994       17.436        0.025        0.004       19.845        3.079        0.024      337.511        9.534      859.061
10/17/2014  05:03:00      -28.927      -20.970       -2.422        8.759        7.435        5.122       76.720       55.274       26.235        0.072        0.008       35.728        5.469        0.023      337.558        9.614      859.066
10/17/2014  05:04:00      -23.630      -16.251        0.079       18.251       10.104       10.583      333.098      102.085      111.991        0.068        0.027       28.679       11.990        0.175      337.508        9.529      859.088
10/17/2014  05:05:00      -48.502      -12.754       -6.039       15.795       14.189        9.007      249.481      201.315       81.124        0.154        0.027       50.151        8.529        0.029      337.475        9.474      859.099
10/17/2014  05:06:00      -13.294      -18.695       -5.718        8.644       11.471        8.177       74.718      131.582       66.870        0.042        0.014       22.940        5.005        0.048      337.342        9.253      859.094
10/17/2014  05:07:00      -18.574      -11.206       -2.661       11.735        8.201        4.034      137.711       67.253       16.271        0.035        0.011       21.693        3.591        0.027      337.405        9.356      859.078
10/17/2014  05:08:00      -25.653      -12.053       -0.463       10.971        6.059        3.985      120.352       36.712       15.877        0.049        0.009       28.344        3.258        0.013      337.472        9.470      859.078
10/17/2014  05:09:00      -54.996      -15.374       -7.974        8.975        9.311        7.441       80.545       86.696       55.367        0.177        0.011       57.104        6.364        0.012      337.330        9.232      859.071
10/17/2014  05:10:00      -63.995       -3.738       -9.420       11.823       12.398        9.513      139.788      153.722       90.505        0.229        0.019       64.104        3.714        0.003      337.288        9.161      859.060
10/17/2014  05:11:00      -64.126       -3.411      -14.015       14.295        8.241        9.232      204.339       67.917       85.225        0.234        0.018       64.216        5.697        0.008      337.376        9.308      859.068
10/17/2014  05:12:00      -38.081       -4.228       -9.638        9.712        9.566        7.009       94.322       91.517       49.127        0.090        0.012       38.315        4.111        0.012      337.542        9.585      859.080
10/17/2014  05:13:00      -19.261      -14.694       -6.115       16.584       14.944        7.488      275.015      223.323       56.068        0.059        0.028       24.226        3.487        0.021      337.638        9.749      859.092
10/17/2014  05:14:00      -13.463      -28.000        7.537       11.219       13.907       10.191      125.866      193.394      103.862        0.072        0.021       31.068        5.777        0.035      337.522        9.552      859.100
10/17/2014  05:15:00       -4.619      -34.074       -3.699       26.939       19.883       11.836      725.702      395.344      140.091        0.123        0.063       34.386       11.898        0.120      337.354        9.271      859.092
10/17/2014  05:16:00      -13.428      -35.610       -3.378       24.556       19.981       12.175      602.984      399.231      148.221        0.130        0.058       38.057        8.829        0.054      337.308        9.195      859.083
10/17/2014  05:17:00      -30.266      -21.383       -2.418       14.208        9.927        8.263      201.873       98.550       68.279        0.087        0.018       37.057        6.401        0.030      337.440        9.415      859.070
10/17/2014  05:18:00      -55.613        4.433       -5.080       10.935       12.177        6.540      119.578      148.279       42.767        0.172        0.016       55.790        6.377        0.013      337.434        9.405      859.058
10/17/2014  05:19:00      -55.280       -7.420       -9.626        7.474       10.595        5.922       55.854      112.263       35.074        0.170        0.010       55.776        3.560        0.004      337.517        9.543      859.055
10/17/2014  05:20:00      -45.517      -20.511       -4.508       10.024        7.043        6.054      100.489       49.606       36.657        0.135        0.009       49.925        5.230        0.011      337.555        9.609      859.049
10/17/2014  05:21:00      -23.739      -18.468        4.063       13.809        7.310       10.537      190.683       53.442      111.018        0.064        0.018       30.077       10.587        0.124      337.533        9.572      859.055
10/17/2014  05:22:00      -58.874      -17.884       -5.737       10.879        6.045        6.736      118.352       36.545       45.373        0.201        0.010       61.531        4.275        0.005      337.546        9.591      859.059
10/17/2014  05:23:00      -56.266      -14.351       -5.611       14.539        8.640        4.652      211.379       74.655       21.643        0.186        0.015       58.067        1.930        0.001      337.470        9.467      859.054
10/17/2014  05:24:00      -48.883       -6.876       -5.547        9.376        6.742        4.685       87.905       45.460       21.953        0.131        0.008       49.364        4.283        0.008      337.499        9.515      859.058
10/17/2014  05:25:00      -76.757      -11.703       -9.181       18.230       11.093        7.114      332.331      123.065       50.616        0.331        0.025       77.644        4.506        0.003      337.609        9.699      859.063
10/17/2014  05:26:00      -96.166      -18.395      -10.493       27.038       22.776       18.339      731.057      518.748      336.304        0.564        0.079       97.910       15.023        0.024      337.498        9.514      859.074
10/17/2014  05:27:00      -89.584      -29.737       -8.429       16.670       15.837       14.320      277.873      250.808      205.062        0.486        0.037       94.391        8.461        0.008      337.399        9.345      859.085
10/17/2014  05:28:00      -67.428      -26.618       -5.292       23.531       10.813        7.572      553.730      116.910       57.335        0.301        0.036       72.491       10.237        0.020      337.443        9.419      859.084
10/17/2014  05:29:00      -14.451       -1.530       -0.494       12.791        7.084        6.167      163.610       50.184       38.030        0.023        0.013       14.532        6.373        0.192      337.470        9.463      859.067
10/17/2014  05:30:00       -6.130       21.705       -3.564       13.476       13.622        9.269      181.611      185.552       85.908        0.049        0.023       22.554        9.437        0.175      337.515        9.538      859.048
10/17/2014  05:31:00       -4.418       -6.152      -10.038        8.854       10.471        6.037       78.392      109.644       36.448        0.019        0.011        7.574        4.490        0.351      337.517        9.544      859.044
10/17/2014  05:32:00      -19.580      -15.606        1.486       18.216       11.862       12.300      331.823      140.705      151.286        0.063        0.031       25.038        9.394        0.141      337.450        9.432      859.059
10/17/2014  05:33:00      -24.291      -28.667       -1.200       13.580       14.035       12.841      184.407      196.994      164.879        0.098        0.027       37.574        9.732        0.067      337.398        9.346      859.072
10/17/2014  05:34:00      -20.057      -21.266        0.952       14.079       10.377       10.339      198.207      107.686      106.904        0.063        0.021       29.232        8.963        0.094      337.483        9.486      859.079
10/17/2014  05:35:00       -6.424      -11.540        1.893       10.414        8.734        7.834      108.449       76.291       61.374        0.021        0.012       13.207        6.717        0.259      337.537        9.577      859.069
10/17/2014  05:36:00      -15.435        6.580        8.257       13.108        9.474        5.996      171.808       89.750       35.956        0.032        0.015       16.779        2.559        0.023      337.661        9.785      859.047
10/17/2014  05:37:00        7.783       -1.292        3.211       12.577       10.205        8.586      158.173      104.135       73.718        0.020        0.017        7.889        9.052        1.317      337.465        9.458      859.033
10/17/2014  05:38:00       11.806        3.577       -5.346        9.783       19.457        9.104       95.709      378.575       82.878        0.037        0.028       12.336        7.774        0.397      337.378        9.311      859.029
10/17/2014  05:39:00       24.166       15.791       -1.054       11.222        5.649        4.676      125.944       31.909       21.864        0.051        0.009       28.868        2.510        0.008      337.303        9.185      859.029
10/17/2014  05:40:00       29.153        2.439       -4.912        9.940        9.977        5.491       98.799       99.545       30.155        0.055        0.011       29.255        2.942        0.010      337.371        9.299      859.033
10/17/2014  05:41:00       14.047       -2.901        5.024        9.854        6.268        6.487       97.093       39.286       42.081        0.020        0.009       14.343        5.608        0.153      337.392        9.335      859.046
10/17/2014  05:42:00       15.939        0.920       -3.605       12.554       12.388       15.298      157.607      153.466      234.034        0.041        0.027       15.965       13.106        0.674      337.381        9.315      859.067
10/17/2014  05:43:00       -3.052       -3.918        4.889        6.718        5.444        6.001       45.133       29.637       36.010        0.008        0.006        4.966        2.478        0.249      337.363        9.286      859.082
10/17/2014  05:44:00      -10.954      -11.790       -8.876       12.498       10.059        6.609      156.191      101.179       43.676        0.032        0.015       16.093        4.116        0.065      337.471        9.467      859.096
10/17/2014  05:45:00      -11.732      -10.303       -7.160       11.829        9.878       11.961      139.933       97.574      143.058        0.034        0.019       15.614        6.010        0.148      337.473        9.469      859.107
10/17/2014  05:46:00       -5.078       -8.450       -7.382        8.252       11.943        8.549       68.101      142.645       73.090        0.022        0.014        9.858        8.375        0.722      337.501        9.516      859.106
10/17/2014  05:47:00      -27.072       -4.447       -5.571        6.140        7.048        4.405       37.706       49.678       19.406        0.045        0.005       27.435        2.022        0.005      337.335        9.239      859.092
10/17/2014  05:48:00        1.148       -4.192       -5.775        9.207       10.603        7.240       84.765      112.426       52.416        0.015        0.012        4.346        4.494        1.069      337.464        9.457      859.070
10/17/2014  05:49:00       24.880       18.055        9.747       14.798       10.778       11.257      218.984      116.168      126.730        0.075        0.023       30.741        5.248        0.029      337.349        9.264      859.047
10/17/2014  05:50:00       43.328       20.536        1.732        9.833        7.535        8.890       96.686       56.774       79.030        0.127        0.012       47.948        5.113        0.011      337.375        9.305      859.032
10/17/2014  05:51:00        9.990       -1.989       -4.362       12.952       11.373        7.731      167.747      129.353       59.771        0.024        0.018       10.186        6.503        0.408      337.363        9.287      859.019
10/17/2014  05:52:00      -46.671       -7.215       -6.667       39.708        8.590        8.998     1576.731       73.796       80.963        0.200        0.087       47.225        9.770        0.043      337.268        9.127      859.014
10/17/2014  05:53:00      -97.858        1.610      -13.612       24.291       15.416       18.071      590.030      237.650      326.545        0.546        0.058       97.871       16.074        0.027      337.065        8.787      859.020
10/17/2014  05:54:00     -102.853        4.231      -12.851       18.138       12.274       12.311      328.976      150.642      151.564        0.570        0.032      102.940        7.435        0.005      337.218        9.044      859.015
10/17/2014  05:55:00      -50.154      -19.408       -3.898       14.713       16.495       15.193      216.463      272.083      230.814        0.181        0.036       53.778       10.151        0.036      337.118        8.874      858.998
10/17/2014  05:56:00      -63.642      -20.507       -4.760       15.494       14.893       11.260      240.066      221.789      126.794        0.254        0.029       66.864        8.129        0.015      337.118        8.876      858.986
10/17/2014  05:57:00      -59.989      -29.677        0.917       21.274       22.576       17.605      452.572      509.687      309.945        0.288        0.064       66.929       11.473        0.029      337.126        8.891      858.976
10/17/2014  05:58:00      -70.741      -33.187        2.714       23.020       25.021       12.631      529.909      626.045      159.547        0.371        0.066       78.139        4.817        0.004      337.155        8.938      858.971
10/17/2014  05:59:00      -77.385      -19.454       -1.349       21.611       18.333       12.909      467.046      336.108      166.639        0.367        0.048       79.793       11.438        0.021      337.133        8.902      858.960
10/17/2014  06:00:00      -68.289      -18.429       -6.411       20.974       17.473       13.135      439.892      305.295      172.521        0.298        0.046       70.732        9.092        0.017      337.062        8.781      858.962
10/17/2014  06:01:00      -81.058      -38.804       -4.362       24.862       16.377       14.093      618.137      268.219      198.601        0.459        0.054       89.868       12.947        0.021      337.155        8.937      858.974
10/17/2014  06:02:00     -118.751      -22.610      -14.403       27.851       27.679       14.740      775.681      766.148      217.282        0.829        0.088      120.884       13.637        0.013      337.149        8.928      858.990
10/17/2014  06:03:00      -84.996      -18.888       -4.807       25.845       26.337       14.287      667.975      693.629      204.114        0.458        0.078       87.069        8.507        0.010      337.100        8.844      859.014
10/17/2014  06:04:00      -98.902      -35.777       -4.053       25.607       35.262       14.977      655.742     1243.396      224.303        0.660        0.106      105.174       11.674        0.012      337.167        8.958      859.025
10/17/2014  06:05:00      -95.893      -38.509       -5.020       19.885       20.121       14.477      395.397      404.842      209.581        0.586        0.050      103.337        9.984        0.009      337.196        9.005      859.017
10/17/2014  06:06:00      -86.556      -41.797       -2.253       19.044       20.918       15.054      362.689      437.553      226.632        0.514        0.051       96.119       12.781        0.018      337.203        9.018      858.997
10/17/2014  06:07:00      -95.014      -28.499      -13.321       20.158       15.461       12.500      406.332      239.044      156.262        0.541        0.040       99.196       11.449        0.013      337.229        9.062      858.980
10/17/2014  06:08:00      -82.341      -26.004       -8.251       13.488       25.087       13.665      181.935      629.361      186.736        0.426        0.050       86.350        9.588        0.012      337.240        9.081      858.977
10/17/2014  06:09:00      -61.216      -29.742       -3.555       21.433       20.787       11.408      459.385      432.084      130.151        0.283        0.051       68.059       10.663        0.025      337.215        9.039      858.988
10/17/2014  06:10:00      -34.931      -16.615       -6.433       17.327        8.798        6.192      300.230       77.406       38.338        0.098        0.021       38.681        2.164        0.003      337.213        9.038      859.003
10/17/2014  06:11:00       -9.243      -18.899       -6.103        8.846       10.529       10.557       78.257      110.858      111.452        0.039        0.015       21.038        4.747        0.051      337.381        9.315      859.021
10/17/2014  06:12:00      -19.917      -22.413      -11.342       17.053       12.634        9.187      290.797      159.618       84.394        0.078        0.027       29.984        5.758        0.037      337.497        9.510      859.041
10/17/2014  06:13:00      -38.860       -9.097       -2.347        9.383        8.275        6.367       88.046       68.478       40.544        0.090        0.010       39.910        4.175        0.011      337.477        9.477      859.072
10/17/2014  06:14:00      -35.139       -5.517        0.086       14.900       12.911        7.701      222.010      166.695       59.305        0.086        0.022       35.569        5.704        0.026      337.289        9.165      859.097
10/17/2014  06:15:00      -76.466      -33.173       -7.561       22.332       23.030       12.484      498.740      530.387      155.851        0.409        0.059       83.352        5.464        0.004      337.202        9.019      859.123
10/17/2014  06:16:00      -69.088      -49.621       -0.804       33.267       20.794       15.148     1106.679      432.397      229.458        0.450        0.088       85.061       12.345        0.021      337.122        8.882      859.140
10/17/2014  06:17:00      -83.866      -36.612       -2.135       19.096       15.827       12.064      364.641      250.507      145.538        0.457        0.038       91.509        9.997        0.012      337.115        8.872      859.131
10/17/2014  06:18:00      -79.448      -22.736       -7.121       15.974       12.345       10.611      255.157      152.407      112.598        0.370        0.026       82.637        7.599        0.008      337.171        8.964      859.122
10/17/2014  06:19:00      -35.786      -26.531       -6.827       19.882        8.150        6.662      395.295       66.422       44.386        0.127        0.025       44.548        6.298        0.020      337.259        9.113      859.112
10/17/2014  06:20:00      -32.859      -28.896       -4.896       14.034       13.355        8.740      196.955      178.355       76.385        0.120        0.023       43.757        7.543        0.030      337.331        9.233      859.112
10/17/2014  06:21:00      -57.042      -32.635       -1.515       31.789       15.903       12.290     1010.511      252.901      151.052        0.287        0.071       65.717       10.424        0.025      337.299        9.178      859.119
10/17/2014  06:22:00      -57.408      -41.668       -2.833       37.449       21.980       21.932     1402.397      483.136      481.014        0.370        0.118       70.936       19.599        0.076      337.171        8.966      859.130
10/17/2014  06:23:00      -77.818      -49.103       -2.428       28.439       17.647       13.940      808.751      311.424      194.320        0.489        0.066       92.015       13.773        0.022      337.177        8.975      859.135
10/17/2014  06:24:00      -71.607      -39.056       -8.274       15.831       13.106        9.383      250.607      171.758       88.034        0.362        0.026       81.565        3.270        0.002      337.240        9.080      859.137
10/17/2014  06:25:00      -81.567      -26.974       -7.478       16.309       15.930       13.815      265.996      253.756      190.860        0.407        0.036       85.912        9.775        0.013      337.235        9.073      859.143
10/17/2014  06:26:00      -97.828      -40.205       -6.563       17.220       16.861        9.576      296.512      284.304       91.694        0.595        0.034      105.768        1.899        0.000      337.218        9.044      859.142
10/17/2014  06:27:00      -88.702      -16.970       -6.118       19.331       19.551       11.848      373.680      382.236      140.369        0.454        0.045       90.311       11.130        0.015      337.278        9.145      859.140
10/17/2014  06:28:00      -66.513      -23.622       -3.071       24.258       12.302        8.335      588.452      151.327       69.472        0.290        0.040       70.583        9.076        0.017      337.262        9.119      859.133
10/17/2014  06:29:00      -62.469      -29.112       -9.102       18.982       11.738        8.266      360.315      137.771       68.325        0.270        0.028       68.920        8.202        0.014      337.358        9.276      859.115
10/17/2014  06:30:00      -87.953      -28.663      -12.917       16.574       19.564       10.255      274.693      382.755      105.170        0.474        0.038       92.506        6.243        0.005      337.403        9.355      859.100
10/17/2014  06:31:00      -62.249      -30.954       -8.605       28.539       24.969       11.122      814.451      623.437      123.692        0.323        0.078       69.521        8.262        0.014      337.372        9.301      859.112
10/17/2014  06:32:00      -67.705       -9.608       -3.517       19.161       19.889        9.707      367.158      395.554       94.220        0.277        0.043       68.383        6.929        0.010      337.294        9.170      859.119
10/17/2014  06:33:00      -62.635       -3.968       -8.826       14.151       11.564       12.811      200.249      133.724      164.133        0.226        0.025       62.760        6.539        0.011      337.343        9.253      859.136
10/17/2014  06:34:00      -83.864      -41.281      -13.644       24.567       21.181       14.645      603.534      448.638      214.472        0.509        0.063       93.474        8.582        0.008      337.280        9.148      859.159
10/17/2014  06:35:00     -109.271       -4.373       -8.846       41.479       24.868       21.000     1720.500      618.399      441.017        0.741        0.139      109.358       20.153        0.034      337.156        8.940      859.177
10/17/2014  06:36:00      -40.114      -21.581       -5.948       20.176       16.853       11.965      407.081      284.029      143.150        0.147        0.042       45.551        9.603        0.044      337.095        8.837      859.170
10/17/2014  06:37:00       13.564      -16.361        8.912       18.984       11.964       13.238      360.409      143.129      175.256        0.060        0.034       21.253       10.014        0.222      337.278        9.143      859.146
10/17/2014  06:38:00      -27.835      -30.512       -6.929       24.789       11.618       10.455      614.477      134.967      109.316        0.131        0.043       41.301        6.008        0.021      337.435        9.406      859.131
10/17/2014  06:39:00      -56.418      -29.644       -6.687       23.090       14.982       10.310      533.156      224.448      106.287        0.249        0.043       63.732        6.921        0.012      337.294        9.170      859.126
10/17/2014  06:40:00       25.720      -15.728        2.407        8.529        7.454       10.961       72.749       55.568      120.146        0.058        0.012       30.148        6.265        0.043      337.429        9.396      859.124
10/17/2014  06:41:00       30.549       29.930       16.975       20.567       26.092       17.180      423.015      680.789      295.140        0.176        0.070       42.768       15.703        0.135      337.354        9.271      859.129
10/17/2014  06:42:00       18.947       24.396       25.050       18.744       20.109       16.504      351.324      404.364      272.394        0.130        0.051       30.889       10.462        0.115      337.333        9.237      859.138
10/17/2014  06:43:00        4.743      -23.166        3.807       12.668       32.619       14.639      160.466     1063.991      214.300        0.101        0.072       23.647       12.653        0.286      337.347        9.258      859.153
10/17/2014  06:44:00       10.795      -34.903        0.676       21.944       22.506       23.116      481.519      506.506      534.350        0.143        0.076       36.534       13.962        0.146      337.454        9.437      859.151
10/17/2014  06:45:00        6.551        4.807       12.284       11.456        8.875        7.708      131.244       78.762       59.417        0.024        0.013        8.125        5.372        0.437      337.327        9.226      859.144
10/17/2014  06:46:00       -1.879       -3.116       15.397        9.956       12.465        9.756       99.120      155.367       95.185        0.030        0.017        3.639        5.391        2.195      337.366        9.291      859.137
10/17/2014  06:47:00       12.700      -20.621       19.932       15.893       33.425       16.870      252.585     1117.235      284.604        0.132        0.083       24.218       18.828        0.604      337.361        9.283      859.136
10/17/2014  06:48:00        2.810       20.459       36.534       18.681       19.286       11.174      348.961      371.935      124.868        0.130        0.042       20.651        6.402        0.096      337.340        9.246      859.131
10/17/2014  06:49:00       19.186       23.174       32.093       21.760       19.354       15.268      473.493      374.593      233.126        0.151        0.054       30.086        9.101        0.091      337.302        9.182      859.127
10/17/2014  06:50:00       42.720       36.288       13.212       18.463       14.708       13.094      340.891      216.337      171.458        0.202        0.036       56.052        9.633        0.030      337.232        9.069      859.122
10/17/2014  06:51:00       51.268       35.423       14.831       18.022       13.838       13.289      324.807      191.501      176.605        0.240        0.035       62.315       11.936        0.037      337.197        9.010      859.114
10/17/2014  06:52:00       96.819       57.337       14.032       28.751       22.008       24.330      826.641      484.340      591.957        0.738        0.095      112.523       12.167        0.012      337.042        8.748      859.105
10/17/2014  06:53:00      128.762       66.504       20.042       34.400       30.483       29.006     1183.346      929.186      841.351        1.218        0.148      144.922       16.536        0.013      336.829        8.393      859.096
10/17/2014  06:54:00      103.911       61.818       20.558       26.509       23.847       22.899      702.744      568.668      524.372        0.842        0.090      120.909       13.178        0.012      336.723        8.217      859.097
10/17/2014  06:55:00       70.064       49.799        8.414       34.928       18.873       15.602     1219.981      356.184      243.436        0.464        0.091       85.958       10.081        0.014      336.687        8.157      859.101
10/17/2014  06:56:00       36.846       29.803        8.459       25.634       17.385       21.803      657.124      302.242      475.358        0.188        0.072       47.390       14.044        0.088      336.779        8.310      859.097
10/17/2014  06:57:00       64.195       31.238       16.733        8.179        8.494        8.615       66.896       72.152       74.212        0.279        0.011       71.392        4.213        0.003      337.063        8.784      859.096
10/17/2014  06:58:00       66.338       30.064       13.517       13.294       14.853       12.435      176.741      220.610      154.621        0.302        0.028       72.833        5.172        0.005      337.129        8.894      859.092
10/17/2014  06:59:00       74.253       44.022       17.432       20.419       19.726       17.944      416.955      389.125      321.986        0.444        0.056       86.322       11.812        0.019      337.087        8.822      859.088
10/17/2014  07:00:00      104.358       65.658       25.461       30.194       17.877       24.955      911.663      319.597      622.763        0.885        0.093      123.294       16.767        0.018      337.167        8.960      859.088
10/17/2014  07:01:00       52.122       58.996       49.637       37.254       32.745       24.609     1387.862     1072.229      605.582        0.586        0.153       78.723       17.883        0.052      337.088        8.825      859.106
10/17/2014  07:02:00       36.376       70.755       54.195       29.569       18.590       21.888      874.323      345.596      479.097        0.548        0.085       79.558       20.820        0.068      337.000        8.678      859.118
10/17/2014  07:03:00       53.766       35.363       26.062       20.760       14.609       19.272      430.975      213.412      371.428        0.292        0.051       64.353       14.676        0.052      336.950        8.595      859.124
10/17/2014  07:04:00       40.302       38.497        3.401       23.224       14.423       14.204      539.349      208.020      201.758        0.203        0.047       55.734       12.320        0.049      336.891        8.497      859.125
10/17/2014  07:05:00       33.474       41.145        2.501       20.836       11.050       11.175      434.120      122.091      124.871        0.175        0.034       53.042        6.010        0.013      336.876        8.472      859.120
10/17/2014  07:06:00       17.802       48.982       -3.381       12.818       15.057        9.189      164.313      226.706       84.445        0.160        0.024       52.116        8.844        0.029      336.913        8.533      859.119
10/17/2014  07:07:00       21.971       45.917       -3.889        9.774        9.810        7.671       95.531       96.244       58.850        0.143        0.013       50.903        5.239        0.011      336.896        8.503      859.116
10/17/2014  07:08:00       39.817       33.359       15.955       10.925       11.569        8.712      119.353      133.844       75.895        0.164        0.016       51.945        6.776        0.017      336.906        8.521      859.124
10/17/2014  07:09:00       36.800       28.186       20.898       22.152       21.082       17.307      490.718      444.438      299.537        0.191        0.062       46.354       16.930        0.133      336.929        8.559      859.125
10/17/2014  07:10:00       30.331       40.117       35.419       21.512       13.686       15.749      462.751      187.293      248.017        0.234        0.045       50.293        9.941        0.039      336.969        8.625      859.124
10/17/2014  07:11:00       52.601       40.736       17.083       10.727       10.137       12.722      115.074      102.768      161.847        0.255        0.019       66.530        6.209        0.009      336.950        8.594      859.130
10/17/2014  07:12:00       19.810       36.175        7.246       12.159       15.881       12.667      147.833      252.212      160.455        0.116        0.028       41.244       11.004        0.071      336.945        8.586      859.139
10/17/2014  07:13:00        7.042       61.796       -9.869        9.907       10.373        5.473       98.141      107.603       29.948        0.210        0.012       62.196        4.763        0.006      336.945        8.585      859.156
10/17/2014  07:14:00       15.157       71.613      -11.891       13.426       11.420        8.572      180.256      130.427       73.476        0.294        0.019       73.199        5.826        0.006      336.973        8.633      859.178
10/17/2014  07:15:00       18.669       72.176      -14.854        9.960        9.014        6.177       99.196       81.249       38.159        0.300        0.011       74.552        1.861        0.001      336.975        8.636      859.193
10/17/2014  07:16:00        9.060       46.996      -11.263        8.413       12.601        5.809       70.771      158.790       33.741        0.134        0.013       47.861        4.610        0.009      336.984        8.651      859.193
10/17/2014  07:17:00       -0.762        6.434        0.582        9.306       15.290       10.530       86.604      233.772      110.891        0.024        0.022        6.479        5.356        0.683      336.960        8.612      859.188
10/17/2014  07:18:00       -7.156       13.598       -3.878       11.014        4.010        6.317      121.317       16.077       39.904        0.021        0.009       15.366        5.422        0.125      337.033        8.731      859.177
10/17/2014  07:19:00      -28.887        4.265       -0.938        6.813       10.060        9.888       46.422      101.195       97.773        0.055        0.012       29.200        7.183        0.061      337.108        8.860      859.181
10/17/2014  07:20:00      -32.277        7.902       -5.442       11.106       10.850        8.182      123.351      117.728       66.953        0.072        0.015       33.230        9.527        0.082      337.125        8.888      859.194
10/17/2014  07:21:00      -45.666       35.374      -10.702       10.192       11.319        7.688      103.882      128.114       59.099        0.187        0.015       57.764        5.053        0.008      337.138        8.910      859.202
10/17/2014  07:22:00      -11.555       16.433        6.146       17.155       13.128        8.795      294.291      172.351       77.349        0.049        0.027       20.089       10.384        0.267      337.124        8.884      859.201
10/17/2014  07:23:00       22.448       26.523        1.586        8.067       15.474       12.346       65.078      239.453      152.413        0.083        0.023       34.748       11.827        0.116      337.136        8.907      859.194
10/17/2014  07:24:00       39.393       29.063       -3.520        8.288       11.925        7.816       68.691      142.208       61.097        0.134        0.014       48.954        6.281        0.016      337.060        8.777      859.176
10/17/2014  07:25:00       28.155       28.034        1.113        9.469        6.320        6.159       89.665       39.947       37.935        0.087        0.008       39.732        3.855        0.009      337.068        8.791      859.168
10/17/2014  07:26:00       26.190       28.905        5.854       11.489        5.358       11.072      131.986       28.712      122.578        0.092        0.014       39.005        4.913        0.016      337.073        8.797      859.162
10/17/2014  07:27:00       -4.598       25.812       -5.544       12.955       13.001        4.214      167.837      169.021       17.761        0.054        0.018       26.218        5.509        0.044      337.175        8.972      859.161
10/17/2014  07:28:00      -12.322       32.493       -5.143       16.674       11.231        4.870      278.015      126.140       23.717        0.083        0.021       34.751        4.998        0.021      337.147        8.927      859.161
10/17/2014  07:29:00      -56.132       39.091      -11.629       16.263       16.388       10.309      264.496      268.560      106.284        0.273        0.032       68.402        6.402        0.009      337.081        8.812      859.157
10/17/2014  07:30:00      -57.371       42.826       -9.321       13.260       14.790       13.196      175.823      218.747      174.130        0.289        0.028       71.593        8.484        0.014      337.117        8.873      859.162
10/17/2014  07:31:00      -43.851       18.312       -1.277       13.027       12.188       10.303      169.693      148.549      106.150        0.134        0.021       47.520        6.313        0.018      337.157        8.941      859.163
10/17/2014  07:32:00      -23.521       -6.364       -7.926        8.784       13.356        7.845       77.155      178.378       61.541        0.049        0.016       24.367        6.764        0.077      337.227        9.062      859.165
10/17/2014  07:33:00        3.273      -22.367        4.002       13.894       11.902       11.197      193.036      141.662      125.382        0.049        0.023       22.606        4.752        0.044      337.289        9.164      859.158
10/17/2014  07:34:00       -6.919      -17.250       -5.235       11.468       10.285        9.269      131.510      105.773       85.920        0.035        0.016       18.586        5.762        0.096      337.329        9.232      859.153
10/17/2014  07:35:00      -17.551      -21.896        0.004       12.828       13.507       11.843      164.554      182.432      140.253        0.064        0.024       28.063        5.171        0.034      337.340        9.247      859.141
10/17/2014  07:36:00      -31.142        0.649        0.557        7.589        9.142        7.399       57.596       83.582       54.741        0.058        0.010       31.148        4.102        0.017      337.324        9.222      859.130
10/17/2014  07:37:00      -55.705       13.651       -5.564       11.194        9.557        7.962      125.305       91.337       63.389        0.180        0.014       57.353        4.831        0.007      337.264        9.120      859.131
10/17/2014  07:38:00      -49.805      -11.103       -6.782        9.968       12.576        7.044       99.362      158.146       49.621        0.148        0.015       51.028        3.882        0.006      337.240        9.082      859.132
10/17/2014  07:39:00      -56.365      -25.242       -9.966       11.831        5.686        5.001      139.964       32.334       25.014        0.206        0.010       61.759        2.399        0.002      337.208        9.030      859.126
10/17/2014  07:40:00      -43.037      -28.906       -6.517        9.981        7.218        6.784       99.618       52.094       46.028        0.146        0.010       51.844        5.320        0.011      337.283        9.150      859.128
10/17/2014  07:41:00      -11.141      -29.479        6.958       35.120       23.704       18.631     1233.411      561.895      347.109        0.159        0.107       31.514        9.409        0.089      337.278        9.145      859.110
10/17/2014  07:42:00       21.678      -18.694       -6.178       27.298       37.160       15.890      745.171     1380.893      252.501        0.162        0.119       28.625       14.314        0.250      337.236        9.075      859.105
10/17/2014  07:43:00        9.484       11.368        4.010        8.150        8.283       10.320       66.427       68.606      106.509        0.024        0.012       14.805        2.895        0.038      337.235        9.073      859.104
10/17/2014  07:44:00      -16.168       15.588       -1.144       12.155        6.092        4.385      147.754       37.111       19.226        0.035        0.010       22.459        4.695        0.044      337.257        9.109      859.112
10/17/2014  07:45:00      -41.370       -2.287       -1.985       13.165       14.633        7.290      173.319      214.139       53.140        0.108        0.022       41.433        4.998        0.015      337.305        9.190      859.125
10/17/2014  07:46:00      -72.956      -15.723       -8.682       14.456       12.584       10.817      208.988      158.367      117.006        0.306        0.024       74.631        8.071        0.012      337.261        9.116      859.134
10/17/2014  07:47:00      -84.140       -2.088       -2.999       30.810       16.550       15.489      949.255      273.907      239.909        0.428        0.073       84.166       15.346        0.033      337.120        8.879      859.130
10/17/2014  07:48:00      -76.050       -7.648       -2.335       27.725       17.931       14.512      768.676      321.511      210.585        0.357        0.065       76.434       13.560        0.031      337.144        8.919      859.115
10/17/2014  07:49:00      -75.852      -11.175       -0.762       29.320       25.507       19.934      859.641      650.630      397.365        0.389        0.095       76.670       18.186        0.056      337.156        8.940      859.110
10/17/2014  07:50:00      -86.620       -9.773       -5.092       35.067       30.368       17.060     1229.691      922.186      291.032        0.503        0.122       87.170       13.482        0.024      337.145        8.921      859.116
10/17/2014  07:51:00     -102.458      -11.660       -2.270       21.104       21.475       20.455      445.386      461.197      418.393        0.598        0.066      103.119       13.992        0.018      337.095        8.837      859.140
10/17/2014  07:52:00      -99.379       -6.259       -6.780       28.401       22.093       17.996      806.612      488.089      323.848        0.579        0.081       99.576       18.515        0.035      337.070        8.795      859.160
10/17/2014  07:53:00     -106.893       -1.134      -15.187       20.260       16.821       15.991      410.474      282.934      255.726        0.630        0.047      106.899        9.797        0.008      337.115        8.870      859.173
10/17/2014  07:54:00      -85.809       -4.960      -13.298       18.607       17.319       14.327      346.235      299.931      205.271        0.421        0.043       85.952       12.080        0.020      337.156        8.942      859.186
10/17/2014  07:55:00      -89.023       -2.911       -6.373       24.074       16.637       12.580      579.534      276.783      158.244        0.449        0.051       89.071       10.900        0.015      337.221        9.048      859.199
10/17/2014  07:56:00      -90.094      -11.781       -5.592       26.525       14.847       13.904      703.563      220.433      193.327        0.470        0.056       90.861       12.991        0.020      337.258        9.110      859.209
10/17/2014  07:57:00     -113.708      -17.478       -8.327       18.632       16.848       13.226      347.157      283.869      174.924        0.706        0.040      115.043        9.551        0.007      337.230        9.065      859.218
10/17/2014  07:58:00      -80.450      -11.360       -9.098       20.218       19.374       13.386      408.753      375.343      179.181        0.382        0.048       81.248       10.325        0.016      337.276        9.143      859.230
10/17/2014  07:59:00      -76.253       -4.574       -7.452       21.044       20.888       13.764      442.832      436.326      189.450        0.348        0.053       76.390       10.093        0.017      337.293        9.169      859.242
10/17/2014  08:00:00     -111.567       -0.356      -15.571       19.758       17.196       10.902      390.359      295.691      118.863        0.675        0.040      111.567        5.313        0.002      337.270        9.131      859.253
10/17/2014  08:01:00     -127.715       -8.207      -14.639       15.778       12.927       11.718      248.936      167.109      137.321        0.857        0.028      127.979        9.633        0.006      337.279        9.147      859.271
10/17/2014  08:02:00      -96.444       -6.080       -9.186       20.610       13.304       12.383      424.756      176.997      153.331        0.509        0.038       96.636        8.486        0.008      337.304        9.190      859.291
10/17/2014  08:03:00      -72.138       -8.954       -5.664       11.227       14.981        7.900      126.056      224.444       62.411        0.286        0.021       72.691        6.032        0.007      337.338        9.245      859.292
10/17/2014  08:04:00      -74.759      -11.723       -8.689       19.441       13.796        9.743      377.952      190.329       94.922        0.323        0.033       75.672        8.552        0.013      337.356        9.275      859.283
10/17/2014  08:05:00      -71.507      -15.380      -10.127       14.069       10.275       10.776      197.944      105.566      116.117        0.294        0.021       73.143        7.911        0.012      337.356        9.275      859.270
10/17/2014  08:06:00      -55.067      -11.465       -8.171       23.782       17.493       14.179      565.570      306.002      201.032        0.215        0.054       56.248       13.488        0.058      337.382        9.318      859.253
10/17/2014  08:07:00      -58.360      -14.466      -11.966       15.223       14.451       10.854      231.732      208.835      117.809        0.216        0.028       60.126        2.747        0.002      337.395        9.340      859.235
10/17/2014  08:08:00      -69.395      -12.018       -4.614       16.590       18.187       10.811      275.244      330.771      116.878        0.285        0.036       70.428        7.530        0.011      337.431        9.400      859.216
10/17/2014  08:09:00      -62.519       -8.462       -5.796       18.014       17.572        9.038      324.508      308.787       81.679        0.236        0.036       63.089        6.090        0.009      337.406        9.357      859.211
10/17/2014  08:10:00      -43.742       -7.798       -3.846       14.248       16.307       10.187      202.998      265.924      103.781        0.128        0.029       44.432        8.498        0.037      337.405        9.353      859.212
10/17/2014  08:11:00      -89.481       -9.694      -12.547       19.761       18.714       13.247      390.479      350.229      175.482        0.459        0.046       90.004       12.436        0.019      337.431        9.399      859.203
10/17/2014  08:12:00      -55.343       -5.451       -5.926       23.374       17.745       12.428      546.332      314.884      154.463        0.207        0.051       55.611        8.958        0.026      337.418        9.376      859.192
10/17/2014  08:13:00      -45.502       -1.058      -11.809       12.087       11.870       11.272      146.094      140.908      127.054        0.131        0.021       45.514        5.435        0.014      337.506        9.526      859.186
10/17/2014  08:14:00      -46.817      -10.299       -5.515        9.800       16.964       14.713       96.031      287.774      216.477        0.146        0.030       47.936        9.867        0.042      337.578        9.646      859.182
10/17/2014  08:15:00      -58.366      -12.079       -7.273       10.893       16.800       11.158      118.664      282.254      124.507        0.207        0.026       59.603        9.598        0.026      337.652        9.770      859.175
10/17/2014  08:16:00      -70.547       -8.241      -12.554       14.327       16.600        8.540      205.257      275.570       72.925        0.288        0.028       71.026        7.395        0.011      337.641        9.752      859.182
10/17/2014  08:17:00      -62.252      -13.051       -9.730       15.254       18.443       10.512      232.692      340.146      110.505        0.241        0.034       63.605        9.266        0.021      337.634        9.742      859.195
10/17/2014  08:18:00      -70.551      -17.637       -3.945       14.346       16.515       11.335      205.795      272.731      128.479        0.296        0.030       72.722        3.747        0.003      337.684        9.823      859.206
10/17/2014  08:19:00      -40.850      -24.003       -2.770       41.600       15.360       12.706     1730.520      235.925      161.438        0.219        0.106       47.380        8.282        0.031      337.714        9.874      859.216
10/17/2014  08:20:00       -2.614       -5.608        7.764       26.397       15.104        8.827      696.786      228.116       77.913        0.055        0.050        6.187       10.392        2.821      337.763        9.956      859.231
10/17/2014  08:21:00      -73.829      -44.557       -6.708       17.809       15.697       12.379      317.169      246.404      153.251        0.410        0.036       86.232        8.663        0.010      337.684        9.823      859.225
10/17/2014  08:22:00      -72.691      -28.226       -6.849       12.045       10.075        9.176      145.078      101.506       84.202        0.323        0.017       77.979        6.028        0.006      337.655        9.777      859.219
10/17/2014  08:23:00      -43.652      -21.937       -1.401       10.655       10.419        8.837      113.537      108.560       78.096        0.134        0.015       48.854        5.577        0.013      337.717        9.878      859.208
10/17/2014  08:24:00      -36.175      -30.982       -4.806       14.228       12.041       12.663      202.437      144.985      160.347        0.140        0.025       47.629       10.148        0.045      337.907       10.199      859.196
10/17/2014  08:25:00      -10.811      -24.939        9.600       18.436       15.900        9.515      339.873      252.814       90.526        0.076        0.034       27.181        9.586        0.124      337.931       10.238      859.196
10/17/2014  08:26:00      -57.228      -46.166       -6.878       16.064        9.221        7.482      258.066       85.029       55.975        0.293        0.020       73.528        6.929        0.009      337.888       10.165      859.201
10/17/2014  08:27:00      -63.194      -41.077       -3.589       11.072       16.891        9.395      122.591      285.303       88.262        0.309        0.025       75.371        8.974        0.014      337.904       10.192      859.214
10/17/2014  08:28:00      -45.666      -35.248       -1.832       23.793       15.804        9.699      566.087      249.778       94.072        0.212        0.045       57.687       10.919        0.036      337.962       10.291      859.229
10/17/2014  08:29:00      -66.622      -23.496       -4.135       30.705       19.101       12.995      942.825      364.844      168.872        0.324        0.074       70.644        5.574        0.006      338.126       10.566      859.218
10/17/2014  08:30:00     -121.956      -12.413      -12.364       30.637       21.446       20.000      938.631      459.915      399.994        0.849        0.090      122.586       15.305        0.016      338.006       10.363      859.232
10/17/2014  08:31:00     -108.136      -24.727      -10.927       22.754       27.594       13.878      517.757      761.416      192.596        0.695        0.074      110.927        9.137        0.007      337.929       10.234      859.243
10/17/2014  08:32:00     -108.847      -42.598      -10.825       17.846       22.687       14.137      318.485      514.713      199.865        0.741        0.052      116.886       10.919        0.009      337.940       10.255      859.263
10/17/2014  08:33:00     -122.657      -15.008      -17.443       15.414       21.283       12.973      237.577      452.958      168.296        0.822        0.043      123.572       11.507        0.009      337.927       10.231      859.265
10/17/2014  08:34:00     -111.564       -6.973      -10.234       23.681       25.720       21.592      560.786      661.501      466.196        0.714        0.084      111.782       17.506        0.025      338.005       10.361      859.266
10/17/2014  08:35:00     -106.334       -7.208       -8.025       28.538       23.787       17.226      814.419      565.833      296.750        0.655        0.084      106.578       11.509        0.012      338.030       10.403      859.271
10/17/2014  08:36:00     -124.202        4.757       -9.345       25.776       17.525       17.196      664.382      307.126      295.708        0.840        0.063      124.293       15.567        0.016      338.082       10.492      859.276
10/17/2014  08:37:00      -64.462      -16.811      -12.393       27.586       24.529       13.968      761.004      601.651      195.107        0.307        0.078       66.618        9.516        0.020      338.169       10.638      859.275
10/17/2014  08:38:00      -98.106      -31.814       -6.705       30.070       24.269       11.779      904.175      588.965      138.749        0.616        0.082      103.135        9.462        0.008      338.226       10.733      859.278
10/17/2014  08:39:00     -125.267      -30.467       -8.399       20.211       23.985       16.174      408.498      575.272      261.587        0.897        0.062      128.919        5.207        0.002      338.215       10.715      859.277
10/17/2014  08:40:00      -79.519      -12.603       -2.121       49.319       29.423       18.801     2432.319      865.691      353.488        0.507        0.183       80.512       24.306        0.091      338.318       10.888      859.285
10/17/2014  08:41:00      -55.889       -1.019       -2.551       28.954       24.936       12.738      838.334      621.816      162.263        0.238        0.081       55.898       11.108        0.039      338.350       10.942      859.278
10/17/2014  08:42:00      -33.804       -8.837       -8.469       15.697       10.388        8.996      246.405      107.920       80.926        0.086        0.022       34.940        6.513        0.035      338.436       11.086      859.271
10/17/2014  08:43:00      -40.620      -20.380       -8.838        7.521        8.752       12.157       56.565       76.594      147.792        0.121        0.014       45.446        5.243        0.013      338.519       11.227      859.255
10/17/2014  08:44:00      -25.329      -28.047       -7.968        7.933        8.475        9.228       62.936       71.821       85.151        0.086        0.011       37.791        4.084        0.012      338.547       11.270      859.240
10/17/2014  08:45:00      -30.233       -9.024        0.471        9.097       10.474        9.805       82.748      109.705       96.132        0.064        0.014       31.551        6.499        0.042      338.686       11.506      859.241
10/17/2014  08:46:00      -49.031      -53.269       -0.201       28.510       26.671       14.342      812.805      711.356      205.688        0.349        0.086       72.399        4.027        0.003      338.692       11.515      859.245
10/17/2014  08:47:00      -59.896      -63.665       -2.591       34.310       29.743       23.861     1177.153      884.664      569.339        0.514        0.132       87.412       17.877        0.042      338.691       11.515      859.250
10/17/2014  08:48:00      -71.083      -93.487       -5.110       34.309       31.031       26.361     1177.094      962.894      694.920        0.833        0.142      117.442       24.427        0.043      338.641       11.432      859.255
10/17/2014  08:49:00      -79.575      -82.539        1.327       29.322       42.535       23.077      859.792     1809.267      532.550        0.817        0.160      114.651       16.986        0.022      338.618       11.393      859.256
10/17/2014  08:50:00      -80.178      -83.496      -10.444       21.666       22.754       11.293      469.404      517.747      127.539        0.731        0.056      115.759        3.027        0.001      338.601       11.363      859.257
10/17/2014  08:51:00      -21.899      -50.553        2.507       22.558       30.111       17.611      508.870      906.654      310.145        0.238        0.086       55.092       16.842        0.093      338.714       11.552      859.250
10/17/2014  08:52:00      -38.162      -40.615      -10.299       42.859       29.873       25.683     1836.861      892.383      659.628        0.330        0.169       55.731       23.166        0.173      338.805       11.705      859.236
10/17/2014  08:53:00      -41.103      -67.023        0.220       25.430       56.759       14.642      646.678     3221.565      214.383        0.513        0.204       78.623        6.718        0.007      338.619       11.394      859.232
10/17/2014  08:54:00      -54.756      -88.955       -7.801       18.429       14.132       10.036      339.634      199.714      100.729        0.581        0.032      104.457        7.547        0.005      338.604       11.368      859.233
10/17/2014  08:55:00      -58.652      -85.605       -1.903       22.397       48.071       20.232      501.624     2310.828      409.314        0.700        0.161      103.770       18.414        0.031      338.703       11.534      859.235
10/17/2014  08:56:00      -47.478      -59.317       -0.185       31.919       37.529       22.994     1018.802     1408.407      528.706        0.436        0.148       75.978       17.813        0.055      338.709       11.545      859.252
10/17/2014  08:57:00      -44.013      -84.382        0.093       24.867       20.220       20.779      618.379      408.855      431.782        0.526        0.073       95.171       16.139        0.029      338.710       11.546      859.277
10/17/2014  08:58:00      -44.041     -102.962       -0.142       28.178       24.926       17.572      794.025      621.304      308.779        0.713        0.086      111.985       12.916        0.013      338.684       11.504      859.301
10/17/2014  08:59:00      -46.204      -77.021        0.675       20.976       37.567       13.120      439.984     1411.316      172.127        0.505        0.101       89.817       15.980        0.032      338.705       11.538      859.315
10/17/2014  09:00:00      -35.569      -76.957       -7.579       24.055       28.801       18.201      578.651      829.472      331.294        0.449        0.087       84.780       12.103        0.020      338.763       11.635      859.325
10/17/2014  09:01:00      -60.037      -99.031       -1.576       22.507       26.680       14.406      506.580      711.823      207.524        0.742        0.071      115.809        9.688        0.007      338.737       11.591      859.338
10/17/2014  09:02:00      -60.111      -72.387       -4.348       19.247       31.906       19.189      370.450     1017.986      368.201        0.531        0.088       94.091       10.807        0.013      338.782       11.667      859.351
10/17/2014  09:03:00      -60.373      -69.258       -4.845       27.487       40.600       18.304      755.534     1648.378      335.033        0.560        0.137       91.878       18.441        0.040      338.797       11.692      859.367
10/17/2014  09:04:00      -33.500      -48.924       -8.310       26.103       45.609       20.583      681.378     2080.163      423.639        0.338        0.159       59.295       20.628        0.121      338.882       11.835      859.380
10/17/2014  09:05:00      -30.264      -72.022       -9.294       29.618       25.689       18.748      877.246      659.916      351.501        0.404        0.094       78.122       13.360        0.029      338.905       11.874      859.388
10/17/2014  09:06:00      -50.065      -73.975      -11.666       16.643       23.320       16.174      277.001      543.809      261.591        0.460        0.054       89.324       12.073        0.018      338.867       11.811      859.387
10/17/2014  09:07:00      -49.928     -103.315       -3.337       20.199       22.728       18.539      407.988      516.543      343.687        0.722        0.063      114.747       11.915        0.011      338.839       11.764      859.394
10/17/2014  09:08:00      -77.788      -78.139       -5.886       25.115       24.175       16.901      630.741      584.434      285.634        0.685        0.075      110.257       13.670        0.015      338.880       11.833      859.402
10/17/2014  09:09:00      -66.141      -34.064       -0.487       38.997       51.323       21.896     1520.746     2634.096      479.416        0.508        0.232       74.398       18.296        0.060      339.058       12.131      859.413
10/17/2014  09:10:00      -45.566      -70.735        6.818       33.733       31.079       23.746     1137.882      965.909      563.896        0.490        0.133       84.141       20.287        0.058      339.033       12.090      859.434
10/17/2014  09:11:00      -43.896      -80.167       -2.816       20.202       26.396       13.222      408.114      696.767      174.817        0.482        0.064       91.398        9.592        0.011      338.998       12.030      859.439
10/17/2014  09:12:00      -43.310      -44.505       -1.124       22.408       42.555       21.620      502.134     1810.934      467.426        0.332        0.139       62.100       19.475        0.098      339.067       12.146      859.434
10/17/2014  09:13:00      -55.264      -67.157       -3.028       49.280       26.609       14.900     2428.484      708.028      222.022        0.547        0.168       86.972        8.630        0.010      339.089       12.183      859.436
10/17/2014  09:14:00      -17.048      -53.099        1.803       29.900       30.037       15.726      893.995      902.194      247.307        0.258        0.102       55.768        8.775        0.025      339.189       12.352      859.429
10/17/2014  09:15:00      -18.346      -38.751       -4.749       23.322       24.533       15.452      543.906      601.849      238.767        0.162        0.069       42.874        8.498        0.039      339.227       12.415      859.427
10/17/2014  09:16:00      -14.001      -26.600        2.742       29.401       14.770       17.499      864.396      218.146      306.201        0.115        0.069       30.060       13.087        0.190      339.262       12.474      859.422
10/17/2014  09:17:00      -48.788      -29.615       -4.130       36.995       30.779       18.426     1368.643      947.338      339.532        0.296        0.133       57.073       17.516        0.094      339.266       12.481      859.413
10/17/2014  09:18:00      -49.006      -48.809        0.762       12.020       15.600       11.971      144.489      243.369      143.299        0.266        0.027       69.166        5.042        0.005      339.163       12.306      859.409
10/17/2014  09:19:00      -15.736      -17.278        6.352       24.127       29.246       24.734      582.120      855.326      611.785        0.132        0.102       23.370       21.307        0.831      339.267       12.485      859.404
10/17/2014  09:20:00      -24.803       21.689        8.574       31.416       20.140       16.091      986.945      405.606      258.926        0.141        0.083       32.948       14.362        0.190      339.355       12.632      859.414
10/17/2014  09:21:00      -39.160       -7.133        3.148       23.142       27.814       26.868      535.554      773.631      721.884        0.181        0.102       39.804       19.408        0.238      339.393       12.696      859.421
10/17/2014  09:22:00      -17.520        5.972        7.240       18.214       31.386       22.510      331.764      985.065      506.715        0.111        0.091       18.510       17.757        0.920      339.489       12.858      859.427
10/17/2014  09:23:00      -37.315        2.659       -2.555       22.097       23.710       19.590      488.273      562.144      383.771        0.142        0.072       37.409       14.008        0.140      339.539       12.940      859.442
10/17/2014  09:24:00      -23.885      -23.158        7.066       28.082       30.628       17.748      788.582      938.069      314.978        0.160        0.102       33.269       12.114        0.133      339.597       13.040      859.460
10/17/2014  09:25:00      -12.324      -14.110        9.278       17.444       25.016       24.265      304.287      625.812      588.779        0.098        0.076       18.734       16.315        0.758      339.705       13.222      859.483
10/17/2014  09:26:00        3.470       -8.503       -4.820       15.698       19.777       12.273      246.412      391.142      150.638        0.045        0.039        9.184        4.357        0.225      339.662       13.150      859.496
10/17/2014  09:27:00       -8.265      -15.400        3.971       17.984       26.255       15.638      323.416      689.301      244.542        0.079        0.063       17.477        8.552        0.239      339.575       13.003      859.509
10/17/2014  09:28:00      -16.934       -7.842       -8.473       19.141       16.294       13.466      366.390      265.497      181.341        0.062        0.041       18.662       10.784        0.334      339.717       13.242      859.514
10/17/2014  09:29:00      -25.567       -2.224        8.841       23.938       12.508       16.989      573.014      156.446      288.628        0.088        0.051       25.663       10.815        0.178      339.890       13.535      859.515
10/17/2014  09:30:00      -22.222       -5.232        3.471       22.838       20.154       14.677      521.559      406.180      215.423        0.084        0.057       22.829       11.248        0.243      339.751       13.300      859.522
10/17/2014  09:31:00       -9.609        3.679       29.002       19.598       30.614       14.235      384.084      937.208      202.644        0.124        0.076       10.289       12.477        1.471      340.064       13.828      859.536
10/17/2014  09:32:00      -35.966       29.986       -2.647       26.353       25.486       19.156      694.454      649.515      366.937        0.196        0.086       46.826       13.247        0.080      339.660       13.146      859.550
10/17/2014  09:33:00      -15.286       11.045       24.000       18.383       13.793       19.299      337.926      190.255      372.470        0.092        0.045       18.859       13.255        0.494      340.083       13.859      859.562
10/17/2014  09:34:00      -31.291       11.946       22.334       31.334       25.476       27.678      981.789      649.006      766.095        0.201        0.120       33.493       17.338        0.268      339.910       13.566      859.560
10/17/2014  09:35:00      -32.432       -0.913       23.491       20.255       21.091       19.246      410.249      444.845      370.421        0.141        0.061       32.445       18.228        0.316      340.134       13.947      859.565
10/17/2014  09:36:00       12.590      -33.108       13.177       44.204       41.399       25.943     1954.002     1713.884      673.052        0.288        0.217       35.421       16.339        0.213      339.906       13.561      859.567
10/17/2014  09:37:00       43.267      -47.776       12.541       46.899       54.621       45.321     2199.479     2983.447     2053.973        0.577        0.362       64.456       30.436        0.223      339.814       13.406      859.556
10/17/2014  09:38:00       11.874       -7.321       13.526       27.546       42.590       30.953      758.775     1813.941      958.100        0.195        0.177       13.950       27.362        3.847      340.242       14.128      859.560
10/17/2014  09:39:00       10.759      -13.221       38.841       35.672       57.427       40.692     1272.485     3297.827     1655.843        0.401        0.311       17.045       36.273        4.529      340.385       14.369      859.563
10/17/2014  09:40:00       18.821        4.858       35.399       35.802       42.280       40.378     1281.771     1787.634     1630.375        0.316        0.235       19.438       34.072        3.072      340.471       14.514      859.564
10/17/2014  09:41:00       20.590      -26.219       14.858       27.638       44.977       26.251      763.840     2022.943      689.127        0.240        0.174       33.338       26.447        0.629      340.235       14.116      859.567
10/17/2014  09:42:00       25.957       28.477       23.746       25.302       29.095       21.475      640.207      846.507      461.194        0.200        0.097       38.531       16.731        0.189      340.108       13.901      859.553
10/17/2014  09:43:00       29.874        8.472       27.421       42.041       40.851       32.864     1767.465     1668.802     1080.013        0.312        0.226       31.052       28.927        0.868      340.114       13.911      859.550
10/17/2014  09:44:00       32.666        5.069       45.348       45.843       71.357       37.544     2101.558     5091.804     1409.519        0.587        0.430       33.056       38.717        1.372      340.043       13.791      859.530
10/17/2014  09:45:00       66.083      -71.164       12.051       55.823       50.120       32.097     3116.209     2512.044     1030.191        0.812        0.333       97.114       30.058        0.096      339.822       13.420      859.510
10/17/2014  09:46:00       38.237      -26.095       23.110       46.000       52.049       45.233     2115.960     2709.105     2046.052        0.477        0.344       46.293       36.456        0.620      340.229       14.105      859.494
10/17/2014  09:47:00       37.070      -13.808       20.713       32.895       45.195       34.949     1082.092     2042.575     1221.463        0.317        0.217       39.558       22.167        0.314      340.182       14.027      859.481
10/17/2014  09:48:00       62.099        7.696       34.018       48.278       70.613       47.793     2330.782     4986.184     2284.155        0.734        0.480       62.574       47.855        0.585      340.173       14.009      859.470
10/17/2014  09:49:00       81.056       77.014       76.566       68.434       40.590       29.065     4683.233     1647.537      844.783        1.277        0.359      111.808       11.932        0.011      340.032       13.773      859.469
10/17/2014  09:50:00       75.518       67.245       56.497       72.477       58.678       33.672     5252.960     3443.155     1133.796        1.162        0.491      101.119       25.654        0.064      340.046       13.795      859.462
10/17/2014  09:51:00      109.469       86.997       72.090       73.993       53.487       40.845     5474.945     2860.851     1668.305        1.737        0.500      139.828       25.297        0.033      339.883       13.519      859.465
10/17/2014  09:52:00      110.195       67.172       36.467       55.231       50.905       40.042     3050.414     2591.337     1603.352        1.261        0.362      129.055       20.274        0.025      339.872       13.503      859.482
10/17/2014  09:53:00       51.544       25.075       16.199       68.498       60.620       35.975     4691.939     3674.736     1294.173        0.660        0.483       57.320       33.037        0.332      340.020       13.753      859.489
10/17/2014  09:54:00       61.674      -80.062       -3.224       69.038       75.117       64.297     4766.257     5642.504     4134.136        1.238        0.727      101.062       60.344        0.357      340.081       13.854      859.501
10/17/2014  09:55:00       83.915      -16.357       34.118       55.069       54.327       47.232     3032.577     2951.449     2230.823        0.834        0.411       85.494       41.156        0.232      339.996       13.711      859.513
10/17/2014  09:56:00       67.046      -77.348       14.750       52.423       79.676       45.444     2748.181     6348.281     2065.175        1.093        0.558      102.362       46.610        0.207      340.040       13.785      859.530
10/17/2014  09:57:00       60.006      -64.162      -17.728       46.494       58.940       38.908     2161.650     3473.982     1513.836        0.759        0.357       87.849       30.012        0.117      340.152       13.976      859.543
10/17/2014  09:58:00       58.617      -51.944        2.082       39.669       50.781       29.974     1573.623     2578.687      898.433        0.559        0.253       78.321       30.521        0.152      340.092       13.874      859.551
10/17/2014  09:59:00       30.383        1.680       18.400       23.724       22.751       30.108      562.830      517.621      906.498        0.163        0.099       30.430       13.757        0.204      340.099       13.886      859.553
10/17/2014  10:00:00       37.069        7.894       12.117       26.456       25.275       22.388      699.901      638.832      501.229        0.171        0.092       37.900       18.150        0.229      340.004       13.726      859.541
10/17/2014  10:01:00       55.623       44.773       22.204       36.079       30.083       31.243     1301.724      904.972      976.117        0.439        0.159       71.404       17.233        0.058      340.179       14.020      859.546
10/17/2014  10:02:00       59.305       56.487       38.134       30.145       31.272       27.053      908.743      977.947      731.880        0.539        0.131       81.902       14.755        0.032      340.252       14.144      859.540
10/17/2014  10:03:00       87.571       88.846       55.499       44.633       43.390       43.568     1992.069     1882.652     1898.213        1.221        0.289      124.749       28.547        0.052      340.194       14.046      859.551
10/17/2014  10:04:00       70.735       37.560       22.939       46.334       48.978       41.805     2146.803     2398.891     1747.621        0.662        0.315       80.088       25.782        0.104      340.274       14.181      859.564
10/17/2014  10:05:00      100.455       58.194       36.342       43.045       36.775       30.557     1852.850     1352.418      933.732        0.947        0.207      116.093       16.039        0.019      340.208       14.070      859.564
10/17/2014  10:06:00       26.898       69.663       67.218       38.023       29.901       20.443     1445.774      894.052      417.931        0.643        0.138       74.676       10.863        0.021      340.346       14.304      859.570
10/17/2014  10:07:00       30.296       66.635       68.814       58.975       48.605       34.745     3478.097     2362.440     1207.217        0.857        0.352       73.199       20.969        0.082      340.357       14.320      859.576
10/17/2014  10:08:00       88.480       78.158       60.132       56.961       39.308       42.306     3244.553     1545.120     1789.815        1.207        0.329      118.057       37.951        0.103      340.300       14.225      859.570
10/17/2014  10:09:00      102.439       87.432       55.075       76.353       42.860       42.926     5829.834     1836.957     1842.599        1.534        0.475      134.678       39.527        0.086      340.208       14.070      859.562
10/17/2014  10:10:00       73.952      100.832       97.293       65.176       55.582       46.443     4247.869     3089.373     2156.906        1.730        0.475      125.044       48.562        0.151      340.053       13.808      859.563
10/17/2014  10:11:00      143.302      110.644       54.616       46.438       44.588       40.591     2156.442     1988.088     1647.596        2.078        0.290      181.046       32.347        0.032      340.016       13.744      859.560
10/17/2014  10:12:00       57.488       61.784       40.781       51.707       32.725       34.721     2673.594     1070.906     1205.553        0.687        0.248       84.393       17.325        0.042      340.100       13.888      859.547
10/17/2014  10:13:00       96.610       80.090       24.125       57.327       46.431       43.604     3286.428     2155.851     1901.334        1.184        0.367      125.490       22.175        0.031      340.164       13.995      859.550
10/17/2014  10:14:00       85.908       53.503       23.529       51.719       38.759       36.253     2674.832     1502.241     1314.269        0.814        0.275      101.207       20.236        0.040      340.225       14.098      859.549
10/17/2014  10:15:00      146.614       91.990       21.853       58.825       37.511       43.270     3460.373     1407.046     1872.279        1.859        0.337      173.083       24.281        0.020      340.213       14.077      859.536
10/17/2014  10:16:00      184.021      114.463       26.962       45.433       39.922       38.968     2064.144     1593.776     1518.468        2.643        0.259      216.716       23.030        0.011      340.179       14.018      859.506
10/17/2014  10:17:00      167.485      122.364       30.618       47.986       35.371       48.490     2302.629     1251.142     2351.281        2.493        0.295      207.423       32.579        0.025      340.100       13.886      859.485
10/17/2014  10:18:00       77.578       55.944       30.469       67.834       51.922       33.348     4601.394     2695.877     1112.087        0.924        0.420       95.646       27.960        0.085      340.260       14.157      859.464
10/17/2014  10:19:00      113.782      109.749       38.513       58.907       52.988       47.424     3470.091     2807.699     2249.030        1.750        0.426      158.087       36.732        0.054      340.258       14.154      859.443
10/17/2014  10:20:00      112.543       86.085       27.923       80.701       55.989       38.333     6512.702     3134.812     1469.394        1.598        0.556      141.692       16.085        0.013      340.302       14.226      859.444
10/17/2014  10:21:00      139.502       88.431       15.710       46.430       40.587       39.342     2155.718     1647.340     1547.812        1.644        0.268      165.169       17.450        0.011      340.248       14.137      859.449
10/17/2014  10:22:00      133.797       80.161       19.144       42.856       31.730       34.721     1836.630     1006.769     1205.573        1.437        0.202      155.973       24.406        0.024      340.370       14.343      859.442
10/17/2014  10:23:00      181.767      124.406       57.439       83.138       66.277       51.383     6911.904     4392.669     2640.204        3.288        0.697      220.264       35.650        0.026      340.320       14.255      859.434
10/17/2014  10:24:00      184.285       80.405       31.172       86.128       56.835       58.469     7418.059     3230.226     3418.632        2.773        0.703      201.062       45.279        0.051      340.234       14.111      859.432
10/17/2014  10:25:00      158.444      117.102       24.091       56.296       56.380       51.054     3169.221     3178.654     2606.470        2.417        0.448      197.022       32.536        0.027      340.264       14.162      859.425
10/17/2014  10:26:00       34.572       20.569       32.490       57.001       55.285       39.133     3249.153     3056.437     1531.393        0.525        0.392       40.228       25.614        0.405      340.505       14.574      859.421
10/17/2014  10:27:00      117.829       57.502       36.801       71.285       54.531       50.334     5081.491     2973.635     2533.524        1.456        0.529      131.111       36.716        0.078      340.346       14.301      859.425
10/17/2014  10:28:00       43.404       60.079       73.239       46.930       67.259       38.492     2202.453     4523.784     1481.672        0.953        0.410       74.118       37.902        0.262      340.371       14.346      859.424
10/17/2014  10:29:00       23.218       67.736       82.243       40.533       52.424       34.096     1642.943     2748.305     1162.518        0.872        0.278       71.605       25.801        0.130      340.160       13.988      859.400
10/17/2014  10:30:00       17.952       32.395       30.094       39.120       34.473       23.184     1530.360     1188.409      537.488        0.277        0.163       37.036       16.948        0.209      340.309       14.239      859.384
10/17/2014  10:31:00      104.337       81.827       31.809       50.165       50.284       45.605     2516.559     2528.467     2079.814        1.286        0.356      132.597       32.492        0.060      340.276       14.185      859.381
10/17/2014  10:32:00       81.172       54.358       33.863       62.969       59.612       51.821     3965.075     3553.620     2685.364        1.045        0.510       97.692       32.912        0.113      340.345       14.300      859.387
10/17/2014  10:33:00      177.249       76.106       31.338       75.930       63.555       48.674     5765.357     4039.195     2369.118        2.518        0.609      192.897       23.380        0.015      340.327       14.269      859.386
10/17/2014  10:34:00      135.601       91.419       26.105       42.058       40.410       35.014     1768.905     1632.947     1226.000        1.603        0.231      163.539       13.653        0.007      340.142       13.959      859.389
10/17/2014  10:35:00      125.696       94.876        5.587       58.689       41.413       44.533     3444.422     1715.024     1983.167        1.599        0.357      157.483       32.367        0.042      340.292       14.212      859.382
10/17/2014  10:36:00      113.568       64.815       23.153       60.195       48.732       37.645     3623.408     2374.765     1417.161        1.252        0.371      130.762       25.731        0.039      340.364       14.334      859.383
10/17/2014  10:37:00      131.112       66.870        3.769       45.804       48.012       32.878     2097.996     2305.163     1080.964        1.358        0.274      147.180       18.342        0.016      340.225       14.099      859.376
10/17/2014  10:38:00      110.315       67.029       41.312       36.689       25.653       25.856     1346.107      658.058      668.529        1.052        0.134      129.082       20.681        0.026      340.233       14.112      859.375
10/17/2014  10:39:00       77.166       35.597       16.754       58.165       45.221       36.503     3383.175     2044.951     1332.442        0.713        0.338       84.981       23.368        0.076      340.158       13.987      859.380
10/17/2014  10:40:00        7.317      -13.445       29.653       30.459       31.372       16.859      927.776      984.188      284.231        0.165        0.110       15.307       15.313        1.001      340.271       14.177      859.398
10/17/2014  10:41:00        2.906      -11.732       11.961       24.154       29.364       20.113      583.437      862.226      404.527        0.107        0.093       12.086       18.119        2.247      340.238       14.123      859.404
10/17/2014  10:42:00       -2.985      -12.751       11.251       16.531       16.267       17.007      273.287      264.629      289.222        0.056        0.041       13.096       11.269        0.741      340.561       14.667      859.400
10/17/2014  10:43:00       33.983      -50.927       -7.806       35.252       28.070       27.109     1242.730      787.935      734.897        0.329        0.138       61.224        8.369        0.019      340.087       13.866      859.399
10/17/2014  10:44:00       50.945      -54.118       -3.913       27.961       20.058       20.137      781.843      402.332      405.491        0.356        0.079       74.324       15.350        0.043      340.112       13.908      859.399
10/17/2014  10:45:00        8.526      -28.584       -2.090       10.747       35.854       14.906      115.499     1285.477      222.180        0.126        0.081       29.829       15.933        0.285      340.339       14.291      859.397
10/17/2014  10:46:00       -1.574      -10.475        6.559       22.991       30.778       19.594      528.608      947.262      383.936        0.101        0.093       10.592        9.267        0.765      340.472       14.516      859.384
10/17/2014  10:47:00       20.279        0.277        2.694       16.783        9.686       14.834      281.672       93.813      220.057        0.051        0.030       20.281        5.624        0.077      340.478       14.527      859.375
10/17/2014  10:48:00       16.000       18.929        8.849       17.530       16.261       20.818      307.287      264.412      433.408        0.085        0.050       24.785        7.403        0.089      340.492       14.550      859.378
10/17/2014  10:49:00       77.486       45.598       16.690       37.048       22.774       24.924     1372.555      518.661      621.230        0.544        0.126       89.907       13.201        0.022      340.489       14.544      859.371
10/17/2014  10:50:00       35.929       33.083       16.568       32.524       22.105       24.322     1057.830      488.609      591.554        0.240        0.107       48.840       12.745        0.068      340.682       14.871      859.354
10/17/2014  10:51:00       -3.332       10.453       28.288       15.984       19.076       16.885      255.502      363.884      285.098        0.091        0.045       10.971       10.197        0.864      340.838       15.135      859.345
10/17/2014  10:52:00       25.096      -14.100       24.578       27.428       27.039       14.953      752.274      731.082      223.603        0.157        0.085       28.786       17.562        0.372      340.547       14.642      859.323
10/17/2014  10:53:00        3.238       -6.126        8.025       27.159       35.150       23.901      737.630     1235.507      571.248        0.133        0.127        6.929       21.372        9.514      340.644       14.807      859.299
10/17/2014  10:54:00       56.420      -76.728        5.430       54.034       47.949       39.802     2919.707     2299.115     1584.230        0.795        0.340       95.238       34.189        0.129      340.242       14.128      859.295
10/17/2014  10:55:00       40.729      -29.320        3.196       51.035       37.889       33.723     2604.568     1435.551     1137.228        0.385        0.259       50.185       34.558        0.474      340.500       14.563      859.295
10/17/2014  10:56:00       34.705      -33.781        9.311       33.015       46.432       35.969     1090.014     2155.943     1293.733        0.349        0.227       48.432       36.725        0.575      340.610       14.750      859.292
10/17/2014  10:57:00       50.662      -45.393       -2.114       27.593       43.526       23.806      761.366     1894.507      566.717        0.393        0.161       68.023       28.445        0.175      340.693       14.890      859.303
10/17/2014  10:58:00       41.578      -53.423       -1.716       26.693       38.460       25.226      712.540     1479.150      636.367        0.371        0.141       67.696       25.664        0.144      340.535       14.621      859.315
10/17/2014  10:59:00       29.601       -0.304       13.859       21.527       15.709       21.969      463.413      246.777      482.630        0.113        0.060       29.602       14.116        0.227      340.791       15.056      859.318
10/17/2014  11:00:00       49.086      -10.438       19.076       24.328       25.214       21.763      591.858      635.769      473.607        0.229        0.085       50.184       19.651        0.153      340.717       14.930      859.319
10/17/2014  11:01:00       13.925        9.414       23.624       16.196       27.205       19.984      262.321      740.092      399.344        0.112        0.070       16.809       16.846        1.004      340.837       15.134      859.326
10/17/2014  11:02:00       -9.953      -10.414       18.529       31.081       19.408       13.987      966.030      376.665      195.628        0.104        0.077       14.406       16.886        1.374      340.930       15.290      859.322
10/17/2014  11:03:00      -26.751       -1.507        5.410       24.799       20.493       16.902      614.997      419.955      285.667        0.103        0.066       26.793       13.473        0.253      340.889       15.223      859.336
10/17/2014  11:04:00       41.152       23.340       18.740       39.541       23.206       16.584     1563.505      538.515      275.024        0.248        0.119       47.310       18.637        0.155      340.926       15.283      859.346
10/17/2014  11:05:00       29.087       20.335      -11.412       31.425       31.384       24.603      987.533      984.940      605.316        0.198        0.129       35.490       15.742        0.197      340.822       15.107      859.345
10/17/2014  11:06:00       21.825       49.294       17.420       35.918       23.452       20.854     1290.126      549.976      434.895        0.274        0.114       53.910       16.722        0.096      340.671       14.854      859.350
10/17/2014  11:07:00       21.939       -6.225       11.096       31.459       39.317       21.227      989.676     1545.812      450.595        0.181        0.149       22.805       12.559        0.303      341.097       15.574      859.360
10/17/2014  11:08:00       -3.727       16.962       49.198       22.157       22.957       27.053      490.944      527.015      731.863        0.224        0.087       17.367       16.627        0.917      341.332       15.972      859.358
10/17/2014  11:09:00        6.586      -17.292       36.874       28.783       46.164       25.796      828.488     2131.139      665.436        0.266        0.181       18.504       27.480        2.206      341.251       15.834      859.378
10/17/2014  11:10:00       15.915       11.503       30.979       18.099       17.865       16.458      327.584      319.167      270.881        0.113        0.046       19.637        8.989        0.210      341.091       15.563      859.392
10/17/2014  11:11:00       45.815      -45.537        4.870       35.815       45.408       33.131     1282.717     2061.909     1097.684        0.432        0.222       64.595       28.589        0.196      340.818       15.101      859.393
10/17/2014  11:12:00       44.342      -59.105       25.781       48.515       60.243       40.922     2353.678     3629.208     1674.638        0.689        0.383       73.889       42.274        0.327      341.074       15.535      859.398
10/17/2014  11:13:00       -3.375        2.261       34.724       18.346       44.343       23.175      336.564     1966.339      537.078        0.203        0.142        4.062       24.314       35.821      341.424       16.126      859.409
10/17/2014  11:14:00        6.713        8.664       41.833       24.630       28.446       17.607      606.649      809.147      310.000        0.180        0.086       10.960       15.372        1.967      341.284       15.890      859.410
10/17/2014  11:15:00       39.806       34.731       50.674       36.381       31.305       24.860     1323.569      979.976      617.998        0.414        0.146       52.827       18.587        0.124      341.192       15.734      859.418
10/17/2014  11:16:00       29.012        5.125       16.921       41.136       47.535       34.386     1692.169     2259.576     1182.372        0.314        0.257       29.461       29.301        0.989      341.001       15.411      859.418
10/17/2014  11:17:00        4.340      -50.438        6.901       19.334       26.831       24.412      373.804      719.908      595.952        0.215        0.084       50.624        4.676        0.009      340.772       15.024      859.413
10/17/2014  11:18:00       18.340       30.498       23.854       26.073       26.309       25.025      679.822      692.157      626.265        0.192        0.100       35.588       14.093        0.157      341.217       15.777      859.411
10/17/2014  11:19:00       19.278       -8.233       14.060       19.714       17.109       24.568      388.660      292.704      603.586        0.096        0.064       20.962       13.802        0.434      340.993       15.398      859.416
10/17/2014  11:20:00       52.290       17.561       13.470       36.972       19.066       20.705     1366.964      363.530      428.707        0.269        0.108       55.161       12.661        0.053      340.879       15.203      859.411
10/17/2014  11:21:00       54.316       42.074        7.191       28.960       23.936       20.376      838.659      572.915      415.180        0.330        0.091       68.705       14.573        0.045      340.875       15.198      859.408
10/17/2014  11:22:00       25.716       22.285        9.590       21.520       14.646       18.479      463.102      214.493      341.476        0.113        0.051       34.028        7.386        0.047      341.083       15.549      859.410
10/17/2014  11:23:00       15.402      -18.513        4.791       16.451       30.873       17.707      270.628      953.138      313.526        0.107        0.077       24.082        9.145        0.144      340.963       15.347      859.411
10/17/2014  11:24:00       55.109      -63.697      -16.577       44.792       57.088       34.690     2006.321     3258.990     1203.385        0.692        0.323       84.228       37.242        0.196      341.061       15.514      859.402
10/17/2014  11:25:00       40.642      -70.262       -2.398       47.089       45.835       35.709     2217.339     2100.849     1275.147        0.609        0.280       81.170       36.833        0.206      341.061       15.512      859.410
10/17/2014  11:26:00       23.403      -32.337       10.551       40.193       52.722       32.061     1615.472     2779.598     1027.934        0.356        0.271       39.918       26.918        0.455      341.064       15.518      859.415
10/17/2014  11:27:00       14.657      -41.487       11.087       38.596       35.653       33.166     1489.636     1271.154     1099.972        0.296        0.193       44.000       24.214        0.303      341.026       15.452      859.414
10/17/2014  11:28:00       37.779      -32.725       13.787       34.034       45.212       25.303     1158.302     2044.131      640.255        0.326        0.192       49.981       20.243        0.164      340.918       15.271      859.406
10/17/2014  11:29:00       -3.682        5.942       13.677       12.906       21.791       20.964      166.573      474.860      439.499        0.066        0.054        6.990       17.212        6.064      341.170       15.698      859.383
10/17/2014  11:30:00       37.049       -8.349        8.870       31.878       37.052       26.300     1016.219     1372.860      691.686        0.230        0.154       37.978       17.223        0.206      340.848       15.152      859.378
10/17/2014  11:31:00       51.464       -6.090       19.986       33.755       32.025       20.938     1139.414     1025.609      438.382        0.284        0.130       51.823       16.993        0.108      340.985       15.384      859.374
10/17/2014  11:32:00      105.375       58.249        7.369       25.732       26.622       25.273      662.120      708.727      638.706        0.828        0.100      120.403       15.638        0.017      341.004       15.417      859.367
10/17/2014  11:33:00      111.142       74.351       11.056       39.292       29.945       31.178     1543.877      896.709      972.061        1.071        0.171      133.719       17.305        0.017      341.002       15.414      859.342
10/17/2014  11:34:00       54.829       42.124        4.160       20.430       19.126       22.359      417.391      365.794      499.910        0.304        0.064       69.142       13.572        0.039      341.004       15.416      859.320
10/17/2014  11:35:00       49.983       62.756       -0.401       27.833       23.252       17.144      774.697      540.643      293.911        0.402        0.080       80.228       12.092        0.023      341.190       15.730      859.306
10/17/2014  11:36:00       68.346       58.182       11.333       26.175       29.061       23.658      685.120      844.549      559.705        0.514        0.104       89.757       18.247        0.041      341.201       15.749      859.297
10/17/2014  11:37:00       47.078       40.569       -5.086       30.781       23.526       26.033      947.469      553.480      677.696        0.303        0.109       62.147       16.590        0.071      341.267       15.862      859.286
10/17/2014  11:38:00       19.790       23.522       12.451       24.957       16.679       18.902      622.856      278.190      357.301        0.118        0.063       30.740       11.394        0.137      341.484       16.227      859.274
10/17/2014  11:39:00        9.947       22.649        4.691       26.478       20.933       12.603      701.073      438.178      158.841        0.097        0.065       24.736       10.345        0.175      341.503       16.260      859.270
10/17/2014  11:40:00        8.992       -2.565       17.572       18.950       15.912       14.553      359.118      253.190      211.802        0.061        0.041        9.351        9.909        1.123      341.225       15.791      859.267
10/17/2014  11:41:00        9.809        8.823       23.355       20.759       16.874       20.019      430.945      284.739      400.774        0.092        0.056       13.193       17.636        1.787      341.199       15.745      859.271
10/17/2014  11:42:00        8.043       -5.676        2.917       18.167       15.673       19.606      330.057      245.630      384.396        0.053        0.048        9.844        7.200        0.535      341.272       15.869      859.273
10/17/2014  11:43:00       -4.772       -7.469       -2.101       11.767       19.468       12.985      138.472      378.988      168.599        0.038        0.034        8.863       10.906        1.514      341.356       16.011      859.253
10/17/2014  11:44:00        8.987       -8.125        6.545       17.875       21.197       18.133      319.500      449.312      328.808        0.064        0.055       12.115        6.353        0.275      341.390       16.069      859.232
10/17/2014  11:45:00       13.810      -23.750       11.203       23.553       35.347       27.921      554.759     1249.421      779.558        0.173        0.129       27.473       13.191        0.231      341.311       15.936      859.216
10/17/2014  11:46:00       34.548      -31.248        7.832       29.271       21.204       24.715      856.807      449.607      610.812        0.207        0.096       46.583       11.089        0.057      341.187       15.726      859.218
10/17/2014  11:47:00       39.546       37.249       25.090       25.629       23.057       14.063      656.850      531.619      197.774        0.248        0.069       54.327       12.276        0.051      341.486       16.231      859.231
10/17/2014  11:48:00       31.843      -32.247       10.009       15.568       23.839       24.327      242.363      568.320      591.815        0.178        0.070       45.319       11.167        0.061      341.166       15.690      859.238
10/17/2014  11:49:00       32.074       30.861       40.378       43.135       39.103       30.817     1860.598     1529.052      949.678        0.397        0.217       44.510       25.600        0.331      341.339       15.984      859.258
10/17/2014  11:50:00       60.361       34.718        6.727       39.748       36.849       43.091     1579.903     1357.853     1856.822        0.484        0.240       69.633       36.086        0.269      341.361       16.020      859.275
10/17/2014  11:51:00       13.973       37.821       42.612       25.571       30.100       22.413      653.864      905.985      502.347        0.275        0.103       40.319       10.590        0.069      341.654       16.516      859.289
10/17/2014  11:52:00       10.400        3.495       21.386       24.037       23.615       20.105      577.763      557.664      404.196        0.106        0.077       10.972       14.190        1.673      341.620       16.458      859.288
10/17/2014  11:53:00       14.145      -55.141       -6.027       47.606       26.470       29.062     2266.324      700.679      844.621        0.354        0.191       56.927       23.392        0.169      341.137       15.642      859.295
10/17/2014  11:54:00       57.506      -53.281       -3.066       57.856       32.027       34.346     3347.277     1025.717     1179.675        0.585        0.278       78.395       36.384        0.215      341.228       15.794      859.299
10/17/2014  11:55:00        6.370      -10.704       -5.717       48.386       20.795       13.478     2341.202      432.425      181.654        0.157        0.148       12.456       11.954        0.921      341.352       16.006      859.308
10/17/2014  11:56:00       51.755      -45.604        2.872       57.189       37.217       22.650     3270.637     1385.113      513.003        0.497        0.258       68.980       16.083        0.054      341.495       16.248      859.296
10/17/2014  11:57:00       11.921        8.428       22.084       22.094       25.452       22.364      488.132      647.810      500.139        0.117        0.082       14.599       20.433        1.959      341.806       16.775      859.286
10/17/2014  11:58:00        1.426      -29.021       18.055       21.837       25.909       22.197      476.866      671.286      492.696        0.141        0.082       29.056       21.258        0.535      341.927       16.981      859.281
10/17/2014  11:59:00       54.515       -1.309       24.720       33.425       33.379       30.681     1117.214     1114.134      941.314        0.338        0.159       54.531       24.684        0.205      341.373       16.041      859.277
10/17/2014  12:00:00       14.463      -28.183       23.706       25.722       38.869       24.711      661.605     1510.821      610.616        0.217        0.139       31.678       14.580        0.212      341.784       16.739      859.262
10/17/2014  12:01:00       47.987        4.789       22.182       39.671       34.296       30.144     1573.764     1176.211      908.688        0.324        0.183       48.225       25.474        0.279      341.719       16.626      859.245
10/17/2014  12:02:00       39.971      -13.346       15.397       40.008       33.665       25.664     1600.675     1133.354      658.630        0.270        0.170       42.140       24.467        0.337      341.830       16.815      859.240
10/17/2014  12:03:00        9.586       16.890       17.938       38.859       23.812       23.520     1510.046      567.031      553.203        0.166        0.132       19.420       21.743        1.253      341.743       16.669      859.222
10/17/2014  12:04:00       -4.064      -22.674        7.239       29.663       24.996       21.379      879.872      624.796      457.082        0.127        0.098       23.036       18.221        0.626      341.619       16.459      859.207
10/17/2014  12:05:00        7.880        5.802       32.143       35.991       45.902       27.198     1295.342     2106.966      739.757        0.263        0.207        9.786       20.570        4.419      341.942       17.006      859.201
10/17/2014  12:06:00       -5.924       83.028      109.961       41.439       49.900       38.491     1717.220     2489.965     1481.552        1.235        0.284       83.239       36.475        0.192      341.835       16.823      859.195
10/17/2014  12:07:00       36.936      -38.615        1.718       25.723       41.470       31.504      661.660     1719.746      992.479        0.312        0.169       53.436       30.365        0.323      341.396       16.080      859.212
10/17/2014  12:08:00       26.958        5.962        7.100       20.788       23.859       24.129      432.146      569.272      582.209        0.120        0.079       27.610        7.479        0.073      341.556       16.351      859.210
10/17/2014  12:09:00        1.466       -5.623       16.407       30.030       25.066       18.110      901.787      628.318      327.977        0.108        0.093        5.811       17.552        9.122      341.929       16.983      859.196
10/17/2014  12:10:00       22.237       12.313       34.571       32.030       37.685       20.598     1025.909     1420.130      424.270        0.236        0.144       25.419        9.435        0.138      342.171       17.394      859.187
10/17/2014  12:11:00       47.808      -51.793        5.910       46.617       66.344       34.585     2173.165     4401.502     1196.102        0.639        0.389       70.485       37.572        0.284      341.992       17.091      859.187
10/17/2014  12:12:00        3.440       12.132       33.867       27.039       36.427       20.410      731.115     1326.919      416.567        0.189        0.124       12.610       15.224        1.458      342.164       17.382      859.170
10/17/2014  12:13:00       21.530       14.913       48.289       42.225       44.073       21.161     1782.938     1942.415      447.780        0.359        0.209       26.191       18.841        0.518      342.095       17.265      859.173
10/17/2014  12:14:00       86.296       52.436        7.867       33.519       32.649       33.945     1123.495     1065.954     1152.281        0.680        0.167      100.978       17.570        0.030      341.903       16.939      859.162
10/17/2014  12:15:00       40.990       19.496       30.569       53.822       45.665       34.443     2896.779     2085.289     1186.324        0.458        0.308       45.391       21.111        0.216      342.173       17.397      859.145
10/17/2014  12:16:00       76.627       43.095       31.573       55.119       47.613       39.156     3038.157     2266.987     1533.176        0.778        0.342       87.914       23.689        0.073      342.111       17.291      859.143
10/17/2014  12:17:00       93.229       70.820       43.215       71.998       48.137       52.854     5183.727     2317.160     2793.529        1.293        0.515      117.078       49.333        0.178      341.956       17.030      859.134
10/17/2014  12:18:00       76.423       32.140       19.563       65.686       76.642       38.393     4314.629     5873.995     1474.030        0.946        0.583       82.906       29.815        0.129      342.106       17.283      859.140
10/17/2014  12:19:00      121.608       82.734       24.023       56.296       36.045       35.745     3169.227     1299.268     1277.697        1.398        0.287      147.083       28.183        0.037      341.792       16.750      859.141
10/17/2014  12:20:00       67.215       63.781       23.764       31.004       29.131       27.436      961.219      848.641      752.710        0.586        0.128       92.660       16.552        0.032      341.660       16.528      859.140
10/17/2014  12:21:00       97.884       57.417       19.731       28.871       26.400       24.383      833.562      696.980      594.519        0.770        0.106      113.481        6.690        0.003      341.722       16.632      859.135
10/17/2014  12:22:00       66.645       32.547       -7.538       35.446       26.020       19.272     1256.416      677.026      371.418        0.393        0.115       74.168        9.164        0.015      341.817       16.792      859.112
10/17/2014  12:23:00       43.118       31.690       21.921       59.482       52.646       33.526     3538.133     2771.570     1123.970        0.539        0.372       53.511       11.293        0.045      341.992       17.089      859.078
10/17/2014  12:24:00       60.483       11.698        7.221       52.331       53.609       31.530     2738.515     2873.887      994.125        0.523        0.330       61.604       28.696        0.217      342.057       17.200      859.048
10/17/2014  12:25:00      107.205       65.014       48.466       57.982       42.268       43.304     3361.863     1786.584     1875.203        1.255        0.351      125.379       29.717        0.056      341.825       16.807      859.026
10/17/2014  12:26:00       89.780       51.434       54.609       63.300       38.411       42.382     4006.843     1475.410     1796.197        1.048        0.364      103.469       32.039        0.096      341.845       16.840      859.016
10/17/2014  12:27:00       29.803      -10.193       16.861       53.975       32.560       33.315     2913.268     1060.173     1109.895        0.318        0.254       31.498       26.090        0.686      341.772       16.717      859.024
10/17/2014  12:28:00       52.174      -68.392       14.210       57.926      108.293       59.072     3355.429    11727.413     3489.480        1.308        0.929       86.021       72.374        0.708      341.694       16.584      859.023
10/17/2014  12:29:00       45.451      -82.556      -10.507       43.031       45.184       33.856     1851.677     2041.556     1146.254        0.701        0.252       94.241       23.507        0.062      341.839       16.829      859.017
10/17/2014  12:30:00       36.035      -58.989        1.856       35.442       55.431       41.382     1256.143     3072.626     1712.445        0.541        0.302       69.125       32.773        0.225      342.004       17.111      859.007
10/17/2014  12:31:00       33.596      -89.411        4.119       41.053       39.025       35.197     1685.363     1522.914     1238.837        0.679        0.222       95.515       18.690        0.038      341.632       16.480      858.999
10/17/2014  12:32:00       39.781      -68.858       -2.199       40.108       56.167       31.706     1608.665     3154.744     1005.273        0.605        0.288       79.523       19.429        0.060      341.732       16.647      858.978
10/17/2014  12:33:00       21.755      -37.270       14.320       33.433       49.951       33.538     1117.745     2495.120     1124.787        0.340        0.237       43.155       15.767        0.133      341.894       16.924      858.952
10/17/2014  12:34:00       82.923      -54.552       16.790       59.152       58.798       47.594     3498.906     3457.170     2265.186        0.968        0.461       99.258       40.012        0.163      341.842       16.836      858.939
10/17/2014  12:35:00       24.073        1.322       43.095       31.050       32.888       22.544      964.102     1081.618      508.225        0.250        0.128       24.110       16.130        0.448      342.073       17.227      858.932
10/17/2014  12:36:00       47.952       60.995       62.988       47.798       44.564       35.616     2284.693     1985.940     1268.475        0.776        0.277       77.587       10.799        0.019      341.978       17.067      858.934
10/17/2014  12:37:00       68.884       62.981       54.179       61.606       47.091       42.506     3795.282     2217.525     1806.751        0.973        0.391       93.336       27.400        0.086      342.086       17.250      858.923
10/17/2014  12:38:00       20.597       45.654       76.125       39.011       36.716       34.108     1521.856     1348.078     1163.386        0.617        0.202       50.085       29.276        0.342      341.988       17.084      858.916
10/17/2014  12:39:00       81.145      -28.753       13.706       72.099       42.011       35.936     5198.254     1764.908     1291.396        0.793        0.413       86.088       32.826        0.145      341.797       16.758      858.892
10/17/2014  12:40:00       20.350       -7.389       36.044       41.214       53.831       22.681     1698.560     2897.813      514.427        0.344        0.256       21.649       29.729        1.886      342.277       17.573      858.863
10/17/2014  12:41:00       73.679       79.151       57.515       72.531       46.127       44.201     5260.719     2127.700     1953.729        1.217        0.467      108.136       39.293        0.132      342.253       17.533      858.851
10/17/2014  12:42:00       80.684       66.484       30.999       52.111       39.298       37.751     2715.607     1544.300     1425.104        0.879        0.284      104.547       18.240        0.030      342.170       17.393      858.849
10/17/2014  12:43:00       24.200      106.674      -22.037       49.047       36.064       27.140     2405.595     1300.611      736.557        0.845        0.222      109.385       20.539        0.035      342.018       17.134      858.853
10/17/2014  12:44:00        2.200       53.023       -7.949       21.252       33.174       14.777      451.662     1100.490      218.360        0.232        0.089       53.068       17.819        0.113      342.118       17.302      858.850
10/17/2014  12:45:00       63.945       64.936       72.437       70.021       67.494       67.904     4903.000     4555.496     4610.892        1.381        0.703       91.135       62.122        0.465      342.267       17.556      858.847
10/17/2014  12:46:00       82.034       78.282       86.096       78.347       68.229       60.196     6138.318     4655.134     3623.499        1.734        0.721      113.392       49.160        0.188      342.011       17.120      858.840
10/17/2014  12:47:00      129.633       81.419       65.289       74.457       54.358       55.258     5543.885     2954.804     3053.482        1.962        0.578      153.080       39.674        0.067      341.981       17.071      858.840
10/17/2014  12:48:00      103.161       67.780       36.402       69.301       62.640       46.399     4802.617     3923.717     2152.884        1.372        0.544      123.436       36.994        0.090      342.079       17.237      858.829
10/17/2014  12:49:00       18.504      -26.376       15.044       33.996       45.555       22.997     1155.755     2075.249      528.864        0.251        0.188       32.219       21.008        0.425      341.910       16.951      858.828
10/17/2014  12:50:00       38.683      -10.447        2.131       33.601       38.493       23.278     1129.003     1481.693      541.855        0.238        0.158       40.069       16.320        0.166      341.979       17.069      858.815
10/17/2014  12:51:00       57.462       50.860       27.068       54.085       47.550       35.603     2925.186     2260.973     1267.573        0.654        0.323       76.738       23.742        0.096      342.415       17.809      858.804
10/17/2014  12:52:00      101.821       76.411        8.130       52.385       47.695       33.938     2744.190     2274.854     1151.811        1.122        0.309      127.304       23.180        0.033      342.489       17.933      858.793
10/17/2014  12:53:00       83.058       52.611       23.299       61.750       45.022       40.808     3813.122     2026.995     1665.322        0.886        0.375       98.318       24.883        0.064      342.664       18.231      858.785
10/17/2014  12:54:00       30.605        8.020       11.413       66.934       41.937       32.984     4480.138     1758.750     1087.964        0.423        0.366       31.638       25.570        0.653      342.658       18.222      858.766
10/17/2014  12:55:00      -24.991       -4.918       48.200       51.447       51.278       39.093     2646.799     2629.429     1528.286        0.489        0.340       25.470       29.814        1.370      343.043       18.877      858.767
10/17/2014  12:56:00       54.911      -17.901       29.945       76.125       82.394       43.953     5794.978     6788.751     1931.826        0.937        0.726       57.755       45.584        0.623      342.586       18.102      858.767
10/17/2014  12:57:00       63.746       -0.344       56.693       72.495       67.340       51.980     5255.586     4534.722     2701.886        0.988        0.625       63.747       47.732        0.561      342.610       18.140      858.747
10/17/2014  12:58:00       51.641      -12.451       47.087       61.135       78.911       56.286     3737.501     6226.953     3168.152        0.908        0.657       53.120       60.524        1.298      342.562       18.060      858.721
10/17/2014  12:59:00       43.840      -10.722       42.507       48.926       66.266       48.223     2393.712     4391.128     2325.459        0.648        0.456       45.132       34.650        0.589      342.785       18.438      858.704
10/17/2014  13:00:00       49.238      -67.282        9.623       31.855       57.409       34.026     1014.762     3295.744     1157.766        0.626        0.273       83.375       32.713        0.154      342.220       17.476      858.694
10/17/2014  13:01:00       65.358       27.622       37.178       56.367       60.638       46.809     3177.229     3676.939     2191.041        0.773        0.452       70.955       38.600        0.296      342.375       17.740      858.679
10/17/2014  13:02:00       25.280       13.066       40.225       28.875       37.980       32.371      833.737     1442.449     1047.853        0.288        0.166       28.457       28.098        0.975      342.674       18.249      858.689
10/17/2014  13:03:00       56.626       67.816       62.528       59.899       58.699       61.152     3587.842     3445.630     3739.532        1.124        0.539       88.349       53.361        0.365      342.111       17.291      858.685
10/17/2014  13:04:00       32.150      -16.685        4.609       39.861       69.640       35.089     1588.936     4849.711     1231.252        0.450        0.383       36.222       29.308        0.655      342.421       17.817      858.680
10/17/2014  13:05:00       42.043      -88.486        2.141       43.006       60.263       39.052     1849.517     3631.641     1525.027        0.830        0.350       97.966       39.555        0.163      342.476       17.913      858.664
10/17/2014  13:06:00       44.752     -123.199      -16.607       41.046       41.033       33.218     1684.757     1683.701     1103.419        1.096        0.224      131.075       14.980        0.013      342.735       18.353      858.639
10/17/2014  13:07:00       61.768     -104.608        6.165       55.753       68.350       44.287     3108.394     4671.791     1961.318        1.227        0.487      121.483       35.117        0.084      342.782       18.431      858.617
10/17/2014  13:08:00      111.321     -135.509      -30.031       42.030       49.961       26.089     1766.484     2496.079      680.635        1.830        0.247      175.371       14.924        0.007      342.452       17.870      858.591
10/17/2014  13:09:00       49.383      -25.256       42.505       54.580       59.277       49.651     2979.014     3513.812     2465.188        0.692        0.448       55.467       41.125        0.550      343.019       18.836      858.579
10/17/2014  13:10:00       80.091      -63.645       17.587       55.285       87.711       41.880     3056.463     7693.226     1753.901        1.164        0.625      102.300       47.036        0.211      342.727       18.340      858.562
10/17/2014  13:11:00        4.761      -78.940       13.430       34.805       61.510       32.361     1211.356     3783.532     1047.227        0.624        0.302       79.083       21.900        0.077      343.092       18.959      858.544
10/17/2014  13:12:00       54.131      -27.817        9.778       49.570       62.726       49.058     2457.136     3934.550     2406.688        0.630        0.440       60.861       46.339        0.580      342.876       18.593      858.530
10/17/2014  13:13:00       56.338       50.602       54.291       73.625       51.624       38.023     5420.578     2665.051     1445.767        0.911        0.477       75.727       36.505        0.232      342.966       18.745      858.491
10/17/2014  13:14:00       80.727       21.364       55.836       88.040       72.457       54.730     7750.982     5249.948     2995.353        1.304        0.800       83.506       51.352        0.378      342.985       18.779      858.477
10/17/2014  13:15:00       69.445       54.526       26.645       58.376       49.413       42.188     3407.754     2441.691     1779.859        0.807        0.381       88.293       31.116        0.124      342.773       18.416      858.456
10/17/2014  13:16:00       57.197      104.954      106.297       82.229       83.829       62.044     6761.572     7027.274     3849.479        2.161        0.882      119.528       51.409        0.185      342.680       18.258      858.445
10/17/2014  13:17:00      217.896      138.445       59.805       72.984       69.143       66.659     5326.593     4780.731     4443.401        4.238        0.728      258.159       45.088        0.031      342.397       17.773      858.445
10/17/2014  13:18:00      142.850      108.849       22.881       65.252       40.831       44.264     4257.859     1667.181     1959.336        2.033        0.394      179.595       21.172        0.014      342.490       17.933      858.442
10/17/2014  13:19:00       79.217       30.642       42.099       71.205       58.919       36.611     5070.156     3471.486     1340.367        0.943        0.494       84.937       30.222        0.127      342.574       18.079      858.421
10/17/2014  13:20:00       81.557      -52.064       40.637       76.118       76.470       53.708     5793.911     5847.699     2884.506        1.277        0.726       96.758       46.237        0.228      342.468       17.897      858.395
10/17/2014  13:21:00       32.352      -44.846       19.785       39.213       52.091       30.527     1537.658     2713.449      931.926        0.432        0.259       55.298       28.927        0.274      342.662       18.228      858.368
10/17/2014  13:22:00       58.521      -29.955       44.200       68.178       89.507       54.457     4648.189     8011.491     2965.521        1.095        0.781       65.742       50.758        0.596      342.671       18.244      858.344
10/17/2014  13:23:00      106.351       65.899       15.562       70.105       48.254       27.886     4914.718     2328.482      777.604        1.196        0.401      125.112       19.842        0.025      342.528       17.999      858.332
10/17/2014  13:24:00       43.173      -12.894       23.110       56.470       77.090       43.071     3188.916     5942.827     1855.119        0.677        0.549       45.057       42.276        0.880      342.404       17.791      858.312
10/17/2014  13:25:00       47.190      -62.846       12.107       65.348       93.170       39.297     4270.330     8680.739     1544.255        1.041        0.725       78.591       34.962        0.198      342.743       18.367      858.309
10/17/2014  13:26:00       94.815      -69.962       19.602       65.048       64.430       63.777     4231.272     4151.256     4067.466        1.336        0.622      117.833       36.410        0.095      342.793       18.452      858.309
10/17/2014  13:27:00       27.286      -70.947        6.682       30.251       42.250       37.228      915.105     1785.102     1385.926        0.495        0.204       76.013       24.553        0.104      342.660       18.226      858.310
10/17/2014  13:28:00       71.369       52.847       43.174       83.202       62.473       56.963     6922.601     3902.933     3244.799        1.191        0.704       88.805       47.716        0.289      342.792       18.450      858.298
10/17/2014  13:29:00       28.670       52.783       70.150       63.680       43.683       39.088     4055.157     1908.197     1527.893        0.801        0.375       60.066       34.151        0.323      342.745       18.369      858.294
10/17/2014  13:30:00       36.017       70.568       48.981       41.764       50.705       48.297     1744.252     2571.002     2332.638        0.766        0.332       79.228       28.295        0.128      342.842       18.534      858.293
10/17/2014  13:31:00       41.190       31.211       52.297       47.023       70.158       31.687     2211.180     4922.082     1004.071        0.677        0.407       51.679       37.725        0.533      342.663       18.229      858.285
10/17/2014  13:32:00       12.974      -19.462       -2.081       25.335       39.062       27.083      641.869     1525.818      733.494        0.173        0.145       23.390       15.213        0.423      342.674       18.249      858.277
10/17/2014  13:33:00       59.964       76.621       89.759       76.345       81.466       61.366     5828.633     6636.660     3765.733        1.687        0.812       97.296       51.265        0.278      342.780       18.428      858.261
10/17/2014  13:34:00       94.266      -85.367       -0.439       50.153       50.872       35.274     2515.321     2587.985     1244.226        1.126        0.317      127.175       37.934        0.089      342.566       18.065      858.252
10/17/2014  13:35:00       28.399      -76.535       14.388       48.755       51.449       42.596     2377.089     2647.000     1814.446        0.685        0.342       81.634       28.133        0.119      342.840       18.533      858.240
10/17/2014  13:36:00       29.262      -28.588       30.515       46.206       66.459       41.718     2135.008     4416.738     1740.350        0.545        0.415       40.909       43.064        1.108      342.686       18.268      858.231
10/17/2014  13:37:00       28.832     -107.205      -18.751       39.142       31.987       29.958     1532.129     1023.168      897.507        0.806        0.173      111.015       19.354        0.030      342.848       18.545      858.220
10/17/2014  13:38:00       61.001      -70.232       36.582       67.264       78.992       51.022     4524.401     6239.702     2603.280        1.168        0.668       93.025       47.750        0.263      342.947       18.713      858.192
10/17/2014  13:39:00       67.887      -80.127       19.117       90.678      102.855       60.196     8222.420    10579.050     3623.512        1.691        1.121      105.019       67.135        0.409      342.892       18.619      858.194
10/17/2014  13:40:00      138.355      -92.688       18.642       98.228      123.471       60.825     9648.663    15245.049     3699.706        2.833        1.430      166.533       58.016        0.121      342.988       18.782      858.187
10/17/2014  13:41:00      106.550       -0.227       82.653       77.208      101.080       70.838     5961.020    10217.193     5017.997        1.969        1.060      106.550       76.746        0.519      342.746       18.369      858.217
10/17/2014  13:42:00       56.537       23.835       51.965       54.582       69.441       39.602     2979.141     4821.985     1568.345        0.792        0.468       61.356       39.633        0.417      342.668       18.238      858.230
10/17/2014  13:43:00       69.123       62.227       69.590       54.206       42.710       31.083     2938.338     1824.159      966.171        0.961        0.286       93.006       14.420        0.024      342.768       18.409      858.241
10/17/2014  13:44:00       59.477       35.119       48.029       58.301       53.596       39.030     3399.053     2872.582     1523.375        0.744        0.390       69.071       40.524        0.344      342.688       18.274      858.235
10/17/2014  13:45:00       55.447       54.525       56.837       52.379       44.835       40.210     2743.588     2010.173     1616.872        0.782        0.319       77.765       30.573        0.155      342.661       18.226      858.210
10/17/2014  13:46:00       64.266      -16.616       37.100       54.523      102.176       50.714     2972.785    10439.871     2571.957        1.088        0.799       66.380       62.804        0.895      342.739       18.360      858.191
10/17/2014  13:47:00       27.285      -44.698       22.464       51.080       70.430       30.844     2609.188     4960.417      951.340        0.588        0.426       52.368       31.394        0.359      342.985       18.778      858.176
10/17/2014  13:48:00       75.980       52.498       71.921       46.007       71.206       40.460     2116.679     5070.290     1637.047        1.126        0.441       92.352       33.746        0.134      343.065       18.914      858.180
10/17/2014  13:49:00      115.982       70.567       34.084       79.977       53.986       36.418     6396.298     2914.526     1326.304        1.511        0.532      135.763       33.139        0.060      342.690       18.276      858.184
10/17/2014  13:50:00       12.235       24.064       54.370       26.879       49.533       28.405      722.501     2453.530      806.871        0.383        0.199       26.995       32.403        1.441      342.532       18.008      858.178
10/17/2014  13:51:00       91.254       63.657       26.419       44.552       38.554       36.884     1984.839     1486.404     1360.443        0.895        0.242      111.264       19.289        0.030      342.743       18.366      858.164
10/17/2014  13:52:00       54.529       35.252       39.152       53.404       37.121       18.453     2851.985     1377.988      340.527        0.516        0.229       64.932       22.421        0.119      343.012       18.825      858.151
10/17/2014  13:53:00       52.238       69.725       76.870       55.746       49.732       41.021     3107.599     2473.227     1682.707        1.038        0.363       87.123       29.191        0.112      342.849       18.545      858.136
10/17/2014  13:54:00       16.543       59.078       76.712       55.609       54.232       42.983     3092.327     2941.122     1847.508        0.876        0.394       61.351       28.851        0.221      342.807       18.476      858.122
10/17/2014  13:55:00       22.242       -9.087       44.038       36.823       58.427       33.280     1355.934     3413.672     1107.567        0.420        0.294       24.027       24.531        1.042      342.871       18.585      858.122
10/17/2014  13:56:00       58.372       13.568       54.402       54.136       76.558       40.488     2930.725     5861.129     1639.299        0.849        0.522       59.928       43.276        0.521      342.665       18.234      858.095
10/17/2014  13:57:00       49.765      -16.573       14.222       52.248       31.628       30.646     2729.894     1000.355      939.186        0.381        0.233       52.452       25.212        0.231      342.662       18.228      858.082
10/17/2014  13:58:00       68.392       61.617       58.895       69.565       52.661       46.036     4839.292     2773.205     2119.278        1.084        0.487       92.055       40.069        0.189      342.736       18.355      858.066
10/17/2014  13:59:00      112.725       22.834       22.187       54.218       70.768       53.371     2939.610     5008.125     2848.436        1.226        0.540      115.015       54.459        0.224      342.741       18.362      858.055
10/17/2014  14:00:00       50.321       27.119       34.536       35.121       58.686       51.672     1233.467     3444.041     2669.979        0.590        0.367       57.163       36.200        0.401      342.861       18.567      858.039
10/17/2014  14:01:00       33.751       83.748       82.514       63.164       53.467       39.726     3989.644     2858.683     1578.184        1.169        0.421       90.293       36.349        0.162      342.958       18.731      858.040
10/17/2014  14:02:00       96.037       68.459       80.368       75.022       56.316       40.881     5628.239     3171.500     1671.232        1.542        0.524      117.940       40.804        0.120      342.706       18.303      858.040
10/17/2014  14:03:00       40.444       26.469       59.088       48.444       47.957       30.073     2346.823     2299.906      904.375        0.569        0.278       48.335       24.030        0.247      342.738       18.357      858.039
10/17/2014  14:04:00       25.414       52.842       64.691       43.783       44.072       37.486     1916.929     1942.362     1405.168        0.644        0.263       58.636       31.702        0.292      342.773       18.416      858.033
10/17/2014  14:05:00       50.167       89.852       88.928       68.118       51.848       44.626     4640.116     2688.177     1991.510        1.391        0.466      102.908       36.470        0.126      342.784       18.435      858.022
10/17/2014  14:06:00      167.133      105.329       61.933       81.910       57.032       50.480     6709.168     3252.635     2548.257        2.768        0.626      197.554       33.856        0.029      342.825       18.501      858.015
10/17/2014  14:07:00      117.634       47.715       26.721       73.894       83.965       47.057     5460.252     7050.205     2214.377        1.577        0.736      126.943       25.752        0.041      342.868       18.578      858.020
10/17/2014  14:08:00      147.286       77.505       31.228       44.806       40.536       35.908     2007.616     1643.158     1289.413        1.681        0.247      166.434       28.860        0.030      343.002       18.806      858.028
10/17/2014  14:09:00       72.933       49.519       37.267       76.528       47.709       42.429     5856.608     2276.138     1800.225        0.954        0.497       88.155       44.106        0.250      342.873       18.589      858.031
10/17/2014  14:10:00       46.429       42.741       33.250       40.527       39.202       22.602     1642.442     1536.772      510.828        0.439        0.185       63.106       11.512        0.033      342.899       18.631      858.030
10/17/2014  14:11:00       97.295       67.286       27.771       47.774       28.753       36.555     2282.312      826.750     1336.275        0.960        0.222      118.295       18.613        0.025      342.988       18.783      858.028
10/17/2014  14:12:00       46.629       43.652       16.001       31.948       25.101       34.657     1020.702      630.069     1201.083        0.359        0.143       63.873       19.119        0.090      342.951       18.720      858.028
10/17/2014  14:13:00       97.156       57.710       55.591       44.673       60.282       36.413     1995.678     3633.893     1325.898        1.141        0.348      113.003       31.138        0.076      342.956       18.728      858.019
10/17/2014  14:14:00       17.339       -5.201       38.299       41.783       44.443       35.351     1745.859     1975.157     1249.665        0.338        0.249       18.103       27.623        2.328      342.918       18.664      858.003
10/17/2014  14:15:00       47.289       15.970       36.645       81.669       36.068       31.948     6669.890     1300.907     1020.670        0.641        0.450       49.912       32.107        0.414      342.817       18.494      858.010
10/17/2014  14:16:00       67.679       69.154       20.635       43.634       43.776       39.078     1903.938     1916.309     1527.080        0.757        0.267       96.761       22.305        0.053      342.964       18.743      858.018
10/17/2014  14:17:00       53.386        9.523        9.540       36.268       40.357       24.251     1315.348     1628.697      588.127        0.328        0.177       54.229       21.666        0.160      342.947       18.713      858.022
10/17/2014  14:18:00       89.772       41.630       21.628       41.891       46.601       37.992     1754.860     2171.689     1443.412        0.781        0.268       98.955       21.672        0.048      343.124       19.016      858.024
10/17/2014  14:19:00       20.193       52.871       38.215       31.858       39.998       43.254     1014.917     1599.841     1870.902        0.457        0.224       56.596       27.641        0.239      343.000       18.805      858.004
10/17/2014  14:20:00       27.073       35.518       42.693       39.376       52.090       43.859     1550.459     2713.398     1923.641        0.500        0.309       44.660       36.113        0.654      343.030       18.854      857.999
10/17/2014  14:21:00       -7.178       23.111       52.276       27.902       41.985       26.637      778.510     1762.737      709.534        0.328        0.163       24.200       28.196        1.358      343.116       19.002      857.991
10/17/2014  14:22:00       10.610      -10.568       38.796       31.512       49.220       28.013      993.008     2422.622      784.703        0.296        0.210       14.975       21.355        2.034      342.950       18.719      857.980
10/17/2014  14:23:00       28.574      -11.148       32.371       28.422       45.916       28.305      807.820     2108.320      801.186        0.285        0.186       30.672       21.331        0.484      343.016       18.830      857.978
10/17/2014  14:24:00        7.204        1.400        9.578       20.355       19.317       27.464      414.322      373.157      754.265        0.084        0.077        7.339       12.039        2.691      342.916       18.660      857.981
10/17/2014  14:25:00       13.868      -12.226        6.163       30.323       29.816       22.109      919.465      889.009      488.820        0.134        0.115       18.488       15.147        0.671      342.823       18.502      857.981
10/17/2014  14:26:00       25.541       47.982       55.806       47.288       55.726       44.110     2236.195     3105.373     1945.690        0.668        0.364       54.356       38.097        0.491      342.871       18.584      857.980
10/17/2014  14:27:00       60.286       51.757       26.913       47.403       32.349       35.322     2247.033     1046.439     1247.647        0.579        0.227       79.455       19.504        0.060      343.061       18.907      857.982
10/17/2014  14:28:00       59.952       27.209       11.418       29.643       42.456       25.582      878.725     1802.512      654.434        0.390        0.167       65.838       10.948        0.028      343.216       19.172      857.976
10/17/2014  14:29:00       17.498      -29.005       13.480       33.194       48.780       23.827     1101.810     2379.456      567.741        0.269        0.202       33.875       22.558        0.443      342.973       18.757      857.977
10/17/2014  14:30:00       39.011       17.270       25.220       37.523       50.481       32.419     1407.975     2548.361     1051.003        0.373        0.250       42.663       24.639        0.334      343.038       18.869      857.980
10/17/2014  14:31:00       71.150       32.946       44.660       45.670       64.955       36.890     2085.736     4219.087     1360.860        0.790        0.383       78.408       35.575        0.206      342.976       18.764      857.984
10/17/2014  14:32:00       19.587        1.238        5.974       25.045       39.177       28.592      627.261     1534.832      817.474        0.170        0.149       19.626        9.724        0.245      342.822       18.500      857.994
10/17/2014  14:33:00       42.434      -11.411        0.429       37.148       29.685       20.241     1379.979      881.179      409.679        0.230        0.134       43.941       12.949        0.087      342.774       18.420      857.996
10/17/2014  14:34:00       36.453       -6.203        5.850       36.016       41.368       21.177     1297.169     1711.288      448.457        0.243        0.173       36.977       13.619        0.136      342.458       17.883      858.000
10/17/2014  14:35:00       24.021       -7.382       -3.005       30.896       45.415       27.117      954.579     2062.517      735.342        0.220        0.188       25.130       28.308        1.269      342.645       18.198      857.997
10/17/2014  14:36:00       52.469       36.311       15.732       24.969       25.851       22.387      623.438      668.266      501.180        0.306        0.090       63.808       11.442        0.032      342.871       18.584      858.007
10/17/2014  14:37:00       14.574       20.861       14.131       22.730       19.689       16.205      516.664      387.666      262.613        0.101        0.058       25.447       10.037        0.156      343.221       19.180      858.021
10/17/2014  14:38:00       15.206       41.097        2.031       21.415       34.045       17.909      458.594     1159.094      320.750        0.193        0.097       43.820       21.329        0.237      343.205       19.153      858.039
10/17/2014  14:39:00       11.565        8.669       22.293       18.761       10.373       11.624      351.987      107.605      135.111        0.065        0.030       14.454        7.955        0.303      343.252       19.233      858.057
10/17/2014  14:40:00      -12.010       13.982       11.455       14.155       16.995       15.504      200.377      288.816      240.389        0.060        0.036       18.432        7.595        0.170      342.790       18.446      858.072
10/17/2014  14:41:00     -107.713       88.366      -23.498       31.761       27.328       18.892     1008.768      746.826      356.901        1.104        0.106      139.322       18.701        0.018      343.151       19.062      858.082
10/17/2014  14:42:00     -108.103       87.699      -29.781       31.231       25.778       18.445      975.395      664.525      340.203        1.112        0.099      139.203       13.283        0.009      343.153       19.063      858.083
10/17/2014  14:43:00      -17.555       11.084       -4.393       17.936       19.902       12.728      321.714      396.078      162.013        0.066        0.044       20.761       12.669        0.372      343.271       19.265      858.070
10/17/2014  14:44:00       -9.427        0.621       13.828       16.989       16.864       13.945      288.624      284.388      194.453        0.052        0.038        9.447       11.436        1.465      343.110       18.991      858.047
10/17/2014  14:45:00      -14.626       24.180       -1.049       13.334       16.783        8.169      177.807      281.665       66.735        0.066        0.026       28.260        5.856        0.043      343.078       18.936      858.036
10/17/2014  14:46:00      -35.693       42.091       -3.263       26.692       33.384       18.659      712.458     1114.476      348.156        0.262        0.109       55.187       16.866        0.093      343.280       19.282      858.021
10/17/2014  14:47:00      -79.697      150.585      -16.797       55.212       64.013       29.768     3048.409     4097.651      886.133        1.867        0.402      170.375       23.097        0.018      343.229       19.191      857.997
10/17/2014  14:48:00     -108.572       69.880      -18.045       39.480       36.516       28.531     1558.668     1333.406      814.037        1.035        0.185      129.117       26.553        0.042      343.240       19.212      857.992
10/17/2014  14:49:00      -65.605       81.391      -10.401       30.241       38.601       24.083      914.504     1490.005      579.989        0.701        0.149      104.539       19.634        0.035      343.336       19.374      858.003
10/17/2014  14:50:00      -46.788      118.512      -16.245       24.570       49.135       23.709      603.684     2414.231      562.127        1.004        0.179      127.414       15.332        0.014      343.379       19.449      858.022
10/17/2014  14:51:00      -72.997       44.699        3.087       73.447       38.697       33.375     5394.506     1497.432     1113.909        0.767        0.400       85.596       34.707        0.164      343.439       19.551      858.055
10/17/2014  14:52:00     -108.247       82.235      -25.788       65.076       51.593       28.896     4234.844     2661.804      834.973        1.344        0.387      135.941       34.112        0.063      343.362       19.420      858.078
10/17/2014  14:53:00     -142.108       88.649      -20.617       61.236       50.148       31.188     3749.870     2514.778      972.683        1.786        0.362      167.492       22.695        0.018      343.276       19.273      858.089
10/17/2014  14:54:00     -122.083      144.968      -15.611       67.889       69.202       45.923     4608.910     4788.867     2108.897        2.383        0.575      189.525       37.750        0.040      343.358       19.411      858.098
10/17/2014  14:55:00     -116.261      166.784      -29.472       72.401       94.101       50.234     5241.867     8855.082     2523.484        2.941        0.831      203.306       53.976        0.070      343.320       19.346      858.093
10/17/2014  14:56:00     -130.562        7.563       -0.227       66.876      104.247       51.617     4472.426    10867.380     2664.283        1.755        0.900      130.781       39.865        0.093      343.322       19.351      858.079
10/17/2014  14:57:00      -87.569       24.677        1.433      100.635       58.087       39.238    10127.439     3374.070     1539.629        1.166        0.752       90.979       34.856        0.147      343.367       19.426      858.047
10/17/2014  14:58:00      -15.939       -3.403        5.936       49.296       52.873       42.054     2430.135     2795.599     1768.549        0.365        0.350       16.299       11.036        0.458      343.439       19.551      858.046
10/17/2014  14:59:00     -119.807       13.178       -8.669       58.789      109.167       36.374     3456.144    11917.350     1323.096        1.565        0.835      120.529       33.744        0.078      343.301       19.315      858.023
10/17/2014  15:00:00      -61.364       61.697        8.124       48.113       76.470       47.743     2314.815     5847.618     2279.429        0.904        0.522       87.017       39.924        0.211      343.377       19.444      858.004
10/17/2014  15:01:00     -158.486      186.308      -37.197       95.354      103.528       53.310     9092.413    10718.078     2841.964        4.193        1.133      244.599       59.289        0.059      343.249       19.225      858.008
10/17/2014  15:02:00     -204.418      227.377      -41.673      105.292       84.413       61.045    11086.484     7125.557     3726.486        5.858        1.097      305.757       64.451        0.044      343.196       19.133      858.013
10/17/2014  15:03:00     -147.222      180.549      -28.757       54.057       61.707       33.583     2922.111     3807.743     1127.821        3.148        0.393      232.964       28.726        0.015      343.277       19.273      858.008
10/17/2014  15:04:00     -161.841       19.267      -20.285       80.068       96.331       53.230     6410.925     9279.726     2833.396        2.275        0.926      162.984       43.322        0.071      343.299       19.311      857.997
10/17/2014  15:05:00     -171.030       55.467      -24.519       96.195       91.110       54.861     9253.458     8300.988     3009.768        2.674        1.028      179.799       49.977        0.077      343.285       19.286      858.000
10/17/2014  15:06:00      -37.679       84.814       11.535       45.736       76.278       38.156     2091.762     5818.394     1455.879        0.905        0.468       92.807       44.073        0.226      343.471       19.605      858.000
10/17/2014  15:07:00     -133.154      111.303      -29.106       79.006       68.564       45.905     6242.011     4701.035     2107.231        2.201        0.653      173.546       53.817        0.096      343.376       19.443      857.991
10/17/2014  15:08:00      -78.055      156.532      -10.018       80.144       98.084       47.066     6423.031     9620.454     2215.229        2.447        0.913      174.914       53.790        0.095      343.423       19.521      857.989
10/17/2014  15:09:00     -135.265      203.191      -27.367       89.051       94.864       51.919     7930.042     8999.247     2695.619        3.998        0.981      244.097       50.974        0.044      343.359       19.412      858.003
10/17/2014  15:10:00     -181.097      231.174      -43.619       61.919      107.320       49.175     3833.919    11517.665     2418.189        5.295        0.888      293.662       40.632        0.019      343.306       19.321      858.008
10/17/2014  15:11:00     -135.034      156.431      -31.867       78.427       78.901       43.362     6150.836     6225.369     1880.275        2.899        0.713      206.651       48.497        0.055      343.396       19.477      858.012
10/17/2014  15:12:00     -193.019      181.579      -46.350       99.057       98.105       56.016     9812.330     9624.571     3137.771        4.747        1.129      265.005       62.524        0.056      343.365       19.421      858.015
10/17/2014  15:13:00     -234.987      235.889      -57.733       91.580      128.320       52.586     8386.964    16466.058     2765.256        7.090        1.381      332.960       44.863        0.018      343.360       19.411      858.005
10/17/2014  15:14:00     -167.734      273.221      -52.187       70.309       70.694       50.390     4943.399     4997.704     2539.161        5.899        0.624      320.600       35.975        0.013      343.396       19.472      858.008
10/17/2014  15:15:00     -139.140      214.398      -18.152      107.978      116.922       57.311    11659.237    13670.861     3284.606        4.713        1.431      255.590       58.826        0.053      343.495       19.643      858.011
10/17/2014  15:16:00     -141.582      218.863      -28.507       74.284       97.463       50.859     5518.136     9499.121     2586.651        4.318        0.880      260.666       46.758        0.032      343.430       19.532      858.017
10/17/2014  15:17:00     -125.890       97.750      -14.139       92.419       52.372       40.410     8541.317     2742.853     1632.942        1.926        0.646      159.385       38.815        0.059      343.534       19.713      858.011
10/17/2014  15:18:00     -163.991      171.933      -28.883       93.952       83.829       46.480     8826.992     7027.230     2160.420        3.765        0.901      237.600       49.346        0.043      343.496       19.645      858.012
10/17/2014  15:19:00     -186.894      182.337      -51.826       80.977       71.088       44.321     6557.340     5053.547     1964.328        4.222        0.679      261.106       38.849        0.022      343.394       19.472      858.008
10/17/2014  15:20:00     -120.645      113.934      -33.642       52.041       49.785       34.117     2708.257     2478.513     1163.937        1.751        0.318      165.940       33.829        0.042      343.500       19.655      857.995
10/17/2014  15:21:00     -176.476       93.067      -29.654       82.829       52.439       40.241     6860.663     2749.865     1619.324        2.596        0.561      199.513       30.490        0.023      343.454       19.574      858.003
10/17/2014  15:22:00     -122.019      234.317      -23.130       86.445      106.948       52.532     7472.685    11437.799     2759.642        4.600        1.084      264.184       45.300        0.029      343.422       19.519      858.007
10/17/2014  15:23:00      -64.691      203.878       -9.943       64.731       68.188       41.418     4190.121     4649.642     1715.473        2.820        0.528      213.895       38.203        0.032      343.467       19.596      857.999
10/17/2014  15:24:00     -147.981      101.438      -13.426       99.125       67.056       37.713     9825.767     4496.490     1422.253        2.405        0.787      179.410       42.281        0.056      343.459       19.583      858.013
10/17/2014  15:25:00     -116.218      229.968      -21.989       70.084      109.938       57.563     4911.786    12086.340     3313.444        4.359        1.016      257.666       65.159        0.064      343.384       19.455      858.034
10/17/2014  15:26:00     -105.887      208.196      -21.934       63.253      108.131       45.055     4000.951    11692.289     2029.908        3.638        0.886      233.575       37.367        0.026      343.486       19.628      858.034
10/17/2014  15:27:00     -160.598      194.252      -30.638       74.161       92.969       49.990     5499.896     8643.288     2499.029        4.055        0.832      252.042       49.923        0.039      343.457       19.578      858.046
10/17/2014  15:28:00     -151.812      159.452      -44.821       82.113       74.334       50.638     6742.466     5525.598     2564.239        3.265        0.742      220.163       44.371        0.041      343.405       19.491      858.040
10/17/2014  15:29:00     -105.462       75.896      -17.763       70.175       91.703       51.311     4924.474     8409.401     2632.833        1.658        0.798      129.932       39.989        0.095      343.437       19.547      858.032
10/17/2014  15:30:00      -84.590      108.738       -8.773       51.282       68.541       38.359     2629.894     4697.846     1471.439        1.393        0.440      137.766       30.894        0.050      343.550       19.740      858.020
10/17/2014  15:31:00      -57.998      118.397        2.531       58.827       71.601       41.062     3460.562     5126.733     1686.107        1.383        0.514      131.840       33.996        0.066      343.610       19.841      858.017
10/17/2014  15:32:00      -93.883       63.033       -9.981       69.182       46.071       34.016     4786.138     2122.576     1157.106        1.047        0.403      113.080       35.216        0.097      343.582       19.795      858.004
10/17/2014  15:33:00     -142.678      207.986      -27.160      118.292      104.319       70.671    13993.090    10882.540     4994.322        4.711        1.493      252.220       71.554        0.080      343.503       19.656      858.000
10/17/2014  15:34:00      -55.763      293.033      -31.162       56.859       95.142       47.113     3232.966     9052.085     2219.634        5.222        0.725      298.292       45.326        0.023      343.429       19.530      858.009
10/17/2014  15:35:00     -114.720      160.946      -27.600       76.880       82.144       43.207     5910.541     6747.627     1866.839        2.717        0.726      197.647       42.778        0.047      343.611       19.841      858.007
10/17/2014  15:36:00     -122.653      107.232      -10.236       94.108       78.849       54.649     8856.381     6217.198     2986.474        2.235        0.903      162.919       53.177        0.107      343.690       19.977      858.016
10/17/2014  15:37:00     -139.277      166.172      -30.431       76.520       93.971       40.321     5855.334     8830.517     1625.756        3.212        0.816      216.821       37.273        0.030      343.662       19.930      858.026
10/17/2014  15:38:00     -110.064      277.279      -37.282      110.939       97.646       56.615    12307.558     9534.818     3205.280        5.771        1.252      298.324       54.159        0.033      343.549       19.735      858.021
10/17/2014  15:39:00     -105.533      222.729      -22.572       76.420      104.464       60.021     5840.034    10912.786     3602.472        4.080        1.018      246.466       55.598        0.051      343.551       19.738      858.041
10/17/2014  15:40:00     -108.764      235.129      -27.202       72.086      103.661       43.553     5196.335    10745.700     1896.848        4.284        0.892      259.066       41.470        0.026      343.474       19.609      858.059
10/17/2014  15:41:00      -87.335      140.608      -24.657       70.996       58.258       34.141     5040.425     3393.965     1165.633        1.880        0.480      165.524       27.171        0.027      343.485       19.629      858.078
10/17/2014  15:42:00      -74.041      231.899      -24.106       60.793       95.981       49.810     3695.763     9212.422     2481.039        3.761        0.769      243.432       51.602        0.045      343.482       19.622      858.067
10/17/2014  15:43:00      -62.625      177.909      -18.480       58.293       61.204       45.168     3398.040     3745.894     2040.149        2.255        0.459      188.609       32.884        0.030      343.467       19.598      858.066
10/17/2014  15:44:00     -129.825      141.780      -37.078       84.706       65.903       43.383     7175.178     4343.202     1882.095        2.586        0.670      192.239       47.535        0.061      343.517       19.682      858.047
10/17/2014  15:45:00     -100.657      107.849      -10.354       65.828       58.419       45.156     4333.287     3412.820     2039.055        1.583        0.489      147.524       32.957        0.050      343.689       19.976      858.057
10/17/2014  15:46:00     -128.385       72.788      -23.440       70.352       78.162       38.454     4949.369     6109.347     1478.734        1.743        0.627      147.583       28.847        0.038      343.701       19.997      858.066
10/17/2014  15:47:00     -147.894      196.588      -34.396       76.564      106.852       42.221     5862.077    11417.287     1782.575        4.038        0.953      246.007       47.451        0.037      343.676       19.952      858.070
10/17/2014  15:48:00     -148.487      132.403      -23.168       69.330       51.981       38.413     4806.652     2702.057     1475.588        2.455        0.449      198.945       28.392        0.020      343.870       20.284      858.071
10/17/2014  15:49:00     -163.357      204.277      -25.361       91.534      139.652       53.733     8378.554    19502.718     2887.185        4.991        1.538      261.562       34.165        0.017      343.784       20.136      858.083
10/17/2014  15:50:00     -103.720      136.433       -7.281       71.822      103.459       52.982     5158.329    10703.721     2807.062        2.404        0.933      171.382       47.281        0.076      343.869       20.284      858.096
10/17/2014  15:51:00      -68.796      199.823      -16.722       51.241       71.580       38.854     2625.665     5123.636     1509.603        2.710        0.463      211.334       33.757        0.026      343.697       19.988      858.117
10/17/2014  15:52:00     -176.263       48.598      -17.604      129.062      158.951       58.357    16657.063    25265.569     3405.541        3.953        2.266      182.840       49.599        0.074      343.796       20.157      858.112
10/17/2014  15:53:00     -186.589       21.408      -29.759      137.238      110.340       68.195    18834.357    12174.981     4650.571        3.590        1.783      187.813       36.522        0.038      343.744       20.069      858.109
10/17/2014  15:54:00     -108.050       79.199      -20.177       70.988      108.055       52.109     5039.273    11675.824     2715.348        1.889        0.972      133.968       45.119        0.113      343.757       20.092      858.137
10/17/2014  15:55:00      -72.708       37.588        1.350       79.804       64.573       42.812     6368.652     4169.722     1832.841        0.953        0.619       81.849       31.845        0.151      343.921       20.373      858.162
10/17/2014  15:56:00     -153.716      146.945      -30.005       70.651      102.157       42.515     4991.620    10435.963     1807.526        3.168        0.862      212.653       32.992        0.024      343.692       19.979      858.172
10/17/2014  15:57:00     -125.247      167.875      -28.695       83.707      100.178       42.512     7006.824    10035.714     1807.299        3.177        0.942      209.449       40.167        0.037      343.583       19.795      858.174
10/17/2014  15:58:00     -102.162      246.407      -28.434       79.732       87.795       36.315     6357.227     7707.921     1318.796        4.367        0.769      266.746       31.245        0.014      343.443       19.554      858.141
10/17/2014  15:59:00     -156.831      216.609      -47.326       87.968       73.531       46.464     7738.435     5406.738     2158.913        4.453        0.765      267.423       42.570        0.025      343.499       19.651      858.148
10/17/2014  16:00:00     -193.478      180.533      -53.479      101.133       92.333       46.615    10227.841     8525.364     2172.914        4.690        1.046      264.624       51.648        0.038      343.413       19.503      858.155
10/17/2014  16:01:00     -109.043      174.095      -27.423       77.247       64.853       42.929     5967.041     4205.915     1842.926        2.748        0.601      205.425       32.971        0.026      343.363       19.419      858.169
10/17/2014  16:02:00      -99.471      139.324      -28.378       77.524       68.456       45.037     6009.951     4686.253     2028.320        2.142        0.636      171.189       34.555        0.041      343.417       19.512      858.157
10/17/2014  16:03:00      -68.229      262.015      -27.773       80.756       68.707       43.146     6521.568     4720.629     1861.602        4.359        0.655      270.753       40.883        0.023      343.348       19.393      858.180
10/17/2014  16:04:00     -105.931      237.140      -29.994      111.834      131.741       51.766    12506.737    17355.732     2679.679        5.044        1.627      259.725       43.089        0.028      343.320       19.345      858.185
10/17/2014  16:05:00     -188.746      188.494      -44.688       66.318       71.936       41.267     4398.058     5174.781     1702.974        4.221        0.564      266.749       39.513        0.022      343.327       19.356      858.194
10/17/2014  16:06:00     -164.925      194.733      -53.418       54.151       73.435       43.329     2932.320     5392.646     1877.410        3.909        0.510      255.188       34.299        0.018      343.345       19.386      858.202
10/17/2014  16:07:00     -231.532      222.736      -51.903       93.257      149.905       68.543     8696.917    22471.444     4698.188        7.088        1.793      321.276       56.397        0.031      343.281       19.278      858.204
10/17/2014  16:08:00     -235.130      177.122      -39.928      121.203       95.975       59.900    14690.107     9211.170     3588.014        5.787        1.374      294.378       57.276        0.038      343.313       19.331      858.214
10/17/2014  16:09:00     -156.809      108.802      -25.076      114.550       90.333       55.087    13121.592     8160.113     3034.550        3.068        1.216      190.858       49.379        0.067      343.369       19.430      858.236
10/17/2014  16:10:00     -171.051      206.594      -49.761       78.097       83.334       50.773     6099.148     6944.582     2577.860        4.502        0.781      268.215       50.021        0.035      343.388       19.460      858.241
10/17/2014  16:11:00      -95.978       92.173      -18.415       62.744       71.700       47.918     3936.810     5140.911     2296.159        1.471        0.569      133.070       35.351        0.071      343.479       19.619      858.251
10/17/2014  16:12:00     -200.066      250.021      -54.590       93.403      108.224       58.561     8724.053    11712.327     3429.338        6.469        1.193      320.214       62.421        0.038      343.364       19.420      858.257
10/17/2014  16:13:00     -149.556      151.195      -28.632       82.243      107.951       48.242     6763.953    11653.409     2327.307        3.339        1.037      212.666       51.217        0.058      343.402       19.484      858.256
10/17/2014  16:14:00     -168.114      166.186      -43.222       77.127      104.090       50.694     5948.646    10834.637     2569.855        3.855        0.968      236.390       43.581        0.034      343.386       19.458      858.249
10/17/2014  16:15:00      -58.306      269.856      -40.335       69.317       90.614       41.894     4804.871     8210.940     1755.067        4.631        0.739      276.083       33.027        0.014      343.339       19.376      858.253
10/17/2014  16:16:00     -148.524      287.683      -39.886      110.962      104.382       56.242    12312.546    10895.574     3163.132        6.639        1.319      323.761       53.321        0.027      343.349       19.394      858.268
10/17/2014  16:17:00     -144.704      238.713      -35.375       98.762      106.605       62.609     9754.020    11364.597     3919.857        5.210        1.252      279.147       58.222        0.044      343.314       19.334      858.300
10/17/2014  16:18:00      -89.728      350.284      -42.809      112.401      132.146       60.742    12633.989    17462.445     3689.610        8.318        1.689      361.593       61.628        0.029      343.222       19.178      858.295
10/17/2014  16:19:00     -215.066      349.880      -61.045      132.834      154.052       66.074    17644.971    23732.055     4365.813       10.906        2.287      410.694       76.879        0.035      343.192       19.127      858.305
10/17/2014  16:20:00     -101.953      324.837      -22.651       83.287      141.030       64.422     6936.771    19889.562     4150.138        7.370        1.549      340.460       64.948        0.036      343.101       18.973      858.293
10/17/2014  16:21:00     -191.088      294.096      -45.878       88.360      182.281       52.056     7807.449    33226.466     2709.815        8.442        2.187      350.724       59.334        0.029      343.151       19.055      858.283
10/17/2014  16:22:00     -199.107      250.360      -36.911      125.033      143.131       65.858    15633.322    20486.470     4337.213        7.206        2.023      319.881       68.458        0.046      343.027       18.846      858.314
10/17/2014  16:23:00     -174.190      182.636      -29.102       89.204      212.406       52.967     7957.354    45116.473     2805.551        6.020        2.794      252.385       45.159        0.032      343.097       18.964      858.299
10/17/2014  16:24:00     -153.755      143.262      -21.524       98.138      186.196       59.892     9631.116    34669.115     3587.096        4.625        2.394      210.154       61.666        0.086      343.090       18.955      858.301
10/17/2014  16:25:00     -196.620      238.987      -41.208      118.046      163.490       59.328    13934.791    26729.073     3519.789        7.082        2.209      309.474       82.374        0.071      343.062       18.907      858.308
10/17/2014  16:26:00      -78.334      236.216      -14.598      130.738      113.729       74.906    17092.418    12934.255     5610.969        4.889        1.782      248.866       75.070        0.091      343.044       18.875      858.292
10/17/2014  16:27:00     -182.631      198.832      -31.200      129.105      132.744       70.419    16668.159    17620.877     4958.870        5.655        1.962      269.978       58.259        0.047      343.114       18.993      858.294
10/17/2014  16:28:00     -198.931      234.281      -39.609       92.457      137.527       56.524     8548.218    18913.551     3194.913        6.334        1.533      307.345       52.730        0.029      343.101       18.971      858.285
10/17/2014  16:29:00     -185.268      171.672      -25.258      107.548       80.716       65.445    11566.609     6515.006     4283.076        4.340        1.118      252.578       63.913        0.064      343.168       19.085      858.276
10/17/2014  16:30:00     -132.685      185.542      -11.763       98.525      100.871       62.964     9707.195    10174.881     3964.467        3.800        1.192      228.103       73.991        0.105      343.239       19.208      858.262
10/17/2014  16:31:00     -152.660      120.220      -38.421       67.211       65.320       32.402     4517.273     4266.664     1049.875        2.453        0.492      194.315       35.183        0.033      343.260       19.244      858.255
10/17/2014  16:32:00     -199.126       90.868      -33.417       84.704      126.269       46.500     7174.795    15943.845     2162.253        3.715        1.264      218.880       39.252        0.032      343.264       19.249      858.271
10/17/2014  16:33:00     -114.825      190.725      -15.735       66.072       96.417       53.588     4365.516     9296.262     2871.668        3.317        0.827      222.623       47.531        0.046      343.303       19.317      858.273
10/17/2014  16:34:00     -131.496       39.978      -15.164       69.364       97.568       37.480     4811.400     9519.548     1404.743        1.742        0.787      137.439       27.830        0.041      343.320       19.347      858.275
10/17/2014  16:35:00     -105.158       81.289        1.542       85.759      104.598       50.809     7354.586    10940.830     2581.517        1.927        1.044      132.914       40.570        0.093      343.385       19.457      858.273
10/17/2014  16:36:00      -46.768       48.933       23.028       56.779       53.745       41.610     3223.906     2888.559     1731.394        0.648        0.392       67.688       35.331        0.272      343.524       19.696      858.275
10/17/2014  16:37:00     -136.783      185.206      -25.865       90.441       88.578       50.993     8179.637     7846.060     2600.288        3.615        0.931      230.241       45.357        0.039      343.378       19.444      858.286
10/17/2014  16:38:00     -240.644      189.397      -49.186      135.801       99.729       59.423    18441.876     9945.817     3531.062        6.405        1.596      306.237       55.272        0.033      343.129       19.021      858.296
10/17/2014  16:39:00     -135.023      148.978       -8.492      117.767      123.577       66.358    13869.019    15271.301     4403.416        3.702        1.677      201.062       45.546        0.051      343.203       19.146      858.274
10/17/2014  16:40:00      -88.871      197.216       -7.683       58.522       83.602       57.288     3424.781     6989.366     3281.955        3.027        0.685      216.315       47.754        0.049      343.285       19.286      858.281
10/17/2014  16:41:00     -118.016      168.350      -16.796       66.724       98.421       46.266     4452.046     9686.772     2140.548        2.941        0.814      205.596       34.024        0.027      343.324       19.352      858.281
10/17/2014  16:42:00     -140.709      253.677      -28.658       78.393       93.779       53.283     6145.396     8794.432     2839.056        5.137        0.889      290.088       45.800        0.025      343.208       19.153      858.272
10/17/2014  16:43:00     -137.005      156.560      -23.380       84.344       86.275       46.121     7113.979     7443.422     2127.114        3.025        0.834      208.042       51.818        0.062      343.324       19.352      858.271
10/17/2014  16:44:00     -103.611      171.893      -26.840       51.120      105.136       40.463     2613.237    11053.591     1637.254        2.815        0.765      200.705       33.994        0.029      343.318       19.343      858.265
10/17/2014  16:45:00     -131.378      123.109      -42.282       60.196      115.045       42.578     3623.523    13235.375     1812.877        2.643        0.934      180.045       31.728        0.031      343.322       19.350      858.272
10/17/2014  16:46:00     -105.541      201.859      -24.956       95.999       89.858       57.412     9215.842     8074.379     3296.106        3.654        1.029      227.785       62.100        0.074      343.210       19.158      858.282
10/17/2014  16:47:00     -117.645      103.861      -17.739       52.591       78.345       49.089     2765.773     6137.892     2409.760        1.813        0.566      156.932       37.013        0.056      343.405       19.494      858.279
10/17/2014  16:48:00     -146.188      123.387      -19.338       74.619      160.230       56.062     5567.956    25673.681     3142.897        3.567        1.719      191.299       41.175        0.046      343.294       19.302      858.296
10/17/2014  16:49:00     -114.148       86.959      -29.118       84.312      140.516       62.411     7108.559    19744.752     3895.136        2.609        1.537      143.498       44.408        0.096      343.310       19.328      858.294
10/17/2014  16:50:00      -59.703      136.964       14.348       86.025       89.495       55.327     7400.276     8009.359     3061.128        2.050        0.924      149.411       34.300        0.053      343.319       19.346      858.304
10/17/2014  16:51:00      -82.118      138.012      -13.091       60.509       84.894       35.386     3661.309     7206.917     1252.149        1.904        0.606      160.595       31.694        0.039      343.331       19.366      858.312
10/17/2014  16:52:00     -129.607       32.994       -9.527       85.479       93.886       49.808     7306.736     8814.589     2480.787        1.829        0.930      133.741       34.409        0.066      343.442       19.555      858.304
10/17/2014  16:53:00      -92.035       84.575       -0.352       61.128       76.688       45.647     3736.646     5881.012     2083.609        1.366        0.585      124.994       37.192        0.089      343.393       19.473      858.310
10/17/2014  16:54:00      -95.629      182.332       -5.700       80.686       97.176       62.707     6510.277     9443.124     3932.145        3.115        0.994      205.888       53.788        0.068      343.341       19.383      858.311
10/17/2014  16:55:00     -105.736       49.429      -11.585       62.460      125.020       43.581     3901.245    15630.081     1899.298        1.759        1.072      116.719       27.510        0.056      343.368       19.430      858.297
10/17/2014  16:56:00     -173.731       33.471      -25.573       86.789      120.769       48.931     7532.358    14585.229     2394.229        2.823        1.226      176.926       36.130        0.042      343.375       19.440      858.300
10/17/2014  16:57:00     -212.920      120.436      -24.706      126.650      101.783       66.256    16040.187    10359.746     4389.898        4.561        1.539      244.622       83.101        0.115      343.273       19.266      858.305
10/17/2014  16:58:00     -183.506      103.510      -30.211      149.580      102.430       53.690    22374.121    10491.943     2882.568        4.052        1.787      210.686       55.601        0.070      343.292       19.300      858.300
10/17/2014  16:59:00     -192.675      174.395      -33.078       89.044      104.803       56.057     7928.775    10983.586     3142.403        4.534        1.103      259.879       48.855        0.035      343.233       19.195      858.314
10/17/2014  17:00:00     -154.423      212.308      -38.584       85.802      144.315       66.145     7361.918    20826.858     4375.169        5.148        1.628      262.528       50.264        0.037      343.187       19.118      858.309
10/17/2014  17:01:00      -85.905      145.692       -6.581       50.772      101.100       47.305     2577.822    10221.288     2237.722        2.184        0.752      169.133       40.341        0.057      343.226       19.187      858.311
10/17/2014  17:02:00     -193.515      243.359      -33.609      122.042      143.315       79.639    14894.158    20539.132     6342.360        6.978        2.089      310.921       96.808        0.097      343.150       19.056      858.314
10/17/2014  17:03:00     -201.740      226.325      -32.768       97.358       98.787       68.339     9478.673     9758.918     4670.279        5.845        1.195      303.186       52.597        0.030      343.116       18.998      858.309
10/17/2014  17:04:00     -235.177      223.086      -51.131      100.452       97.757       55.909    10090.562     9556.474     3125.865        6.523        1.139      324.153       55.039        0.029      343.071       18.921      858.312
10/17/2014  17:05:00     -151.562      217.140      -33.312       82.927       85.344       51.132     6876.854     7283.649     2614.452        4.400        0.839      264.803       39.472        0.022      343.077       18.930      858.319
10/17/2014  17:06:00     -133.399      198.784      -33.401       85.188       94.518       54.347     7257.017     8933.648     2953.564        3.878        0.957      239.396       53.520        0.050      343.085       18.945      858.327
10/17/2014  17:07:00      -86.415      164.623      -19.997       64.526       90.443       36.353     4163.598     8179.921     1321.562        2.431        0.683      185.926       27.335        0.022      343.105       18.981      858.335
10/17/2014  17:08:00     -173.864      204.421      -44.084       90.762      104.643       48.574     8237.686    10950.170     2359.480        4.775        1.077      268.359       46.099        0.030      343.085       18.946      858.334
10/17/2014  17:09:00     -203.009      189.639      -48.423      108.246      110.945       57.358    11717.200    12308.737     3289.984        5.341        1.366      277.805       60.948        0.048      343.038       18.864      858.335
10/17/2014  17:10:00     -167.173      185.600      -34.932       91.006      120.027       48.270     8282.071    14406.530     2329.975        4.431        1.251      249.788       38.961        0.024      342.992       18.786      858.336
10/17/2014  17:11:00     -191.528      186.114      -33.134       94.442       92.971       63.566     8919.328     8643.675     4040.606        4.701        1.080      267.061       62.906        0.055      342.991       18.785      858.349
10/17/2014  17:12:00     -199.714      204.372      -42.406       70.474      100.086       53.688     4966.560    10017.262     2882.443        5.066        0.893      285.751       48.937        0.029      343.013       18.822      858.363
10/17/2014  17:13:00     -142.219      210.614      -29.140       72.119       96.125       57.934     5201.200     9239.979     3356.393        4.161        0.890      254.135       54.472        0.046      342.971       18.751      858.368
10/17/2014  17:14:00     -200.156      212.161      -32.175       94.553       96.826       53.800     8940.302     9375.341     2894.410        5.366        1.061      291.676       50.721        0.030      343.005       18.809      858.380
10/17/2014  17:15:00     -114.703      176.603      -26.178       86.090      105.363       57.049     7411.436    11101.417     3254.535        3.340        1.088      210.584       64.903        0.095      343.017       18.830      858.377
10/17/2014  17:16:00     -113.353      161.301       -4.708       66.028       95.345       49.728     4359.707     9090.625     2472.869        2.740        0.796      197.147       49.217        0.062      342.993       18.789      858.375
10/17/2014  17:17:00     -132.939      145.107      -21.480       51.249       55.638       38.356     2626.417     3095.617     1471.159        2.319        0.360      196.796       30.404        0.024      343.024       18.841      858.367
10/17/2014  17:18:00     -142.614      142.909      -33.093       75.341       80.602       49.231     5676.291     6496.710     2423.676        2.822        0.730      201.895       45.800        0.051      343.016       18.828      858.364
10/17/2014  17:19:00     -136.903      164.838      -27.885       76.068       91.996       44.640     5786.378     8463.336     1992.712        3.146        0.812      214.276       48.313        0.051      342.991       18.788      858.360
10/17/2014  17:20:00     -225.643      231.491      -45.231      122.767      117.726       58.188    15071.626    13859.483     3385.839        6.943        1.616      323.269       61.345        0.036      342.962       18.736      858.352
10/17/2014  17:21:00     -199.126      178.865      -38.938      114.482      119.562       57.549    13106.092    14295.026     3311.885        5.193        1.536      267.664       57.756        0.047      342.916       18.658      858.342
10/17/2014  17:22:00     -119.113      188.645      -24.199       84.873      135.592       52.675     7203.426    18385.276     2774.684        3.936        1.418      223.103       57.762        0.067      342.901       18.633      858.330
10/17/2014  17:23:00     -134.671      140.535      -14.878       88.195       95.861       53.045     7778.348     9189.393     2813.787        2.894        0.989      194.644       57.162        0.086      342.870       18.578      858.330
10/17/2014  17:24:00      -96.361      223.764      -19.541       93.610      111.317       53.007     8762.744    12391.543     2809.761        4.185        1.198      243.631       50.675        0.043      342.869       18.579      858.335
10/17/2014  17:25:00     -171.033      223.601      -24.319      109.118      105.596       70.290    11906.694    11150.473     4940.689        5.391        1.400      281.514       62.416        0.049      342.858       18.559      858.340
10/17/2014  17:26:00     -167.168      281.716      -52.828       85.948       90.304       48.777     7387.083     8154.756     2379.228        6.401        0.896      327.581       46.845        0.020      342.838       18.524      858.360
10/17/2014  17:27:00     -136.202      176.456      -20.535       83.053       99.411       56.366     6897.841     9882.585     3177.138        3.503        0.998      222.908       56.095        0.063      342.821       18.497      858.358
10/17/2014  17:28:00     -134.825       75.066      -21.660       74.682       86.835       46.180     5577.387     7540.366     2132.631        1.976        0.763      154.314       37.485        0.059      342.844       18.535      858.368
10/17/2014  17:29:00     -134.699       83.539      -22.524       91.739      101.698       54.919     8415.990    10342.414     3016.066        2.370        1.089      158.501       47.160        0.089      342.838       18.525      858.372
10/17/2014  17:30:00     -168.007      -15.475      -14.186       95.407       86.278       59.875     9102.532     7443.908     3584.998        2.440        1.007      168.719       48.503        0.083      342.795       18.452      858.372
10/17/2014  17:31:00     -142.152      128.656      -33.522       76.858       83.136       43.143     5907.095     6911.665     1861.330        2.628        0.734      191.728       32.128        0.028      342.784       18.431      858.383
10/17/2014  17:32:00     -183.830      189.409      -45.267       71.400       78.095       42.912     5097.972     6098.789     1841.438        4.238        0.652      263.949       42.178        0.026      342.779       18.424      858.397
10/17/2014  17:33:00     -169.242      168.285      -39.310       75.340       65.988       44.650     5676.173     4354.445     1993.581        3.526        0.601      238.668       38.936        0.027      342.768       18.405      858.412
10/17/2014  17:34:00     -117.614      196.780      -22.036       59.389      118.646       55.542     3527.013    14076.793     3084.860        3.686        1.034      229.249       54.442        0.056      342.770       18.410      858.413
10/17/2014  17:35:00      -89.871      139.032      -10.348       53.008       67.654       41.964     2809.897     4577.059     1760.947        1.833        0.457      165.550       34.547        0.044      342.748       18.373      858.422
10/17/2014  17:36:00     -112.832      163.698      -11.610       68.741       83.809       38.825     4725.372     7023.953     1507.342        2.646        0.663      198.817       33.005        0.028      342.737       18.355      858.421
10/17/2014  17:37:00     -149.412      140.705      -25.056       64.728       93.556       41.305     4189.696     8752.634     1706.104        2.870        0.732      205.236       39.935        0.038      342.714       18.313      858.427
10/17/2014  17:38:00     -164.626       85.325       -9.649      106.319       58.470       55.944    11303.763     3418.789     3129.765        2.616        0.893      185.425       61.876        0.111      342.663       18.229      858.435
10/17/2014  17:39:00     -228.557        7.349      -28.778      118.594       59.441       42.043    14064.629     3533.187     1767.581        3.624        0.968      228.675       53.266        0.054      342.664       18.229      858.439
10/17/2014  17:40:00     -119.867       99.095      -29.691       85.062       83.288       53.417     7235.542     6936.897     2853.360        2.104        0.851      155.525       49.136        0.100      342.644       18.196      858.456
10/17/2014  17:41:00      -73.986       15.468      -15.770       58.824       69.446       43.717     3460.209     4822.737     1911.200        0.808        0.510       75.585       41.356        0.299      342.689       18.274      858.457
10/17/2014  17:42:00      -92.571       10.342      -10.678       61.684       72.913       39.971     3804.933     5316.306     1597.690        0.975        0.536       93.147       36.345        0.152      342.673       18.247      858.477
10/17/2014  17:43:00     -121.116       28.680        7.129       80.367       65.354       48.837     6458.856     4271.192     2385.017        1.433        0.656      124.466       42.064        0.114      342.680       18.258      858.489
10/17/2014  17:44:00     -177.982       27.955      -33.184       64.644       99.048       41.665     4178.861     9810.499     1735.981        2.464        0.786      180.164       23.947        0.018      342.660       18.224      858.502
10/17/2014  17:45:00     -173.454       45.492      -22.315       84.147       92.269       48.066     7080.797     8513.630     2310.384        2.528        0.895      179.320       56.910        0.101      342.673       18.245      858.525
10/17/2014  17:46:00     -161.290       33.633      -23.157       74.018       87.896       41.107     5478.614     7725.667     1689.774        2.129        0.745      164.760       30.843        0.035      342.607       18.133      858.552
10/17/2014  17:47:00     -107.762       91.910      -19.788       73.633      109.944       39.207     5421.780    12087.637     1537.183        1.975        0.952      141.634       39.218        0.077      342.572       18.075      858.548
10/17/2014  17:48:00     -160.166      256.602      -38.950      107.220       92.595       59.439    11496.048     8573.920     3533.009        5.830        1.180      302.485       47.192        0.024      342.460       17.882      858.559
10/17/2014  17:49:00     -163.576      205.308      -23.937      112.729      119.848       50.939    12707.856    14363.596     2594.784        4.957        1.483      262.504       47.938        0.033      342.443       17.852      858.578
10/17/2014  17:50:00     -144.486      191.845      -25.555       78.493      110.364       54.708     6161.138    12180.216     2992.982        3.983        1.067      240.168       52.386        0.048      342.424       17.822      858.567
10/17/2014  17:51:00     -173.092      226.091      -27.712       77.025       87.458       58.294     5932.784     7648.849     3398.211        4.941        0.849      284.742       56.859        0.040      342.395       17.771      858.573
10/17/2014  17:52:00     -118.014       90.207      -12.345       72.680       69.329       46.314     5282.368     4806.538     2144.998        1.722        0.612      148.542       42.806        0.083      342.492       17.938      858.585
10/17/2014  17:53:00     -178.028      217.969      -47.853       72.662       94.264       48.595     5279.766     8885.728     2361.482        4.901        0.826      281.433       43.535        0.024      342.465       17.890      858.605
10/17/2014  17:54:00     -188.841      164.650      -27.948       98.521       87.919       58.133     9706.317     7729.777     3379.419        4.218        1.041      250.540       63.506        0.064      342.463       17.887      858.604
10/17/2014  17:55:00     -136.395      120.133      -25.150       74.823       68.848       42.336     5598.540     4740.065     1792.338        2.290        0.607      181.757       35.061        0.037      342.483       17.923      858.604
10/17/2014  17:56:00     -135.265      112.816      -27.798       47.995       50.959       35.233     2303.482     2596.868     1241.355        1.897        0.307      176.136       28.831        0.027      342.517       17.981      858.615
10/17/2014  17:57:00     -123.450      176.346      -32.531       76.677      110.009       46.678     5879.434    12101.960     2178.805        3.377        1.008      215.262       48.390        0.051      342.497       17.946      858.613
10/17/2014  17:58:00     -131.741      131.889      -25.566       51.019       61.507       34.157     2602.894     3783.139     1166.678        2.148        0.378      186.415       31.363        0.028      342.435       17.842      858.615
10/17/2014  17:59:00      -95.405       89.703      -14.263       39.521       45.665       33.413     1561.876     2085.294     1116.444        1.106        0.238      130.953       24.996        0.036      342.465       17.894      858.631
10/17/2014  18:00:00      -82.090       99.537      -26.399       56.309       48.745       26.681     3170.695     2376.113      711.864        1.180        0.313      129.020       23.258        0.032      342.432       17.836      858.645
10/17/2014  18:01:00     -147.362       85.400      -18.442       55.299       68.798       32.033     3058.001     4733.187     1026.084        1.908        0.441      170.319       23.588        0.019      342.323       17.649      858.647
10/17/2014  18:02:00     -155.980      187.855      -37.072       70.072       58.022       44.733     4910.078     3366.603     2001.073        3.563        0.514      244.170       37.679        0.024      342.291       17.594      858.658
10/17/2014  18:03:00     -124.597      147.854      -32.177       57.370       73.471       35.547     3291.345     5397.954     1263.590        2.418        0.498      193.352       38.763        0.040      342.270       17.561      858.671
10/17/2014  18:04:00     -120.652      132.909      -22.334       40.302       45.408       32.158     1624.227     2061.912     1034.127        1.872        0.236      179.504       20.984        0.014      342.294       17.601      858.676
10/17/2014  18:05:00      -95.389      106.795      -16.551       57.536       63.875       36.857     3310.432     4080.014     1358.432        1.476        0.437      143.193       29.800        0.043      342.295       17.604      858.679
10/17/2014  18:06:00      -60.061      124.592       -9.856       63.516      100.388       41.761     4034.290    10077.751     1744.006        1.754        0.793      138.313       48.940        0.125      342.266       17.554      858.673
10/17/2014  18:07:00      -96.793      213.795      -30.049       56.957       64.144       36.238     3244.157     4114.504     1313.204        3.232        0.434      234.686       25.709        0.012      342.201       17.440      858.673
10/17/2014  18:08:00      -45.168      163.284      -12.385       47.373       79.858       40.858     2244.240     6377.247     1669.399        1.957        0.515      169.415       38.116        0.051      342.171       17.391      858.681
10/17/2014  18:09:00      -81.701      165.129      -28.937       72.001       46.358       33.426     5184.106     2149.026     1117.267        2.161        0.423      184.235       24.432        0.018      342.212       17.462      858.693
10/17/2014  18:10:00      -34.657      210.953      -32.352       49.860       74.909       31.071     2486.009     5611.288      965.396        2.790        0.453      213.780       34.394        0.026      342.153       17.360      858.714
10/17/2014  18:11:00      -66.743      173.260      -35.344       61.798       71.787       28.866     3819.050     5153.416      833.248        2.276        0.490      185.671       26.337        0.020      342.211       17.459      858.743
10/17/2014  18:12:00      -35.289      150.454      -24.723       43.576       62.743       22.942     1898.902     3936.621      526.315        1.543        0.318      154.537       25.283        0.027      342.101       17.273      858.772
10/17/2014  18:13:00      -46.840      152.460      -28.695       34.897       37.258       27.979     1217.826     1388.139      782.826        1.482        0.169      159.493       12.327        0.006      342.113       17.294      858.805
10/17/2014  18:14:00      -58.582       82.394      -12.349       30.932       40.064       23.401      956.797     1605.100      547.590        0.674        0.155      101.097       18.614        0.034      342.155       17.366      858.832
10/17/2014  18:15:00     -117.136       67.275      -26.733       39.388       45.096       26.118     1551.431     2033.685      682.146        1.161        0.213      135.080       22.614        0.028      342.286       17.590      858.874
10/17/2014  18:16:00      -89.927       64.069      -17.348       50.686       37.773       27.418     2569.048     1426.836      751.727        0.862        0.237      110.416       26.021        0.056      342.217       17.471      858.906
10/17/2014  18:17:00     -119.891      140.968      -36.825       68.599       81.449       39.869     4705.781     6633.876     1589.522        2.426        0.646      185.056       27.504        0.022      342.109       17.285      858.939
10/17/2014  18:18:00     -133.067      180.576      -37.069       55.983       64.951       41.438     3134.077     4218.673     1717.099        3.038        0.453      224.309       37.911        0.029      342.024       17.141      858.958
10/17/2014  18:19:00     -125.389      228.800      -29.724       65.622      114.345       45.036     4306.205    13074.861     2028.235        4.418        0.970      260.906       47.416        0.033      342.028       17.148      858.980
10/17/2014  18:20:00     -159.240      186.401      -37.675       92.052       77.574       48.399     8473.505     6017.730     2342.483        3.918        0.842      245.159       51.273        0.044      341.946       17.009      858.988
10/17/2014  18:21:00     -134.623      167.232      -12.169       81.175       98.351       51.485     6589.396     9673.004     2650.750        3.257        0.946      214.686       42.857        0.040      342.002       17.105      858.999
10/17/2014  18:22:00     -162.305      173.520      -36.973       77.116       78.976       50.930     5946.854     6237.255     2593.887        3.630        0.739      237.596       55.773        0.055      341.976       17.060      859.004
10/17/2014  18:23:00     -119.671      171.094      -32.334       54.461       86.979       38.496     2966.034     7565.329     1481.941        2.832        0.601      208.792       32.202        0.024      341.941       17.001      858.996
10/17/2014  18:24:00     -109.607      199.554      -35.999       75.573       48.630       42.667     5711.313     2364.844     1820.471        3.151        0.495      227.674       43.506        0.037      341.912       16.951      858.998
10/17/2014  18:25:00     -117.814      190.954      -20.694       63.725       91.655       45.793     4060.831     8400.674     2097.008        3.266        0.728      224.373       50.532        0.051      341.868       16.876      858.990
10/17/2014  18:26:00     -151.721      109.291      -13.878      108.683       79.207       41.536    11811.915     6273.698     1725.265        2.748        0.991      186.987       34.162        0.033      341.903       16.937      858.990
10/17/2014  18:27:00     -157.704      189.559      -39.695       56.839       74.035       38.995     3230.706     5481.185     1520.637        3.630        0.512      246.582       36.998        0.023      341.896       16.925      858.976
10/17/2014  18:28:00     -127.867      125.293      -18.575       76.759      119.070       41.504     5891.932    14177.587     1722.559        2.709        1.090      179.021       44.216        0.061      341.887       16.908      858.978
10/17/2014  18:29:00     -119.130      127.768      -29.144       54.890       75.002       39.183     3012.887     5625.242     1535.314        2.077        0.509      174.690       26.233        0.023      341.885       16.906      858.980
10/17/2014  18:30:00     -121.096      145.571      -28.549       54.920       51.232       37.574     3016.215     2624.724     1411.777        2.186        0.353      189.354       37.092        0.038      341.915       16.957      858.980
10/17/2014  18:31:00     -135.656      120.191      -34.784       84.309       60.182       37.345     7107.962     3621.924     1394.636        2.309        0.606      181.241       44.551        0.060      341.985       17.077      858.986
10/17/2014  18:32:00     -110.363      133.204      -30.163       40.357       64.976       33.791     1628.712     4221.923     1141.822        1.891        0.350      172.984       24.573        0.020      341.987       17.081      858.981
10/17/2014  18:33:00     -102.752       -3.923      -15.923       32.940       52.279       24.764     1085.074     2733.050      613.234        0.763        0.222      102.827       16.864        0.027      341.968       17.050      858.996
10/17/2014  18:34:00     -162.386       75.015      -30.642       81.011       63.265       35.180     6562.745     4002.481     1237.624        2.237        0.590      178.875       31.781        0.032      341.883       16.903      859.016
10/17/2014  18:35:00      -71.218        9.078       -8.931       54.532       43.991       34.881     2973.750     1935.240     1216.661        0.568        0.306       71.795       33.991        0.224      341.785       16.739      859.021
10/17/2014  18:36:00      -99.563      142.688      -34.369       64.045       81.117       39.643     4101.809     6579.893     1571.604        2.185        0.613      173.990       38.558        0.049      341.852       16.850      859.021
10/17/2014  18:37:00      -97.802      117.608      -18.723       44.203       53.964       36.057     1953.924     2912.124     1300.125        1.496        0.308      152.960       28.128        0.034      341.842       16.834      859.013
10/17/2014  18:38:00      -59.919      138.143      -13.630       59.169       74.089       42.817     3500.957     5489.110     1833.281        1.684        0.541      150.578       38.088        0.064      341.857       16.861      859.011
10/17/2014  18:39:00     -100.910      186.819      -15.632       62.934      103.243       43.255     3960.718    10659.100     1871.007        3.091        0.825      212.330       34.446        0.026      341.851       16.847      859.012
10/17/2014  18:40:00     -118.577      111.459      -19.823       63.106       62.680       36.721     3982.427     3928.835     1348.420        1.807        0.463      162.737       38.934        0.057      341.888       16.912      859.028
10/17/2014  18:41:00     -109.363      137.777      -30.230       44.586       61.933       32.298     1987.925     3835.650     1043.136        1.936        0.343      175.905       27.924        0.025      341.877       16.893      859.042
10/17/2014  18:42:00      -91.743      126.218      -22.195       49.691       69.332       29.932     2469.245     4806.954      895.917        1.650        0.409      156.038       24.453        0.025      341.798       16.760      859.055
10/17/2014  18:43:00     -109.830      105.399      -22.616       45.118       71.422       33.524     2035.601     5101.088     1123.857        1.597        0.413      152.222       38.479        0.064      341.787       16.739      859.063
10/17/2014  18:44:00      -91.316       90.215       -3.745       57.080       41.571       34.441     3258.138     1728.182     1186.210        1.133        0.309      128.364       28.045        0.048      341.775       16.722      859.072
10/17/2014  18:45:00      -95.630       73.790      -13.599       77.265       43.853       29.232     5969.874     1923.127      854.513        1.176        0.437      120.789       21.978        0.033      341.731       16.647      859.097
10/17/2014  18:46:00     -100.378      177.350      -22.582       50.881       70.523       39.306     2588.838     4973.465     1544.941        2.557        0.455      203.786       38.972        0.037      341.747       16.671      859.112
10/17/2014  18:47:00     -105.639       88.723      -16.895       53.354       62.901       38.053     2846.600     3956.502     1448.005        1.378        0.413      137.954       30.321        0.048      341.724       16.634      859.116
10/17/2014  18:48:00      -66.541      151.664      -16.456       66.125       94.804       37.491     4372.537     8987.877     1405.604        2.123        0.738      165.619       45.702        0.076      341.655       16.516      859.134
10/17/2014  18:49:00      -73.323      169.721      -23.579       62.356       83.758       39.391     3888.213     7015.339     1551.655        2.359        0.623      184.882       41.937        0.051      341.671       16.544      859.144
10/17/2014  18:50:00      -93.937      148.466      -21.373       49.407       68.964       30.181     2441.094     4755.995      910.891        1.971        0.405      175.688       20.848        0.014      341.678       16.556      859.167
10/17/2014  18:51:00      -86.433       69.231      -15.327       57.662       57.055       28.844     3324.948     3255.282      831.952        0.995        0.371      110.741       27.790        0.063      341.647       16.505      859.183
10/17/2014  18:52:00      -83.840      102.261       -5.393       62.374       57.906       33.984     3890.515     3353.111     1154.890        1.296        0.420      132.236       34.352        0.067      341.551       16.340      859.211
10/17/2014  18:53:00      -50.692      162.742       -8.607       52.483       52.963       30.308     2754.476     2805.031      918.589        1.780        0.324      170.455       25.390        0.022      341.578       16.386      859.216
10/17/2014  18:54:00        3.617      200.073      -16.775       42.589       62.879       35.528     1813.815     3953.749     1262.274        2.368        0.351      200.106       33.806        0.029      341.513       16.276      859.219
10/17/2014  18:55:00       14.123      190.562      -24.923       53.611       67.219       46.254     2874.107     4518.434     2139.453        2.333        0.477      191.084       33.047        0.030      341.448       16.165      859.224
10/17/2014  18:56:00      -46.169      201.729      -18.918       51.940       77.295       39.201     2697.713     5974.571     1536.700        2.669        0.510      206.945       42.832        0.043      341.455       16.176      859.248
10/17/2014  18:57:00      -75.197      141.750      -13.477       64.185       85.733       32.795     4119.734     7350.214     1075.514        1.924        0.627      160.461       21.184        0.017      341.462       16.190      859.282
10/17/2014  18:58:00     -112.277       95.011      -24.714       56.074       68.287       36.630     3144.309     4663.059     1341.768        1.570        0.457      147.082       46.143        0.098      341.460       16.187      859.318
10/17/2014  18:59:00      -93.871       70.737      -19.847       55.688       46.659       38.124     3101.116     2177.082     1453.428        1.047        0.337      117.539       38.022        0.105      341.483       16.226      859.335
10/17/2014  19:00:00      -56.789       28.588       -1.968       60.540       53.344       35.768     3665.088     2845.551     1279.315        0.592        0.389       63.579       23.200        0.133      341.529       16.304      859.345
10/17/2014  19:01:00      -71.691      180.151      -13.976      114.010       89.319       45.479    12998.203     7977.837     2068.322        3.041        1.152      193.891       58.238        0.090      341.516       16.280      859.344
10/17/2014  19:02:00      -87.327      181.992      -25.578       69.100       77.400       34.130     4774.765     5990.753     1164.879        2.666        0.597      201.859       33.575        0.028      341.487       16.231      859.348
10/17/2014  19:03:00      -34.226      167.155      -20.869       42.203       75.044       31.414     1781.066     5631.583      986.821        1.897        0.420      170.623       35.249        0.043      341.419       16.116      859.342
10/17/2014  19:04:00      -57.494      124.174      -12.294       42.668       59.097       28.311     1820.531     3492.461      801.496        1.249        0.306      136.839       27.404        0.040      341.464       16.193      859.346
10/17/2014  19:05:00     -125.824      148.640      -25.966       57.735       66.033       48.045     3333.307     4360.331     2308.296        2.430        0.500      194.745       46.062        0.056      341.441       16.152      859.362
10/17/2014  19:06:00     -123.026       85.404      -16.622       58.139       42.358       38.360     3380.163     1794.236     1471.488        1.467        0.332      149.764       36.841        0.061      341.453       16.175      859.381
10/17/2014  19:07:00      -83.954      118.639       -8.332       43.349       64.078       32.949     1879.132     4106.007     1085.654        1.413        0.354      145.339       34.923        0.058      341.418       16.116      859.405
10/17/2014  19:08:00      -83.752      123.263      -18.379       60.437       83.308       33.361     3652.573     6940.209     1112.953        1.712        0.585      149.024       38.523        0.067      341.423       16.124      859.420
10/17/2014  19:09:00     -118.922      135.305      -27.991       73.648       82.339       31.595     5424.086     6779.779      998.245        2.322        0.660      180.138       42.354        0.055      341.409       16.099      859.447
10/17/2014  19:10:00     -100.393      155.656      -20.777       50.907      103.941       41.430     2591.507    10803.801     1716.413        2.492        0.756      185.222       49.247        0.071      341.369       16.034      859.471
10/17/2014  19:11:00     -122.198      139.062      -30.694       63.012       58.694       29.897     3970.528     3445.025      893.828        2.176        0.415      185.123       29.692        0.026      341.361       16.019      859.493
10/17/2014  19:12:00      -20.933      177.932      -25.026       64.603       73.873       40.428     4173.590     5457.251     1634.458        2.199        0.563      179.159       40.171        0.050      341.339       15.982      859.512
10/17/2014  19:13:00      -34.781      247.801      -24.368       48.514       80.978       41.042     2353.594     6557.515     1684.475        3.690        0.530      250.230       46.866        0.035      341.312       15.933      859.516
10/17/2014  19:14:00      -23.093      287.898      -37.716       55.273      100.362       37.085     3055.102    10072.520     1375.307        4.967        0.725      288.823       45.051        0.024      341.333       15.968      859.537
10/17/2014  19:15:00      -45.826      328.949      -43.474       55.217       82.091       36.439     3048.925     6738.889     1327.823        6.165        0.556      332.126       31.453        0.009      341.323       15.952      859.549
10/17/2014  19:16:00      -70.819      193.858      -25.881       63.667       77.073       30.177     4053.429     5940.297      910.652        2.708        0.545      206.389       19.376        0.009      341.264       15.852      859.572
10/17/2014  19:17:00     -115.256      168.794      -31.519       74.085       64.216       44.003     5488.528     4123.698     1936.271        2.716        0.577      204.390       47.727        0.055      341.230       15.796      859.586
10/17/2014  19:18:00     -125.069      146.035      -32.643       72.268       62.995       37.671     5222.659     3968.363     1419.095        2.432        0.531      192.271       45.334        0.056      341.244       15.822      859.592
10/17/2014  19:19:00      -84.346      131.853      -19.811       55.288       62.122       28.664     3056.742     3859.100      821.611        1.631        0.387      156.523       24.430        0.024      341.237       15.809      859.604
10/17/2014  19:20:00     -141.173      230.593      -45.980       76.808       77.583       39.950     5899.429     6019.077     1595.978        4.436        0.676      270.376       37.769        0.020      341.278       15.877      859.613
10/17/2014  19:21:00     -121.500      114.442      -35.025       69.886       61.674       33.217     4884.049     3803.739     1103.389        1.944        0.490      166.910       35.640        0.046      341.211       15.765      859.631
10/17/2014  19:22:00     -133.112      122.100      -14.373       78.210       95.450       34.484     6116.750     9110.642     1189.122        2.462        0.821      180.630       31.154        0.030      341.224       15.787      859.643
10/17/2014  19:23:00      -64.491       99.766      -13.441       49.440       50.868       30.218     2444.273     2587.507      913.133        1.012        0.297      118.795       25.155        0.045      341.185       15.722      859.642
10/17/2014  19:24:00      -78.008       92.808      -17.844       45.464       64.152       34.212     2067.006     4115.481     1170.441        1.118        0.368      121.238       35.754        0.087      341.235       15.806      859.657
10/17/2014  19:25:00     -110.310      106.449      -29.504       65.994       87.860       36.960     4355.168     7719.370     1366.030        1.890        0.672      153.296       49.760        0.105      341.226       15.789      859.656
10/17/2014  19:26:00     -161.889      100.935      -17.534       61.541       82.632       41.518     3787.343     6828.085     1723.738        2.452        0.617      190.777       33.924        0.032      341.176       15.705      859.671
10/17/2014  19:27:00     -129.583      118.474      -20.021       53.915       90.992       41.779     2906.876     8279.499     1745.488        2.208        0.647      175.578       46.086        0.069      341.110       15.593      859.684
10/17/2014  19:28:00     -123.623      171.814      -32.652       61.534       75.386       40.172     3786.375     5683.070     1613.764        2.847        0.554      211.667       35.534        0.028      341.123       15.614      859.684
10/17/2014  19:29:00     -101.059      171.749      -19.406       69.478      112.082       39.531     4827.182    12562.336     1562.714        2.952        0.948      199.275       47.013        0.056      341.154       15.667      859.694
10/17/2014  19:30:00     -155.323      191.303      -26.149       90.990       82.744       47.821     8279.224     6846.594     2286.870        3.941        0.871      246.419       45.737        0.034      341.261       15.848      859.687
10/17/2014  19:31:00     -145.072      124.635      -17.260       89.427       80.460       42.428     7997.229     6473.736     1800.137        2.657        0.814      191.258       35.180        0.034      341.193       15.733      859.701
10/17/2014  19:32:00     -141.612      191.459      -34.078       68.046       87.060       44.670     4630.195     7579.492     1995.392        3.604        0.710      238.140       35.424        0.022      341.135       15.636      859.720
10/17/2014  19:33:00     -127.155      189.095      -29.690       63.296      108.341       37.736     4006.376    11737.767     1424.002        3.498        0.858      227.871       34.669        0.023      341.053       15.495      859.747
10/17/2014  19:34:00     -165.323      232.314      -52.157       86.853       63.952       46.720     7543.472     4089.905     2182.714        4.892        0.691      285.134       44.993        0.025      341.014       15.431      859.745
10/17/2014  19:35:00     -103.113      218.913      -20.962       73.237       97.226       47.090     5363.646     9452.834     2217.453        3.801        0.852      241.982       52.343        0.047      341.007       15.417      859.738
10/17/2014  19:36:00     -113.784      118.197      -21.918       61.009       78.455       36.735     3722.069     6155.233     1349.465        1.931        0.561      164.065       34.510        0.044      341.012       15.428      859.745
10/17/2014  19:37:00     -149.934       94.218      -23.028       77.635       86.390       44.645     6027.124     7463.220     1993.213        2.368        0.774      177.080       47.627        0.072      340.964       15.347      859.757
10/17/2014  19:38:00     -140.104      176.292      -32.921       68.776       66.926       41.133     4730.176     4479.101     1691.891        3.134        0.545      225.184       39.602        0.031      340.969       15.353      859.767
10/17/2014  19:39:00     -111.159      167.286      -19.283       44.807       64.048       44.554     2007.678     4102.092     1985.087        2.440        0.405      200.851       37.624        0.035      340.994       15.396      859.776
10/17/2014  19:40:00     -140.807      122.225      -38.803       53.330       59.325       32.913     2844.141     3519.509     1083.254        2.186        0.372      186.456       33.803        0.033      340.958       15.334      859.792
10/17/2014  19:41:00     -109.384       81.066      -12.519       70.978       49.139       47.723     5037.855     2414.596     2277.515        1.421        0.486      136.149       42.857        0.099      340.867       15.182      859.813
10/17/2014  19:42:00     -100.846      121.657      -24.171       42.636       56.050       30.601     1817.830     3141.639      936.442        1.572        0.295      158.020       24.191        0.023      340.854       15.162      859.817
10/17/2014  19:43:00     -102.008       60.624       -9.361       69.876       71.950       38.859     4882.652     5176.856     1510.002        1.287        0.578      118.663       34.720        0.086      340.859       15.170      859.828
10/17/2014  19:44:00     -119.042       55.368       -6.610       57.437       54.338       39.059     3298.978     2952.614     1525.640        1.253        0.389      131.288       29.678        0.051      340.872       15.193      859.823
10/17/2014  19:45:00      -71.166       46.400       -0.062       38.683       39.170       35.562     1496.352     1534.262     1264.631        0.576        0.215       84.956       25.999        0.094      340.858       15.170      859.826
10/17/2014  19:46:00      -65.354        1.677        0.312       41.348       58.610       34.206     1709.637     3435.173     1170.071        0.529        0.316       65.376       19.006        0.085      340.837       15.133      859.837
10/17/2014  19:47:00     -161.852      205.843      -34.337       74.821       97.123       51.670     5598.247     9432.941     2669.740        4.372        0.885      261.854       50.256        0.037      340.897       15.231      859.842
10/17/2014  19:48:00     -183.631      211.165      -46.113       84.355       96.398       50.323     7115.838     9292.613     2532.433        4.969        0.947      279.841       53.594        0.037      340.979       15.371      859.856
10/17/2014  19:49:00     -202.675      194.499      -36.627      121.498      115.658       54.845    14761.824    13376.782     3007.989        5.569        1.557      280.904       54.907        0.038      341.020       15.441      859.860
10/17/2014  19:50:00     -172.138      132.356      -41.024       54.473       75.109       37.880     2967.274     5641.320     1434.884        2.944        0.502      217.139       31.623        0.021      341.067       15.519      859.868
10/17/2014  19:51:00     -137.804      183.875      -27.554       57.525       68.877       45.634     3309.131     4744.081     2082.426        3.185        0.507      229.783       37.282        0.026      341.015       15.432      859.885
10/17/2014  19:52:00     -208.486      190.073      -45.293       86.109       90.189       54.522     7414.817     8134.049     2972.615        5.008        0.926      282.125       49.441        0.031      341.045       15.481      859.901
10/17/2014  19:53:00     -206.754      206.083      -47.879       90.735       69.966       44.366     8232.761     4895.183     1968.362        5.130        0.755      291.920       43.243        0.022      341.055       15.498      859.890
10/17/2014  19:54:00     -129.984      202.118      -28.023       92.825       90.058       62.668     8616.467     8110.397     3927.278        3.959        1.033      240.307       68.214        0.081      341.047       15.485      859.876
10/17/2014  19:55:00     -109.672      134.956      -19.869       57.900       65.385       39.625     3352.384     4275.263     1570.169        1.992        0.460      173.899       38.012        0.048      341.075       15.534      859.868
10/17/2014  19:56:00      -70.523      103.901       -8.870       68.628       90.857       28.309     4709.808     8254.978      801.386        1.480        0.688      125.574       19.896        0.025      341.082       15.546      859.854
10/17/2014  19:57:00      -69.516       12.912       -5.079       49.035       44.988       23.175     2404.432     2023.927      537.090        0.499        0.248       70.705       24.130        0.116      341.086       15.556      859.867
10/17/2014  19:58:00      -95.812       72.639      -27.193       38.729       96.797       29.938     1499.959     9369.633      896.272        1.348        0.588      120.234       40.632        0.114      341.135       15.638      859.888
10/17/2014  19:59:00     -106.688      -17.409       -9.824       41.712       58.790       26.614     1739.867     3456.280      708.321        0.884        0.295      108.099       31.271        0.084      341.029       15.458      859.893
10/17/2014  20:00:00     -119.326      -53.787       -8.420       57.024       46.113       26.651     3251.754     2126.398      710.292        1.164        0.304      130.888       20.462        0.024      340.902       15.242      859.919
10/17/2014  20:01:00     -123.017      -35.611       -0.054       72.757       55.250       34.742     5293.613     3052.590     1207.002        1.298        0.478      128.068       39.332        0.094      340.793       15.057      859.942
10/17/2014  20:02:00     -172.208      -47.882      -20.149       64.710       57.356       30.451     4187.335     3289.681      927.271        2.038        0.420      178.741       30.247        0.029      340.743       14.973      859.966
10/17/2014  20:03:00     -180.515      -41.155      -15.209       51.637       54.348       31.233     2666.329     2953.739      975.514        2.055        0.330      185.147       21.064        0.013      340.843       15.141      859.969
10/17/2014  20:04:00     -115.312      -42.495        2.988       62.063       60.654       32.288     3851.787     3678.852     1042.520        1.184        0.429      122.893       23.297        0.036      340.803       15.075      859.998
10/17/2014  20:05:00     -123.190      -32.187       -4.528       53.167       52.252       27.459     2826.680     2730.262      753.989        1.127        0.316      127.325       16.275        0.016      340.819       15.102      860.007
10/17/2014  20:06:00     -113.832      -44.904      -10.666       44.882       44.963       27.279     2014.413     2021.629      744.140        0.993        0.239      122.369       26.275        0.046      340.830       15.118      860.019
10/17/2014  20:07:00     -126.175      -33.118       -2.721       64.153       58.194       30.656     4115.548     3386.488      939.816        1.273        0.422      130.449       29.049        0.050      340.885       15.214      860.043
10/17/2014  20:08:00     -131.620      -32.238       -4.003       63.993       69.303       36.499     4095.144     4802.926     1332.190        1.430        0.512      135.511       23.471        0.030      340.811       15.088      860.072
10/17/2014  20:09:00      -75.158      147.404      -16.035       46.926       40.158       30.618     2202.090     1612.640      937.488        1.619        0.238      165.459       24.294        0.022      340.814       15.092      860.079
10/17/2014  20:10:00      -77.442      101.277      -16.247       50.190       65.678       26.993     2518.996     4313.662      728.625        1.204        0.378      127.493       16.489        0.017      340.829       15.118      860.087
10/17/2014  20:11:00      -40.055      142.517      -27.781       64.099       48.223       33.924     4108.639     2325.489     1150.811        1.513        0.379      148.039       29.883        0.041      340.932       15.293      860.073
10/17/2014  20:12:00      -77.832       99.281       -3.865       60.510       73.786       41.139     3661.444     5444.390     1692.425        1.336        0.540      126.153       46.732        0.137      340.955       15.331      860.069
10/17/2014  20:13:00     -112.952      134.437      -30.714       51.288       88.438       38.244     2630.495     7821.301     1462.570        2.184        0.596      175.589       42.417        0.058      341.050       15.493      860.075
10/17/2014  20:14:00     -118.344       71.982      -13.907       42.694       84.699       33.623     1822.735     7173.951     1130.477        1.475        0.506      138.516       24.617        0.032      340.969       15.354      860.090
10/17/2014  20:15:00     -100.758       81.045      -20.747       46.394       60.344       26.017     2152.428     3641.414      676.881        1.181        0.324      129.308       27.405        0.045      340.889       15.222      860.104
10/17/2014  20:16:00     -107.728       12.109      -15.327       35.995       48.795       23.617     1295.642     2380.958      557.780        0.811        0.212      108.407       20.002        0.034      341.001       15.410      860.113
10/17/2014  20:17:00      -83.741      -17.777      -15.022       30.792       29.519       22.030      948.151      871.393      485.309        0.493        0.115       85.607       16.835        0.039      340.905       15.249      860.123
10/17/2014  20:18:00      -37.328      -17.944        6.807       28.147       38.580       16.460      792.279     1488.412      270.924        0.216        0.128       41.417       10.579        0.065      340.721       14.936      860.142
10/17/2014  20:19:00      -40.940       18.893       -3.785       26.153       31.654       14.944      683.954     1001.985      223.315        0.198        0.095       45.089        9.087        0.041      340.751       14.988      860.163
10/17/2014  20:20:00      -39.829      -27.580        2.938       30.387       36.712       15.435      923.353     1347.779      238.237        0.243        0.125       48.446       12.843        0.070      340.747       14.980      860.172
10/17/2014  20:21:00      -30.632       26.410        9.437       37.758       41.227       27.684     1425.684     1699.669      766.379        0.281        0.195       40.445       20.590        0.259      340.748       14.981      860.183
10/17/2014  20:22:00     -135.541      -36.744       -4.993       68.683       42.153       21.868     4717.315     1776.888      478.229        1.336        0.349      140.433       22.048        0.025      340.707       14.913      860.187
10/17/2014  20:23:00     -150.516       -5.243      -12.383       54.307       46.149       26.960     2949.234     2129.744      726.852        1.432        0.290      150.608       25.566        0.029      340.669       14.848      860.185
10/17/2014  20:24:00      -77.265       53.460      -14.858       39.707       37.791       20.863     1576.664     1428.185      435.281        0.624        0.172       93.956       22.121        0.055      340.711       14.921      860.183
10/17/2014  20:25:00      -74.533       64.237       -4.354       38.365       46.805       25.092     1471.864     2190.715      629.601        0.700        0.215       98.394       19.520        0.039      340.635       14.793      860.183
10/17/2014  20:26:00     -104.328        0.645      -10.900       59.223       38.401       31.061     3507.372     1474.665      964.798        0.847        0.297      104.330       30.028        0.083      340.617       14.763      860.193
10/17/2014  20:27:00      -96.454       96.154      -20.700       50.547       74.437       30.102     2555.008     5540.845      906.139        1.399        0.450      136.195       32.370        0.056      340.782       15.039      860.185
10/17/2014  20:28:00      -75.266      134.542      -21.122       32.604       36.280       19.862     1063.029     1316.238      394.499        1.349        0.139      154.164       18.040        0.014      340.718       14.932      860.172
10/17/2014  20:29:00      -72.924       99.932       -9.760       37.901       55.131       30.406     1436.493     3039.437      924.496        1.040        0.270      123.710       25.699        0.043      340.685       14.876      860.184
10/17/2014  20:30:00     -118.462      117.632      -22.405       34.350       58.884       28.646     1179.899     3467.383      820.612        1.692        0.273      166.945       23.301        0.019      340.717       14.931      860.202
10/17/2014  20:31:00     -119.277       28.974      -11.098       88.847       50.487       34.563     7893.758     2548.980     1194.608        1.341        0.582      122.745       50.536        0.170      340.686       14.877      860.216
10/17/2014  20:32:00     -119.116       20.431      -19.560       38.114       43.167       23.555     1452.676     1863.412      554.834        0.943        0.194      120.855        9.568        0.006      340.698       14.899      860.225
10/17/2014  20:33:00      -86.324      -24.658        7.593       87.626       87.905       43.968     7678.332     7727.255     1933.158        1.273        0.867       89.777       50.601        0.318      340.675       14.859      860.226
10/17/2014  20:34:00     -161.553      -12.928        5.362      108.788       87.825       48.220    11834.742     7713.261     2325.162        2.408        1.094      162.070       55.119        0.116      340.710       14.917      860.237
10/17/2014  20:35:00     -239.847      -52.313      -12.822       64.009       92.211       35.330     4097.156     8502.828     1248.207        3.714        0.692      245.486       23.342        0.009      340.768       15.013      860.247
10/17/2014  20:36:00     -134.625       17.543       -7.322       76.388       80.863       29.982     5835.126     6538.845      898.936        1.588        0.664      135.764       16.794        0.015      340.659       14.832      860.261
10/17/2014  20:37:00     -118.890       83.927      -27.712       49.935       64.714       34.661     2493.483     4187.899     1201.369        1.491        0.394      145.529       37.103        0.065      340.644       14.805      860.265
10/17/2014  20:38:00      -86.653      106.087      -13.567       55.865       59.758       38.155     3120.919     3570.994     1455.825        1.355        0.407      136.979       37.080        0.073      340.640       14.800      860.255
10/17/2014  20:39:00      -49.880      132.936      -11.190       39.593       47.432       30.748     1567.592     2249.797      945.449        1.252        0.238      141.986       20.768        0.021      340.568       14.678      860.237
10/17/2014  20:40:00      -69.486       76.367        0.487       66.029       69.802       42.278     4359.823     4872.351     1787.437        1.084        0.551      103.248       30.995        0.090      340.601       14.733      860.229
10/17/2014  20:41:00      -75.758      145.990       -8.845       51.969       88.440       37.913     2700.792     7821.574     1437.377        1.954        0.598      164.476       40.197        0.060      340.610       14.748      860.233
10/17/2014  20:42:00     -162.080      142.187      -37.257       65.420       63.156       37.291     4279.733     3988.686     1390.608        2.877        0.483      215.608       37.967        0.031      340.564       14.670      860.238
10/17/2014  20:43:00     -120.762       73.054      -15.090       42.622       36.523       27.555     1816.650     1333.939      759.275        1.203        0.195      141.139       24.601        0.030      340.518       14.594      860.238
10/17/2014  20:44:00      -83.925       48.757      -16.622       48.877       40.854       27.742     2388.914     1669.026      769.645        0.726        0.241       97.060       29.535        0.093      340.558       14.661      860.235
10/17/2014  20:45:00      -54.679       77.619        1.345       47.131       65.534       30.128     2221.357     4294.679      907.726        0.822        0.371       94.945       22.978        0.059      340.456       14.488      860.219
10/17/2014  20:46:00     -105.583        7.812      -13.035       31.912       30.887       21.530     1018.403      954.027      463.531        0.691        0.122      105.871        9.230        0.008      340.571       14.684      860.204
10/17/2014  20:47:00      -97.813      152.141      -24.996       41.473       82.652       34.490     1720.023     6831.425     1189.534        2.154        0.487      180.871       28.701        0.025      340.531       14.614      860.208
10/17/2014  20:48:00     -136.394      117.945      -34.994       46.201       76.123       31.899     2134.573     5794.679     1017.539        2.134        0.447      180.318       28.022        0.024      340.542       14.633      860.208
10/17/2014  20:49:00     -148.905       55.970      -25.079       50.023       84.006       40.067     2502.307     7057.019     1605.387        1.855        0.558      159.076       37.600        0.056      340.514       14.585      860.222
10/17/2014  20:50:00      -68.835       92.039       -7.736       58.424       55.039       39.390     3413.369     3029.269     1551.567        1.063        0.400      114.932       35.780        0.097      340.452       14.483      860.227
10/17/2014  20:51:00      -75.139       81.154       -3.609       64.516       46.022       30.357     4162.357     2118.048      921.538        0.972        0.360      110.598       22.627        0.042      340.442       14.466      860.244
10/17/2014  20:52:00     -116.788      124.505      -22.357       63.197       58.025       38.652     3993.810     3366.949     1493.953        1.925        0.443      170.708       36.871        0.047      340.420       14.426      860.255
10/17/2014  20:53:00     -130.993       97.526      -30.513       72.369       53.985       30.487     5237.267     2914.389      929.461        1.834        0.454      163.312       38.271        0.055      340.459       14.492      860.270
10/17/2014  20:54:00     -145.020      133.441      -38.030       55.900       71.604       33.436     3124.759     5127.074     1117.955        2.483        0.468      197.072       27.696        0.020      340.420       14.423      860.291
10/17/2014  20:55:00     -183.365      145.158      -37.571       73.031       82.613       42.261     5333.581     6824.859     1786.034        3.502        0.697      233.867       48.668        0.043      340.448       14.472      860.305
10/17/2014  20:56:00     -127.976       89.560      -22.138       59.608       63.101       41.437     3553.070     3981.686     1717.044        1.707        0.463      156.201       27.548        0.031      340.427       14.437      860.313
10/17/2014  20:57:00     -106.713       87.017      -17.529       42.185       60.495       38.469     1779.566     3659.692     1479.830        1.309        0.346      137.694       31.427        0.052      340.410       14.412      860.318
10/17/2014  20:58:00     -138.096      -47.211      -15.186       54.833       70.210       31.911     3006.629     4929.406     1018.309        1.524        0.448      145.943       19.600        0.018      340.399       14.391      860.310
10/17/2014  20:59:00     -129.300        8.331       -7.422       77.654       81.639       41.609     6030.087     6664.883     1731.328        1.563        0.721      129.568       35.750        0.076      340.381       14.359      860.313
10/17/2014  21:00:00     -120.887       46.764      -18.948       54.746       43.596       28.029     2997.128     1900.639      785.647        1.142        0.284      129.617       24.405        0.035      340.333       14.281      860.324
10/17/2014  21:01:00      -92.713       -1.434      -10.445       46.862       65.436       33.244     2196.011     4281.891     1105.186        0.814        0.379       92.724       29.584        0.102      340.272       14.176      860.324
10/17/2014  21:02:00     -116.289      -18.192      -13.000       39.613       21.962       22.368     1569.161      482.351      500.307        0.829        0.128      117.703       20.471        0.030      340.258       14.154      860.327
10/17/2014  21:03:00     -111.401      -49.102       -5.509       34.490       33.822       23.499     1189.568     1143.915      552.226        0.887        0.144      121.743       15.110        0.015      340.246       14.132      860.338
10/17/2014  21:04:00     -116.702      -21.325      -22.253       41.249       35.746       29.219     1701.463     1277.741      853.728        0.920        0.192      118.634       19.715        0.028      340.343       14.298      860.348
10/17/2014  21:05:00     -118.643      -36.051      -11.862       37.772       51.026       22.988     1426.744     2603.704      528.450        1.004        0.228      123.999       17.293        0.019      340.293       14.213      860.364
10/17/2014  21:06:00     -149.804      -46.096      -13.671       74.020       69.979       33.973     5478.899     4897.037     1154.197        1.814        0.577      156.735       38.492        0.060      340.224       14.095      860.376
10/17/2014  21:07:00     -151.441      -83.731       -7.898       56.141       43.249       27.295     3151.778     1870.481      744.993        1.789        0.288      173.047       25.911        0.022      340.190       14.038      860.383
10/17/2014  21:08:00     -175.202      -11.650       -2.884       85.555       55.546       32.885     7319.700     3085.380     1081.453        2.116        0.574      175.589       36.092        0.042      340.070       13.835      860.393
10/17/2014  21:09:00     -189.053      -15.868      -12.946       60.004       59.706       34.613     3600.448     3564.759     1198.037        2.226        0.418      189.718       28.921        0.023      340.062       13.822      860.400
10/17/2014  21:10:00     -167.420      -16.424      -23.311       44.986       68.682       38.972     2023.773     4717.258     1518.819        1.855        0.413      168.224       26.003        0.024      340.099       13.885      860.386
10/17/2014  21:11:00     -133.761       20.605      -13.650       58.822       47.303       30.586     3460.070     2237.584      935.488        1.257        0.332      135.338       28.363        0.044      340.116       13.913      860.375
10/17/2014  21:12:00     -167.900       71.920      -26.021       60.912       39.164       31.842     3710.215     1533.781     1013.904        2.015        0.313      182.656       27.564        0.023      340.190       14.038      860.386
10/17/2014  21:13:00     -105.315       30.457      -16.332       47.469       50.100       31.566     2253.260     2509.981      996.435        0.902        0.288      109.631       26.585        0.059      340.144       13.960      860.398
10/17/2014  21:14:00      -81.269       51.789      -15.062       32.860       35.323       19.353     1079.796     1247.737      374.523        0.611        0.135       96.368       14.295        0.022      340.185       14.031      860.405
10/17/2014  21:15:00     -126.580      119.595      -29.978       40.376       44.781       24.838     1630.188     2005.323      616.946        1.774        0.213      174.142       24.483        0.020      340.168       14.001      860.413
10/17/2014  21:16:00      -85.096      137.597      -15.446       57.842       41.434       30.318     3345.742     1716.797      919.151        1.620        0.299      161.784       27.770        0.029      340.131       13.938      860.415
10/17/2014  21:17:00     -118.278      149.958      -26.079       61.537       74.238       35.267     3786.770     5511.332     1243.772        2.385        0.527      190.990       35.837        0.035      340.146       13.964      860.429
10/17/2014  21:18:00     -144.652      179.991      -37.924       49.030       68.265       31.998     2403.898     4660.060     1023.869        3.142        0.404      230.913       23.452        0.010      340.135       13.943      860.429
10/17/2014  21:19:00     -155.712      117.546      -28.383       69.691       74.276       43.835     4856.797     5516.997     1921.516        2.558        0.615      195.098       39.974        0.042      340.090       13.868      860.443
10/17/2014  21:20:00      -32.861       67.781        8.748       44.188       54.913       33.812     1952.578     3015.386     1143.219        0.593        0.306       75.326       29.640        0.155      340.009       13.734      860.457
10/17/2014  21:21:00      -97.888       82.997      -19.137       53.437       69.319       34.178     2855.534     4805.126     1168.143        1.283        0.441      128.338       27.006        0.044      340.069       13.836      860.458
10/17/2014  21:22:00     -124.238      159.322      -29.165       74.763       87.577       42.238     5589.512     7669.756     1784.082        2.835        0.752      202.036       39.277        0.038      340.015       13.742      860.465
10/17/2014  21:23:00     -115.519      144.516      -24.338       53.215       58.609       33.648     2831.800     3434.981     1132.220        2.111        0.370      185.012       31.634        0.029      339.995       13.709      860.460
10/17/2014  21:24:00     -147.336      184.363      -41.058       52.464       69.874       35.625     2752.436     4882.419     1269.120        3.314        0.445      236.003       22.543        0.009      340.040       13.783      860.454
10/17/2014  21:25:00     -121.732      155.236      -35.165       49.864       56.993       33.934     2486.402     3248.184     1151.529        2.352        0.344      197.274       26.005        0.017      340.077       13.846      860.467
10/17/2014  21:26:00     -177.066      189.681      -48.217       63.834       71.135       42.209     4074.763     5060.254     1781.602        4.028        0.546      259.482       37.674        0.021      340.144       13.957      860.478
10/17/2014  21:27:00     -165.034      206.131      -46.344       57.980       75.407       38.566     3361.662     5686.258     1487.313        4.120        0.527      264.057       40.787        0.024      340.137       13.947      860.498
10/17/2014  21:28:00     -146.485      161.960      -26.052       51.168       82.348       37.517     2618.190     6781.193     1407.511        2.959        0.540      218.378       37.612        0.030      340.082       13.855      860.515
10/17/2014  21:29:00     -168.077      177.182      -38.345       54.776       74.162       41.751     3000.464     5499.952     1743.142        3.568        0.512      244.220       36.146        0.022      340.067       13.829      860.522
10/17/2014  21:30:00     -126.213      118.989      -26.386       56.515       58.483       37.363     3193.950     3420.266     1395.984        1.940        0.401      173.460       38.932        0.050      340.037       13.780      860.533
10/17/2014  21:31:00     -119.562      140.365      -29.441       50.365       57.922       32.944     2536.615     3354.914     1085.295        2.092        0.349      184.384       31.547        0.029      340.062       13.823      860.532
10/17/2014  21:32:00     -166.260      143.792      -37.730       73.438       58.932       43.283     5393.200     3472.978     1873.380        3.024        0.537      219.815       42.702        0.038      340.080       13.851      860.551
10/17/2014  21:33:00     -175.265      194.596      -41.557       82.495       89.658       51.686     6805.497     8038.487     2671.474        4.391        0.876      261.888       48.817        0.035      340.131       13.937      860.549
10/17/2014  21:34:00     -143.516      173.744      -33.316       94.175       70.158       46.764     8868.877     4922.134     2186.841        3.393        0.799      225.352       47.234        0.044      340.055       13.809      860.563
10/17/2014  21:35:00      -74.867      106.483       -1.672       57.661       56.831       38.912     3324.807     3229.706     1514.141        1.251        0.403      130.168       31.235        0.058      340.038       13.782      860.563
10/17/2014  21:36:00     -145.552      203.402      -35.980       54.687       67.557       41.561     2990.684     4563.923     1727.334        3.657        0.464      250.116       38.548        0.024      340.050       13.801      860.576
10/17/2014  21:37:00     -109.914      178.207      -22.450       54.509       66.075       38.792     2971.237     4365.898     1504.789        2.659        0.442      209.377       41.857        0.040      340.022       13.754      860.579
10/17/2014  21:38:00     -182.353      219.916      -54.478       54.829       66.221       37.008     3006.190     4385.164     1369.596        4.667        0.438      285.685       35.084        0.015      340.053       13.805      860.583
10/17/2014  21:39:00     -142.610       99.843      -23.333       61.524       64.774       35.661     3785.256     4195.709     1271.678        2.005        0.463      174.087       37.947        0.048      340.003       13.722      860.573
10/17/2014  21:40:00      -88.366       80.753      -23.246       54.375       59.327       32.109     2956.676     3519.647     1031.007        1.119        0.375      119.706       40.503        0.114      339.969       13.666      860.576
10/17/2014  21:41:00      -94.966       49.497      -11.754       49.105       49.040       27.170     2411.267     2404.935      738.197        0.858        0.278      107.091       12.791        0.014      340.001       13.721      860.585
10/17/2014  21:42:00      -68.708       46.554       -4.135       43.189       36.917       28.446     1865.331     1362.877      809.175        0.547        0.202       82.994       21.810        0.069      339.917       13.580      860.589
10/17/2014  21:43:00     -136.230      135.149      -37.438       42.813       57.715       31.410     1832.926     3330.964      986.561        2.219        0.308      191.895       26.886        0.020      339.973       13.673      860.605
10/17/2014  21:44:00     -114.679      172.251      -25.531       50.356       78.991       38.342     2535.700     6239.522     1470.090        2.686        0.512      206.934       32.042        0.024      339.948       13.628      860.610
10/17/2014  21:45:00      -91.653      108.969      -20.271       45.272       69.978       36.155     2049.525     4896.967     1307.170        1.447        0.413      142.389       40.802        0.082      339.889       13.531      860.618
10/17/2014  21:46:00     -139.046      100.580      -35.050       68.233       61.429       39.147     4655.728     3773.472     1532.468        2.032        0.498      171.611       30.801        0.032      339.937       13.612      860.636
10/17/2014  21:47:00      -93.894       85.089      -17.652       58.215      105.619       41.938     3389.043    11155.478     1758.756        1.633        0.815      126.713       31.457        0.062      339.906       13.558      860.633
10/17/2014  21:48:00     -117.106      100.915      -29.412       52.042       76.608       30.909     2708.357     5868.715      955.397        1.715        0.477      154.588       34.277        0.049      339.935       13.607      860.639
10/17/2014  21:49:00     -138.837       28.597      -30.220       42.771       43.988       26.510     1829.341     1934.935      702.763        1.274        0.223      141.752       27.781        0.038      339.947       13.630      860.640
10/17/2014  21:50:00     -150.941       59.167      -18.864       55.961       59.906       34.730     3131.596     3588.749     1206.189        1.728        0.396      162.124       22.742        0.020      339.972       13.671      860.642
10/17/2014  21:51:00      -80.707       30.990       -8.723       37.909       32.203       23.189     1437.103     1037.008      537.713        0.528        0.151       86.452       16.344        0.036      339.938       13.614      860.645
10/17/2014  21:52:00      -58.202        7.022      -11.969       72.515       33.923       28.320     5258.410     1150.745      802.047        0.539        0.361       58.625       33.303        0.323      339.872       13.502      860.656
10/17/2014  21:53:00      -34.827       69.112       -0.458       54.388       88.735       46.296     2958.067     7873.869     2143.308        0.948        0.649       77.391       29.407        0.144      339.892       13.537      860.653
10/17/2014  21:54:00      -69.324       64.069       -6.070       41.633       41.699       23.870     1733.343     1738.771      569.801        0.649        0.202       94.396       21.289        0.051      339.834       13.440      860.667
10/17/2014  21:55:00      -91.430       24.938      -25.343       41.826       52.408       31.786     1749.382     2746.562     1010.319        0.756        0.275       94.769       28.537        0.091      339.956       13.645      860.681
10/17/2014  21:56:00      -64.954       44.205      -11.305       28.551       62.023       22.563      815.165     3846.826      509.086        0.574        0.259       78.569       13.447        0.029      339.934       13.607      860.691
10/17/2014  21:57:00      -64.365      103.577      -15.052       29.288       56.288       26.735      857.763     3168.321      714.773        0.992        0.237      121.947       21.117        0.030      339.875       13.510      860.721
10/17/2014  21:58:00      -52.741        3.738       -0.915       32.845       48.736       17.443     1078.822     2375.210      304.268        0.328        0.188       52.873       13.071        0.061      339.837       13.445      860.735
10/17/2014  21:59:00      -78.550      -10.889        0.248       30.596       33.090       14.554      936.123     1094.925      211.807        0.427        0.112       79.301       16.456        0.043      339.828       13.429      860.743
10/17/2014  22:00:00      -69.453      -40.965       -0.855       35.591       30.767       17.840     1266.742      946.616      318.268        0.452        0.127       80.634       14.930        0.034      339.694       13.203      860.743
10/17/2014  22:01:00      -62.767       11.919      -11.033       33.201       30.346       23.960     1102.300      920.874      574.104        0.340        0.130       63.889       16.955        0.070      339.942       13.621      860.749
10/17/2014  22:02:00        6.638      -17.881        0.010       21.380       26.173       18.506      457.115      685.030      342.456        0.092        0.074       19.074       10.511        0.304      339.687       13.192      860.735
10/17/2014  22:03:00      -96.321      -39.693       -7.620       38.392       32.271       19.067     1473.914     1041.394      363.563        0.689        0.144      104.179       16.211        0.024      339.857       13.478      860.728
10/17/2014  22:04:00      -29.529      -29.941       -7.413       37.632       25.743       23.107     1416.188      662.696      533.947        0.222        0.131       42.053       13.115        0.097      339.905       13.558      860.725
10/17/2014  22:05:00      -12.651       50.684        6.892       52.045       65.499       36.903     2708.683     4290.175     1361.836        0.557        0.418       52.239       39.010        0.558      339.758       13.311      860.733
10/17/2014  22:06:00     -136.225      100.381      -30.119       41.654       39.477       26.299     1735.076     1558.447      691.623        1.676        0.199      169.215       17.496        0.011      339.908       13.563      860.741
10/17/2014  22:07:00     -140.247      -40.900      -22.304       38.656       37.614       29.355     1494.299     1414.802      861.721        1.280        0.189      146.089       25.081        0.029      339.920       13.586      860.747
10/17/2014  22:08:00      -97.386       11.776      -12.616       43.788       53.017       27.588     1917.416     2810.784      761.074        0.763        0.274       98.096       34.587        0.124      339.837       13.445      860.742
10/17/2014  22:09:00     -111.518       46.410      -20.582       31.507       41.970       26.012      992.712     1761.445      676.628        0.922        0.172      120.790       22.060        0.033      339.785       13.357      860.742
10/17/2014  22:10:00      -94.152        3.506       -4.687       44.865       33.477       23.442     2012.879     1120.734      549.532        0.629        0.184       94.218       25.241        0.072      339.730       13.265      860.756
10/17/2014  22:11:00     -136.333       11.530      -16.608       51.259       31.590       25.662     2627.503      997.959      658.548        1.164        0.214      136.819       24.168        0.031      339.745       13.289      860.767
10/17/2014  22:12:00      -78.481       -8.853        5.450       36.431       38.037       21.767     1327.198     1446.804      473.784        0.476        0.162       78.979       23.887        0.091      339.734       13.271      860.770
10/17/2014  22:13:00      -61.436      -41.348        1.571       42.067       27.154       19.519     1769.593      737.334      380.992        0.419        0.144       74.054       23.617        0.102      339.697       13.207      860.779
10/17/2014  22:14:00      -71.974      -27.846       -5.432       23.191       20.655       14.031      537.822      426.634      196.858        0.357        0.058       77.172       11.359        0.022      339.672       13.165      860.797
10/17/2014  22:15:00      -75.636      -24.206        5.732       38.293       24.329       18.674     1466.389      591.886      348.719        0.437        0.120       79.416       16.401        0.043      339.626       13.088      860.827
10/17/2014  22:16:00      -19.581      -21.641        4.928       12.988       18.728       10.887      168.688      350.724      118.517        0.076        0.032       29.185        6.614        0.051      339.627       13.090      860.852
10/17/2014  22:17:00      -38.395      -43.018        0.623       41.653       31.293       19.980     1734.947      979.257      399.183        0.322        0.156       57.661       19.407        0.113      339.683       13.184      860.874
10/17/2014  22:18:00      -49.214      -17.475        8.886       56.787       39.489       26.709     3224.738     1559.417      713.378        0.415        0.275       52.224       27.064        0.269      339.583       13.017      860.893
10/17/2014  22:19:00      -42.937      -14.876        8.255       58.575       47.121       30.393     3431.079     2220.367      923.716        0.435        0.329       45.441       34.937        0.591      339.610       13.061      860.915
10/17/2014  22:20:00      -24.190      -20.317       -6.005       18.353       23.830       19.569      336.851      567.849      382.958        0.116        0.064       31.590       11.721        0.138      339.533       12.931      860.928
10/17/2014  22:21:00      -89.422        1.263       -4.524       19.760       27.598       21.971      390.464      761.656      482.731        0.483        0.082       89.431       13.480        0.023      339.589       13.026      860.925
10/17/2014  22:22:00      -70.902       14.901       -7.143       29.901       23.273       12.215      894.065      541.654      149.201        0.344        0.079       72.451        7.151        0.010      339.487       12.854      860.922
10/17/2014  22:23:00     -112.724       18.370      -14.601       54.383       32.295       17.720     2957.459     1042.967      313.994        0.879        0.216      114.211       19.338        0.029      339.591       13.027      860.920
10/17/2014  22:24:00     -131.319       27.310      -23.053       49.302       76.149       23.035     2430.703     5798.649      530.620        1.364        0.438      134.129       16.291        0.015      339.718       13.242      860.906
10/17/2014  22:25:00      -75.082      -26.166        7.604       51.274       39.257       22.366     2628.989     1541.150      500.226        0.552        0.234       79.511       20.018        0.063      339.591       13.029      860.895
10/17/2014  22:26:00      -70.925      -26.792       -6.350       27.566       22.253       15.241      759.891      495.205      232.284        0.364        0.074       75.817       11.629        0.024      339.668       13.157      860.903
10/17/2014  22:27:00      -79.692       -1.632       -7.731       32.815       17.179       16.160     1076.844      295.104      261.130        0.402        0.082       79.708       13.762        0.030      339.631       13.097      860.910
10/17/2014  22:28:00      -68.660      -16.030      -19.089       33.386       29.934       29.173     1114.614      896.044      851.080        0.410        0.143       70.506       22.539        0.102      339.736       13.275      860.919
10/17/2014  22:29:00      -20.578        6.611       -3.728       30.705       27.231       22.204      942.772      741.552      493.032        0.133        0.109       21.613       20.649        0.913      339.777       13.344      860.931
10/17/2014  22:30:00      -23.494       58.360       -0.500       76.405       49.765       34.887     5837.795     2476.553     1217.083        0.674        0.477       62.912       44.999        0.512      339.757       13.309      860.936
10/17/2014  22:31:00      -22.099       68.287       -2.575       37.785       55.126       25.523     1427.743     3038.822      651.447        0.514        0.256       71.774       33.968        0.224      339.701       13.215      860.944
10/17/2014  22:32:00        1.229       54.227       -6.845       19.888       22.684       18.140      395.547      514.556      329.068        0.211        0.062       54.241        9.070        0.028      339.682       13.185      860.956
10/17/2014  22:33:00      -77.152       -6.077       -6.301       47.070       26.760       16.989     2215.582      716.098      288.641        0.462        0.161       77.391       25.838        0.111      339.417       12.737      860.978
10/17/2014  22:34:00      -17.756       -4.303       -4.860       48.930       18.459       22.374     2394.121      340.736      500.576        0.180        0.162       18.270       19.376        1.125      339.718       13.244      861.000
10/17/2014  22:35:00      -44.463        4.131       -9.391       34.831       29.929       23.966     1213.228      895.760      574.372        0.238        0.134       44.655       15.488        0.120      339.568       12.991      861.031
10/17/2014  22:36:00      -68.201       46.106      -16.428       30.581       28.854       19.466      935.178      832.525      378.941        0.460        0.107       82.323       14.193        0.030      339.680       13.180      861.043
10/17/2014  22:37:00      -75.490       22.775      -26.212       17.187       33.790       13.532      295.376     1141.769      183.112        0.426        0.081       78.851       17.164        0.047      339.681       13.182      861.050
10/17/2014  22:38:00      -22.128      -13.741       -9.510       22.582        8.835       16.268      509.941       78.065      264.638        0.081        0.043       26.048       14.386        0.305      339.613       13.067      861.046
10/17/2014  22:39:00      -65.989      -20.853       -4.814       24.767       31.362       14.608      613.412      983.597      213.401        0.331        0.091       69.205       11.334        0.027      339.510       12.894      861.048
10/17/2014  22:40:00      -66.069      -11.012       -4.686       30.553       21.945       16.078      933.477      481.605      258.494        0.309        0.084       66.980       14.951        0.050      339.458       12.805      861.050
10/17/2014  22:41:00      -73.957       23.754      -14.963       48.469       71.090       25.525     2349.211     5053.824      651.546        0.715        0.403       77.678       19.986        0.066      339.552       12.964      861.048
10/17/2014  22:42:00      -57.440       19.088      -13.815       59.047       59.943       27.817     3486.571     3593.211      773.778        0.585        0.393       60.529       31.104        0.264      339.570       12.994      861.039
10/17/2014  22:43:00      -76.449      -12.473       -4.338       21.201       26.122       17.254      449.493      682.369      297.705        0.372        0.071       77.460       15.233        0.039      339.521       12.910      861.033
10/17/2014  22:44:00     -146.983      150.531      -36.123       59.906       76.437       31.880     3588.736     5842.674     1016.351        2.801        0.522      210.389       32.269        0.024      339.509       12.888      861.036
10/17/2014  22:45:00      -58.535       14.648       -0.012       29.260       23.400       16.708      856.158      547.579      279.166        0.266        0.084       60.340       16.839        0.078      339.482       12.845      861.032
10/17/2014  22:46:00      -89.319       -1.714      -12.498       28.556       40.175       17.883      815.460     1613.993      319.787        0.544        0.137       89.336       19.517        0.048      339.361       12.641      861.039
10/17/2014  22:47:00      -48.236      -28.549       -4.566       45.492       34.520       20.386     2069.502     1191.630      415.590        0.342        0.184       56.052       16.150        0.083      339.271       12.490      861.039
10/17/2014  22:48:00      -70.460       11.471       -8.276       38.369       35.787       17.405     1472.145     1280.696      302.925        0.411        0.153       71.388       12.064        0.029      339.400       12.708      861.032
10/17/2014  22:49:00      -99.498      -13.618       -7.370       44.347       54.379       25.703     1966.695     2957.030      660.625        0.786        0.279      100.425       27.129        0.073      339.317       12.566      861.023
10/17/2014  22:50:00      -78.669      -15.279      -16.468       29.227       19.343       17.690      854.215      374.154      312.935        0.412        0.077       80.139       15.555        0.038      339.254       12.461      861.014
10/17/2014  22:51:00      -18.013       26.533       -2.380       26.548       31.804       21.764      704.815     1011.499      473.690        0.161        0.110       32.070       12.507        0.152      339.196       12.364      861.005
10/17/2014  22:52:00      -30.864       -2.881       -2.750       14.454       19.309       12.003      208.928      372.846      144.083        0.085        0.036       30.998        7.972        0.066      339.218       12.399      860.993
10/17/2014  22:53:00      -52.678       -4.196      -11.192       19.898       20.858       12.199      395.918      435.062      148.818        0.195        0.049       52.845       10.569        0.040      339.316       12.565      860.982
10/17/2014  22:54:00       -7.000      -33.643       -0.796       26.956       20.625       16.831      726.624      425.393      283.273        0.131        0.072       34.364       11.086        0.104      339.279       12.502      860.972
10/17/2014  22:55:00       -3.626      -26.515       -2.247       39.034       21.436       18.232     1523.686      459.485      332.413        0.152        0.116       26.762       18.509        0.478      339.180       12.337      860.975
10/17/2014  22:56:00       15.581      -49.331       -5.945       21.225       15.054       18.930      450.517      226.637      358.332        0.187        0.052       51.733       10.759        0.043      339.241       12.438      860.975
10/17/2014  22:57:00      -72.864      -41.906       -0.876       51.221       35.390       22.765     2623.562     1252.451      518.268        0.573        0.220       84.055       18.000        0.046      339.079       12.166      860.984
10/17/2014  22:58:00     -113.389      -64.349       -4.483       40.490       35.282       21.558     1639.443     1244.852      464.738        1.018        0.167      130.375       18.110        0.019      338.996       12.026      860.986
10/17/2014  22:59:00      -63.548      -71.102        0.477       44.443       42.415       24.685     1975.180     1798.996      609.357        0.674        0.219       95.362       24.649        0.067      338.831       11.751      860.992
10/17/2014  23:00:00      -74.891      -60.479       -9.877       19.446       38.633       15.685      378.166     1492.529      246.028        0.574        0.106       96.262       10.438        0.012      338.841       11.766      860.989
10/17/2014  23:01:00      -87.559      -94.288       -4.523       26.444       31.838       20.874      699.264     1013.669      435.721        0.936        0.107      128.674       12.781        0.010      338.793       11.687      860.991
10/17/2014  23:02:00     -138.806      -76.456       -6.200       39.916       33.899       22.811     1593.253     1149.144      520.344        1.421        0.163      158.470       21.827        0.019      338.794       11.688      860.994
10/17/2014  23:03:00     -163.306      -55.838       -7.345       33.226       27.433       21.505     1103.963      752.578      462.482        1.608        0.116      172.588       16.535        0.009      338.743       11.602      860.993
10/17/2014  23:04:00     -131.044      -46.591       -4.188       29.650       37.910       22.548      879.115     1437.186      508.399        1.109        0.141      139.080       20.854        0.022      338.724       11.570      860.987
10/17/2014  23:05:00     -106.439      -45.047       -7.459       33.592       38.058       18.094     1128.442     1448.377      327.391        0.816        0.145      115.579       14.416        0.016      338.786       11.675      860.999
10/17/2014  23:06:00     -109.033      -29.004      -11.421       48.450       29.792       19.238     2347.389      887.558      370.104        0.823        0.180      112.825       22.924        0.041      338.798       11.693      860.995
10/17/2014  23:07:00     -141.103      -42.787       -9.629       25.605       26.697       20.742      655.632      712.727      430.241        1.182        0.090      147.447       14.783        0.010      338.750       11.612      860.992
10/17/2014  23:08:00     -156.358      -41.124        1.726       63.461       35.251       24.975     4027.354     1242.609      623.769        1.602        0.295      161.675       32.612        0.041      338.622       11.398      861.004
10/17/2014  23:09:00     -133.420      -66.257       -0.390       51.299       26.876       23.366     2631.553      722.322      545.971        1.304        0.195      148.966       23.971        0.026      338.602       11.365      861.017
10/17/2014  23:10:00     -154.407      -64.876       -6.075       46.571       38.084       27.081     2168.889     1450.374      733.388        1.622        0.218      167.482       27.413        0.027      338.619       11.394      861.019
10/17/2014  23:11:00     -152.650      -70.115       -2.860       35.190       30.230       24.209     1238.355      913.826      586.091        1.548        0.137      167.982       21.623        0.017      338.541       11.264      861.027
10/17/2014  23:12:00     -134.034      -55.627        4.048       60.418       36.071       27.571     3650.350     1301.143      760.167        1.339        0.286      145.119       32.788        0.051      338.679       11.495      861.035
10/17/2014  23:13:00     -121.698      -42.114       -0.186       27.461       31.608       16.829      754.126      999.035      283.203        0.931        0.102      128.778       13.659        0.011      338.674       11.487      861.045
10/17/2014  23:14:00     -106.800      -25.930       -4.758       38.738       26.929       18.249     1500.647      725.148      333.010        0.733        0.128      109.903       17.490        0.025      338.653       11.450      861.049
10/17/2014  23:15:00     -111.286      -27.519        0.471       32.824       22.459       19.499     1077.439      504.388      380.225        0.755        0.098      114.638       17.437        0.023      338.569       11.310      861.061
10/17/2014  23:16:00     -107.923      -53.985       -0.386       29.677       24.832       20.136      880.719      616.647      405.445        0.823        0.095      120.672       16.230        0.018      338.536       11.253      861.077
10/17/2014  23:17:00     -133.840      -38.585       -1.305       32.027       30.991       21.118     1025.721      960.465      445.957        1.092        0.122      139.291       17.580        0.016      338.511       11.212      861.094
10/17/2014  23:18:00     -142.974      -47.038       -7.686       30.874       20.902       17.232      953.196      436.886      296.932        1.220        0.084      150.513       11.487        0.006      338.597       11.356      861.114
10/17/2014  23:19:00     -119.788      -45.436      -10.438       47.122       31.415       20.366     2220.471      986.886      414.794        1.007        0.181      128.116       23.293        0.033      338.578       11.325      861.131
10/17/2014  23:20:00     -129.096      -30.641      -12.435       27.348       22.595       18.264      747.908      510.535      333.575        0.968        0.080      132.683       13.108        0.010      338.525       11.237      861.123
10/17/2014  23:21:00     -114.504      -53.747       -5.245       49.603       32.595       24.316     2460.472     1062.466      591.282        1.007        0.206      126.491       24.099        0.036      338.478       11.156      861.138
10/17/2014  23:22:00      -95.776      -32.925        1.437       27.329       31.500       18.145      746.892      992.242      329.249        0.616        0.103      101.277       16.450        0.026      338.509       11.208      861.143
10/17/2014  23:23:00     -116.510      -42.399      -12.684       23.432       19.679       12.074      549.035      387.263      145.779        0.831        0.054      123.984        9.157        0.005      338.463       11.130      861.128
10/17/2014  23:24:00     -124.223      -51.490       -7.804       34.995       36.733       17.633     1224.654     1349.332      310.940        1.051        0.144      134.471       18.077        0.018      338.463       11.132      861.128
10/17/2014  23:25:00     -141.661      -34.711       -9.034       40.411       24.745       21.989     1633.084      612.301      483.531        1.204        0.136      145.851       24.416        0.028      338.323       10.897      861.137
10/17/2014  23:26:00     -111.900      -16.239      -10.855       32.143       25.194       16.780     1033.155      634.717      281.585        0.743        0.097      113.072       13.557        0.014      338.249       10.772      861.130
10/17/2014  23:27:00      -36.700      -19.518        2.925       21.701       25.415       15.407      470.934      645.921      237.360        0.155        0.068       41.567        9.877        0.056      338.263       10.796      861.108
10/17/2014  23:28:00     -126.311        0.134      -12.995       80.396       37.124       17.533     6463.452     1378.208      307.421        1.213        0.407      126.311       25.819        0.042      338.286       10.834      861.109
10/17/2014  23:29:00     -137.357      -20.893      -20.472       59.344       27.814       15.767     3521.710      773.614      248.607        1.213        0.227      138.937       10.544        0.006      338.241       10.758      861.122
10/17/2014  23:30:00     -107.104      -28.104       -7.393       72.507       22.041       21.456     5257.240      485.819      460.377        0.926        0.310      110.730       28.780        0.068      338.225       10.733      861.107
10/17/2014  23:31:00     -102.124      -21.214      -13.960       26.095       28.221       22.793      680.962      796.420      519.534        0.654        0.100      104.304       16.641        0.025      338.208       10.703      861.118
10/17/2014  23:32:00     -117.009      -45.446      -23.537       38.492       31.511       19.559     1481.665      992.944      382.554        0.958        0.143      125.525       21.048        0.028      338.204       10.696      861.116
10/17/2014  23:33:00     -135.518      -50.209       -7.510       62.723       50.447       30.364     3934.151     2544.903      921.993        1.417        0.370      144.520       30.439        0.044      338.126       10.566      861.129
10/17/2014  23:34:00      -89.101        5.460      -10.216       44.617       31.403       23.460     1990.683      986.129      550.353        0.580        0.176       89.268       20.082        0.051      338.224       10.730      861.138
10/17/2014  23:35:00     -110.105       -7.849      -12.196       34.992       44.653       27.736     1224.457     1993.858      769.299        0.816        0.199      110.385       21.855        0.039      338.243       10.762      861.164
10/17/2014  23:36:00     -167.635      -22.831      -25.147       35.851       32.717       19.449     1285.278     1070.417      378.275        1.599        0.137      169.183       11.921        0.005      338.114       10.547      861.184
10/17/2014  23:37:00     -163.333       26.634      -22.452       22.068       17.674       14.921      486.975      312.376      222.624        1.446        0.051      165.491        8.054        0.002      338.133       10.577      861.190
10/17/2014  23:38:00     -126.072       17.588      -15.117       43.281       27.843       15.754     1873.254      775.246      248.198        0.966        0.145      127.293       16.285        0.016      338.218       10.721      861.202
10/17/2014  23:39:00      -75.820        9.730      -14.040       15.972       12.495       10.329      255.097      156.113      106.684        0.328        0.026       76.442        8.395        0.012      338.393       11.014      861.211
10/17/2014  23:40:00     -132.893       -3.794      -12.169       29.396       23.424       15.808      864.100      548.696      249.884        0.974        0.083      132.947        9.825        0.005      338.301       10.860      861.229
10/17/2014  23:41:00     -117.409       17.420      -11.499       33.215       20.494       17.887     1103.225      420.024      319.949        0.803        0.092      118.694       18.720        0.025      338.349       10.939      861.242
10/17/2014  23:42:00     -104.886      -13.686      -16.249       24.756       28.511       14.771      612.880      812.893      218.191        0.655        0.082      105.775       10.202        0.009      338.336       10.917      861.266
10/17/2014  23:43:00      -93.205      -12.228      -12.508       37.844       25.589       16.338     1432.205      654.803      266.942        0.567        0.118       94.004       18.173        0.037      338.191       10.675      861.291
10/17/2014  23:44:00      -99.486      -22.530      -12.108       25.101       18.320       14.293      630.046      335.620      204.299        0.586        0.058      102.005       10.657        0.011      338.160       10.623      861.322
10/17/2014  23:45:00     -100.365      -37.930      -13.931       24.128       22.640       14.788      582.182      512.591      218.695        0.651        0.066      107.293       11.434        0.011      338.151       10.608      861.353
10/17/2014  23:46:00      -91.683      -33.195      -14.467       16.053       17.021       12.880      257.690      289.730      165.901        0.522        0.036       97.508        9.386        0.009      338.068       10.469      861.368
10/17/2014  23:47:00      -78.959      -31.189       -9.330       35.287       21.792       14.908     1245.176      474.887      222.249        0.462        0.097       84.895       16.755        0.039      338.139       10.587      861.375
10/17/2014  23:48:00      -83.834      -41.336       -5.708       29.966       20.282       17.456      897.943      411.376      304.708        0.519        0.081       93.471       15.098        0.026      338.282       10.828      861.365
10/17/2014  23:49:00      -99.254      -30.091       -6.407       24.123       23.510       13.378      581.941      552.709      178.978        0.606        0.066      103.715        9.977        0.009      338.254       10.779      861.362
10/17/2014  23:50:00     -108.534       47.681      -22.284       27.106       47.762       18.000      734.736     2281.201      323.982        0.894        0.167      118.545       22.367        0.036      338.717       11.559      861.369
10/17/2014  23:51:00      -50.604       85.336      -19.269       45.339       41.364       15.723     2055.606     1710.980      247.207        0.711        0.201       99.212       12.976        0.017      338.917       11.893      861.353
10/17/2014  23:52:00      -40.294       -1.018       -5.084       14.929       37.390       14.367      222.885     1398.021      206.415        0.174        0.091       40.307       18.339        0.207      338.781       11.664      861.337
10/17/2014  23:53:00     -108.467       55.878      -19.544       38.989       35.271       21.006     1520.120     1244.010      441.264        0.924        0.160      122.014       21.162        0.030      338.915       11.892      861.346
10/17/2014  23:54:00      -83.217       35.928      -10.936       29.909       31.393       20.131      894.528      985.532      405.258        0.531        0.114       90.642       16.069        0.031      338.741       11.599      861.336
10/17/2014  23:55:00     -104.667       93.218      -22.895       53.480       30.846       27.301     2860.105      951.468      745.344        1.236        0.228      140.160       28.749        0.042      338.920       11.900      861.327
10/17/2014  23:56:00     -117.952      119.436      -27.344       39.603       60.817       32.209     1568.381     3698.723     1037.431        1.761        0.315      167.862       33.826        0.041      338.949       11.947      861.308
10/17/2014  23:57:00     -103.754      111.618      -14.580       49.341       51.733       32.487     2434.547     2676.337     1055.397        1.480        0.308      152.392       24.129        0.025      338.885       11.839      861.296
10/17/2014  23:58:00     -124.811       39.541      -15.049       49.172       40.543       31.158     2417.844     1643.762      970.850        1.120        0.252      130.924       25.313        0.037      338.879       11.829      861.279
10/17/2014  23:59:00     -131.910       91.120      -32.310       36.158       53.268       28.555     1307.412     2837.454      815.378        1.585        0.248      160.322       33.439        0.044      338.817       11.726      861.262
